     2.00           OBSERVATION DATA    G (GPS)             RINEX VERSION / TYPE
teqc 1999Jun10 Lou Estey 19990610 16:29:32UTC               PGM / RUN BY / DATE
Solaris 2.3|S-Sparc|cc SC3.0|=+|*Sparc                      COMMENT
BIT 2 OF LLI FLAGS DATA COLLECTED UNDER A/S CONDITION       COMMENT
-Unknown-                                                   MARKER NAME
DOUG                                                        MARKER NUMBER
-Unknown- -Unknown-                                         OBSERVER / AGENCY
-Unknown- -Unknown- -Unknown-                               REC # / TYPE / VERS
-Unknown- -Unknown-                                         ANT # / TYPE
 -2690727.1988 -4262935.2384  3894510.5739                  APPROX POSITION XYZ
        0.0000        0.0000        0.0000                  ANTENNA: DELTA H/E/N
     1     1                                                WAVELENGTH FACT L1/2
     5    L1    L2    C1    P1    P2                        # / TYPES OF OBSERV
SNR is mapped to RINEX snr flag value [1-9]                 COMMENT
L1: 1 -> 1; 90 -> 5; 210 -> 9                               COMMENT
L2: 1 -> 1; 150 -> 5; 250 -> 9                              COMMENT
  1997     6    10     3     0   11.0000000     GPS         TIME OF FIRST OBS
                                                            END OF HEADER
 97  6 10  3  0 11.0000000  0  8G21G17G23G25G 3G31G 9G 1
   -838157.90149   -648525.24847  20975634.8264   20975634.9994   20975640.1094
   2053327.90747   1590591.08145  25098293.2464   25098292.6844   25098302.3414
    640684.00748    496868.56646  23360983.0604   23360983.6074   23360992.4384
  -4938141.95747  -3825559.89045  24694564.8554   24694564.7994   24694568.6604
   1027995.57048    797917.90546  22547635.5014   22547634.7954   22547640.8314
   -953870.98648   -737064.95746  22200690.0894   22200689.2574   22200692.9064
     79168.62546     74767.03745  24560379.7024   24560380.3744   24560376.9274
  -2127874.52349  -1479785.86347  20346742.4724   20346742.1634   20346746.5054
 97  6 10  3  0 12.0000000  0  8G21G17G23G25G 3G31G 9G 1
   -838832.23449   -649050.70447  20975506.5334   20975506.5814   20975511.8534
   2055376.66447   1592187.51645  25098683.0444   25098681.9734   25098691.5774
    641345.87248    497384.30946  23361109.1014   23361109.0484   23361118.6684
  -4942942.79247  -3829300.79545  24693651.4174   24693651.4504   24693655.2124
   1029182.70248    798842.94446  22547861.3604   22547861.7204   22547866.3004
   -954457.07048   -737521.64846  22200578.5904   22200577.6424   22200582.2854
     79492.36646     75019.29945  24560441.5344   24560442.0494   24560438.2044
  -2129602.53849  -1481132.36747  20346413.6594   20346413.3194   20346417.6374
 97  6 10  3  0 13.0000000  0  8G21G17G23G25G 3G31G 9G 1
   -839506.38649   -649576.01647  20975378.2394   20975378.3004   20975383.7994
   2057425.50047   1593784.00745  25099072.9364   25099071.4484   25099081.6064
    642007.74848    497900.06846  23361235.1084   23361235.0324   23361244.9234
  -4947743.76647  -3833041.81045  24692737.9514   24692737.2974   24692741.7534
   1030370.07648    799768.16346  22548087.2584   22548088.0514   22548092.0724
   -955042.61448   -737977.91446  22200467.2294   22200465.5674   22200470.3314
     79816.57646     75271.92845  24560503.5104   24560503.7244   24560500.3784
  -2131330.07749  -1482478.49947  20346084.9084   20346084.6334   20346088.7744
 97  6 10  3  0 14.0000000  0  8G21G17G23G25G 3G31G 9G 1
   -840180.47049   -650101.27747  20975249.9364   20975249.9474   20975255.4764
   2059474.26947   1595380.45045  25099462.8504   25099461.9864   25099470.4734
    642669.54848    498415.76146  23361361.0304   23361360.0454   23361371.5384
  -4952544.97847  -3836783.01245  24691824.4554   24691823.5634   24691828.0994
   1031557.60548    800693.50546  22548313.2134   22548314.2014   22548317.6104
   -955627.71348   -738433.83446  22200355.9054   22200354.4044   22200359.2464
     80141.18446     75524.86545  24560565.4374   24560565.3804   24560563.1794
  -2133057.22449  -1483824.33047  20345756.2514   20345755.9204   20345760.2024
 97  6 10  3  0 15.0000000  0  8G21G17G23G25G 3G31G 9G 1
   -840854.53049   -650626.51947  20975121.6734   20975121.7754   20975127.2244
   2061522.93947   1596976.81645  25099852.7274   25099851.8224   25099859.7534
    643331.20548    498931.33946  23361486.8454   23361485.1804   23361497.7394
  -4957346.49547  -3840524.45145  24690910.9124   24690910.0184   24690914.6074
   1032745.22848    801618.92546  22548539.1844   22548540.0434   22548544.0154
   -956212.41448   -738889.45646  22200244.6424   22200242.9824   22200247.4754
     80465.99946     75777.96645  24560627.0534   24560627.3074   24560624.4774
  -2134784.03849  -1485169.90047  20345427.6704   20345427.4044   20345431.5314
 97  6 10  3  0 16.0000000  0  8G21G17G23G25G 3G31G 9G 1
   -841528.28049   -651151.51747  20974993.5274   20974993.4294   20974998.9204
   2063571.78847   1598573.32245  25100242.6374   25100242.7034   25100249.8124
    643993.01348    499447.03846  23361612.6614   23361610.7074   23361623.8474
  -4962148.01047  -3844265.89245  24689997.3374   24689996.6964   24690001.3004
   1033933.23648    802544.65046  22548765.2274   22548765.8694   22548770.4004
   -956796.43648   -739344.53446  22200133.5314   22200131.7004   22200136.4044
     80791.46846     76031.57745  24560688.2324   24560689.1164   24560687.0924
  -2136510.23949  -1486514.99147  20345099.1984   20345098.9664   20345102.9694
 97  6 10  3  0 17.0000000  0  8G21G17G23G25G 3G31G 9G 1
   -842201.36649   -651675.99847  20974865.4994   20974865.2244   20974871.1364
   2065621.17947   1600170.24545  25100632.6814   25100632.4734   25100640.3504
    644655.33248    499963.12946  23361738.5834   23361737.1444   23361750.2894
  -4966949.18647  -3848007.06145  24689083.7724   24689083.3804   24689087.3564
   1035121.99048    803470.95046  22548991.4464   22548991.6314   22548996.9124
   -957379.42048   -739798.80346  22200022.5944   22200021.0264   22200026.0524
     81117.88146     76285.92645  24560749.1494   24560750.8994   24560747.4904
  -2138235.45149  -1487859.30847  20344770.8914   20344770.4074   20344774.8404
 97  6 10  3  0 18.0000000  0  8G21G17G23G25G 3G31G 9G 1
   -842873.90749   -652200.05747  20974737.5754   20974737.2114   20974742.9484
   2067671.00347   1601767.50845  25101022.8684   25101022.3274   25101030.8244
    645318.03748    500479.51746  23361864.7294   23361863.7144   23361876.2644
  -4971750.12647  -3851748.04945  24688170.2294   24688168.8314   24688173.6214
   1036311.37548    804397.74746  22549217.7314   22549218.1034   22549223.0664
   -957961.47248   -740252.35746  22199911.8694   22199910.8514   22199915.5844
     81445.10346     76540.90145  24560810.6044   24560813.2374   24560810.2664
  -2139959.80149  -1489202.96047  20344442.7684   20344442.2664   20344446.6374
 97  6 10  3  0 19.0000000  0  8G21G17G23G25G 3G31G 9G 1
   -843545.80749   -652723.61347  20974609.7384   20974609.5284   20974615.0124
   2069721.30847   1603365.14945  25101412.9414   25101412.1494   25101420.2684
    645981.23248    500996.28746  23361990.9834   23361990.2004   23362002.0064
  -4976550.75447  -3855488.79045  24687256.6954   24687255.3034   24687259.9164
   1037501.46748    805325.09346  22549444.1354   22549445.0714   22549449.2144
   -958542.50848   -740705.10946  22199801.3144   22199799.3954   22199804.5124
     81773.30046     76796.63945  24560872.6984   24560874.9064   24560873.9884
  -2141683.19649  -1490545.86347  20344114.8094   20344114.4004   20344118.7034
 97  6 10  3  0 20.0000000  0  8G21G17G23G25G 3G31G 9G 1
   -844217.35549   -653246.90047  20974481.9614   20974481.8464   20974487.1764
   2071771.86847   1604962.98945  25101803.0864   25101802.8834   25101809.8044
    646644.62248    501513.21146  23362117.2294   23362116.5474   23362128.0094
  -4981351.34147  -3859229.50645  24686343.1844   24686341.6954   24686347.0954
   1038692.00048    806252.77846  22549670.6514   22549671.7134   22549675.8714
   -959122.81948   -741157.30546  22199690.8894   22199689.3104   22199694.6504
     82102.10746     77052.85244  24560934.6674   24560936.9374   24560938.3494
  -2143405.91949  -1491888.24547  20343786.9724   20343786.6914   20343791.0064
 97  6 10  3  0 21.0000000  0  8G21G17G23G25G 3G31G 9G 1
   -844888.86249   -653770.15347  20974354.1944   20974353.9434   20974359.6044
   2073822.32247   1606560.74145  25102193.2004   25102193.1724   25102199.1704
    647307.89248    502030.04646  23362243.3684   23362243.0404   23362253.4984
  -4986152.19547  -3862970.42445  24685429.5334   24685428.3054   24685432.8534
   1039882.66448    807180.56846  22549897.1544   22549898.4224   22549902.7994
   -959702.71248   -741609.16446  22199580.5264   22199579.2064   22199584.0514
     82431.25646     77309.32944  24560996.6454   24560999.6954   24561001.4924
  -2145128.29049  -1493230.35447  20343459.2114   20343459.0064   20343463.1364
 97  6 10  3  0 22.0000000  0  8G21G17G23G25G 3G31G 9G 1
   -845560.42849   -654293.45247  20974226.4284   20974226.2904   20974231.6654
   2075872.56547   1608158.33345  25102583.2384   25102583.3254   25102589.0324
    647970.94648    502546.70746  23362369.4294   23362368.9944   23362379.2884
  -4990953.42047  -3866711.63445  24684515.7674   24684514.3464   24684519.6134
   1041073.34948    808108.37046  22550123.7164   22550125.0954   22550129.5464
   -960282.32948   -742060.81846  22199470.1974   22199469.1814   22199473.3464
     82760.57146     77565.94044  24561058.9834   24561060.3044   24561063.6834
  -2146850.39849  -1494572.25747  20343131.4864   20343131.0894   20343135.3244
 97  6 10  3  0 23.0000000  0  8G21G17G23G25G 3G31G 9G 1
   -846232.18749   -654816.90047  20974098.5744   20974098.2194   20974103.8634
   2077922.51547   1609755.69845  25102973.1574   25102973.1824   25102979.5974
    648633.63148    503063.08346  23362495.3844   23362495.3934   23362505.3524
  -4995755.13147  -3870453.22245  24683601.9444   24683600.5344   24683605.7964
   1042263.92748    809036.09246  22550350.3114   22550351.1884   22550356.0554
   -960861.75048   -742512.31746  22199359.9404   22199359.2294   22199362.7924
     83090.03346     77822.66244  24561121.7454   24561122.4584   24561126.8334
  -2148572.36849  -1495914.05347  20342803.7694   20342803.4824   20342807.6924
 97  6 10  3  0 24.0000000  0  8G21G17G23G25G 3G31G 9G 1
   -846903.75449   -655340.19847  20973970.7824   20973970.3354   20973976.1784
   2079972.52647   1611353.10545  25103363.2524   25103363.8514   25103369.8774
    649296.35548    503579.49446  23362621.4074   23362620.6884   23362630.9754
  -5000556.95447  -3874194.89945  24682688.0964   24682686.2214   24682691.7074
   1043454.80348    809964.04446  22550576.9534   22550577.3534   22550582.1454
   -961440.62648   -742963.38946  22199249.7524   22199248.4024   22199253.0404
     83419.95246     78079.74244  24561184.7694   24561184.5394   24561190.1214
  -2150293.82049  -1497255.44347  20342476.2074   20342475.9264   20342480.1214
 97  6 10  3  0 25.0000000  0  8G21G17G23G25G 3G31G 9G 1
   -847575.22149   -655863.41747  20973843.0544   20973842.7764   20973848.4384
   2082022.51047   1612950.49745  25103753.3304   25103754.3194   25103760.2574
    649959.00948    504095.84746  23362747.3834   23362746.4284   23362756.8674
  -5005358.96747  -3877936.72545  24681774.2114   24681772.3514   24681777.8814
   1044645.87248    810892.14846  22550803.7534   22550803.5654   22550808.9524
   -962018.97948   -743414.05246  22199139.6494   22199138.2324   22199143.5894
     83750.26846     78337.13944  24561247.9024   24561247.5064   24561252.2774
  -2152014.82949  -1498596.48747  20342148.7204   20342148.4634   20342152.6204
 97  6 10  3  0 26.0000000  0  8G21G17G23G25G 3G31G 9G 1
   -848246.33149   -656386.36147  20973715.3324   20973714.9094   20973720.5804
   2084072.75647   1614548.08545  25104143.4114   25104143.6554   25104150.7124
    650621.84648    504612.34246  23362873.4494   23362872.4284   23362882.9484
  -5010160.94047  -3881678.52145  24680860.2854   24680858.9604   24680864.2114
   1045837.41348    811820.62146  22551030.5684   22551030.6624   22551035.5934
   -962596.59048   -743864.13846  22199029.6414   22199027.8134   22199033.2454
     84081.25646     78595.05344  24561311.4204   24561309.9384   24561314.7654
  -2153735.14849  -1499936.99647  20341821.3934   20341821.1524   20341825.1454
 97  6 10  3  0 27.0000000  0  8G21G17G23G25G 3G31G 9G 1
   -848917.46049   -656909.31847  20973587.6014   20973587.2954   20973592.8934
   2086122.85247   1616145.56045  25104533.5134   25104533.6224   25104541.2644
    651284.53548    505128.72446  23362999.4294   23362998.7174   23363009.3034
  -5014963.21647  -3885420.54845  24679946.3534   24679945.7254   24679950.2274
   1047029.03048    812749.15646  22551257.3624   22551258.2074   22551262.1954
   -963173.83148   -744313.93446  22198919.7294   22198918.4544   22198923.2914
     84412.51946     78853.18244  24561374.9424   24561371.8554   24561378.5114
  -2155455.15949  -1501277.26347  20341494.1284   20341493.8564   20341497.8634
 97  6 10  3  0 28.0000000  0  8G21G17G23G25G 3G31G 9G 1
   -849587.92649   -657431.75847  20973460.0134   20973459.4984   20973465.3924
   2088173.50147   1617743.46545  25104923.7274   25104923.5034   25104931.6744
    651947.69348    505645.47146  23363125.5254   23363125.2754   23363135.9524
  -5019765.12547  -3889162.29045  24679032.4984   24679031.8364   24679036.3174
   1048221.41348    813678.28346  22551484.4004   22551484.8744   22551489.3024
   -963750.02648   -744762.91946  22198810.0124   22198808.3924   22198813.5014
     84744.71546     79112.03744  24561438.4554   24561435.1814   24561441.5624
  -2157174.16849  -1502616.75247  20341167.0344   20341166.6784   20341170.8064
 97  6 10  3  0 29.0000000  0  8G21G17G23G25G 3G31G 9G 1
   -850257.74849   -657953.69847  20973332.5794   20973332.0754   20973337.8634
   2090224.70047   1619341.79545  25105314.0204   25105313.6894   25105321.5494
    652611.34948    506162.60646  23363251.8674   23363251.7664   23363262.6014
  -5024566.68247  -3892903.75845  24678118.6744   24678118.3594   24678122.7014
   1049414.55548    814608.00346  22551711.5134   22551712.2664   22551716.8304
   -964325.18648   -745211.09746  22198700.4724   22198699.3014   22198703.9764
     85077.84446     79371.62344  24561502.2534   24561499.0454   24561504.6864
  -2158892.18549  -1503955.46447  20340840.1034   20340839.7864   20340843.8754
 97  6 10  3  0 30.0000000  0  8G21G17G23G25G 3G31G 9G 1
   -850926.92849   -658475.13747  20973205.2054   20973204.8744   20973210.2654
   2092276.42947   1620940.54245  25105704.4294   25105704.0074   25105711.7734
    653275.48348    506680.11546  23363378.3614   23363378.6894   23363389.0144
  -5029367.90047  -3896644.96545  24677204.8474   24677204.1424   24677209.2834
   1050608.44648    815538.30646  22551938.8064   22551938.9584   22551943.7464
   -964899.33848   -745658.48946  22198591.0384   22198590.0554   22198594.8414
     85411.82646     79631.87344  24561565.8714   24561562.8874   24561566.7074
  -2160609.22649  -1505293.41747  20340513.3714   20340512.9924   20340517.1684
 97  6 10  3  0 31.0000000  0  8G21G17G23G25G 3G31G 9G 1
   -851595.90749   -658996.42047  20973077.8444   20973077.6194   20973083.2684
   2094328.26047   1622539.37145  25106094.7954   25106094.1264   25106102.2894
    653939.64548    507197.64146  23363504.8664   23363504.8734   23363515.0854
  -5034169.16047  -3900386.20045  24676291.0544   24676290.8124   24676295.6594
   1051802.65548    816468.85546  22552166.0324   22552166.0784   22552171.2474
   -965472.87048   -746105.39946  22198481.7864   22198481.2334   22198486.2654
     85746.41146     79892.59044  24561629.3474   24561626.1374   24561630.2824
  -2162325.72949  -1506630.95447  20340186.7264   20340186.2204   20340190.3914
 97  6 10  3  0 32.0000000  0  8G21G17G23G25G 3G31G 9G 1
   -852265.19449   -659517.94247  20972950.4284   20972950.1684   20972955.9304
   2096379.71047   1624137.90145  25106485.1244   25106484.8714   25106492.5264
    654603.35848    507714.82546  23363631.2884   23363630.6444   23363641.1554
  -5038971.01147  -3904127.89845  24675377.0914   24675377.0264   24675382.5624
   1052996.67948    817399.26646  22552393.2514   22552393.1584   22552398.3004
   -966046.31748   -746552.24346  22198372.5494   22198372.0674   22198376.1044
     86080.90346     80153.23844  24561692.8664   24561690.4054   24561692.2714
  -2164042.19149  -1507968.45847  20339860.0714   20339859.7494   20339863.7484
 97  6 10  3  0 33.0000000  0  8G21G17G23G25G 3G31G 9G 1
   -852934.73449   -660039.66347  20972822.9934   20972822.7824   20972828.4044
   2098430.80647   1625736.15645  25106875.3624   25106874.4294   25106882.6894
    655266.65648    508231.68446  23363757.3214   23363757.0434   23363767.2674
  -5043773.37547  -3907869.99745  24674463.1304   24674462.8954   24674468.7644
   1054190.58448    818329.58146  22552620.3874   22552620.7614   22552625.4754
   -966619.62648   -746998.97746  22198263.3844   22198262.9344   22198267.4634
     86415.50946     80413.97244  24561756.3804   24561754.9324   24561754.8124
  -2165758.56549  -1509305.89247  20339533.4554   20339533.2384   20339537.4184
 97  6 10  3  0 34.0000000  0  8G21G17G23G25G 3G31G 9G 1
   -853604.28849   -660561.39247  20972695.5924   20972695.2434   20972701.0134
   2100481.78647   1627334.31945  25107265.5464   25107265.2924   25107273.0864
    655929.77548    508748.39946  23363883.0934   23363882.4724   23363893.0464
  -5048576.00547  -3911612.30645  24673549.1534   24673549.4654   24673554.4964
   1055384.58748    819259.97146  22552847.5894   22552847.6694   22552853.1404
   -967192.53748   -747445.40046  22198154.2994   22198153.5324   22198158.0464
     86750.38846     80674.92144  24561819.7944   24561819.2244   24561819.3124
  -2167474.62049  -1510643.07647  20339206.8974   20339206.4864   20339210.8564
 97  6 10  3  0 35.0000000  0  8G21G17G23G25G 3G31G 9G 1
   -854273.83049   -661083.11247  20972568.1484   20972567.8524   20972573.5114
   2102532.68647   1628932.41845  25107655.8124   25107655.3834   25107663.2764
    656592.73248    509264.99346  23364008.8754   23364008.9914   23364019.0194
  -5053378.90547  -3915354.82445  24672635.0584   24672635.4034   24672640.6544
   1056578.72348    820190.46846  22553074.8474   22553074.7904   22553079.6564
   -967765.05948   -747891.51946  22198045.2584   22198044.5754   22198049.4854
     87085.47546     80936.03544  24561883.3154   24561884.1864   24561883.0454
  -2169190.32649  -1511979.99047  20338880.4244   20338880.0704   20338884.3244
 97  6 10  3  0 36.0000000  0  8G21G17G23G25G 3G31G 9G 1
   -854942.95349   -661604.50647  20972440.7844   20972440.4414   20972446.3224
   2104583.92247   1630530.78345  25108046.1134   25108045.9834   25108053.5384
    657255.95248    509781.79246  23364134.7994   23364135.1674   23364144.6844
  -5058181.63747  -3919097.21145  24671721.0154   24671721.5954   24671726.5844
   1057773.39348    821121.38046  22553302.2074   22553302.3464   22553307.2534
   -968336.75248   -748336.99846  22197936.3824   22197935.4834   22197940.7194
     87421.39946     81197.80144  24561947.3934   24561948.1454   24561947.6824
  -2170905.26749  -1513316.30747  20338554.1074   20338553.7474   20338557.8884
 97  6 10  3  0 37.0000000  0  8G21G17G23G25G 3G31G 9G 1
   -855611.89649   -662125.76047  20972313.4624   20972313.2254   20972318.9594
   2106635.24447   1632129.21545  25108436.4114   25108436.0944   25108443.2534
    657919.18948    510298.60146  23364260.8004   23364261.6264   23364270.5564
  -5062984.44047  -3922839.65745  24670806.9164   24670806.8514   24670812.8704
   1058968.37048    822052.52946  22553529.6354   22553530.4934   22553534.5114
   -968907.86448   -748782.01946  22197827.5734   22197827.5434   22197832.3444
     87757.82046     81459.95144  24562011.5424   24562012.0534   24562012.1844
  -2172619.68549  -1514652.21847  20338227.8774   20338227.5594   20338231.5634
 97  6 10  3  0 38.0000000  0  8G21G17G23G25G 3G31G 9G 1
   -856280.63649   -662646.85847  20972186.1944   20972186.0164   20972191.8394
   2108686.67347   1633727.72945  25108826.8564   25108826.9004   25108833.8834
    658582.44248    510815.42046  23364387.0344   23364387.8304   23364396.5384
  -5067787.35247  -3926582.18745  24669892.8354   24669892.9244   24669898.6254
   1060163.67548    822983.93446  22553757.0684   22553758.0374   22553761.8084
   -969478.38448   -749226.57946  22197718.8414   22197718.3014   22197723.3844
     88094.66646     81722.43444  24562075.8464   24562076.3914   24562074.7664
  -2174333.57449  -1515987.71647  20337901.7374   20337901.3104   20337905.6714
 97  6 10  3  0 39.0000000  0  8G21G17G23G25G 3G31G 9G 1
   -856948.91949   -663167.59747  20972058.9854   20972058.8474   20972064.6244
   2110738.49147   1635326.54645  25109217.4164   25109217.1784   25109224.1454
    659246.03348    511332.50546  23364513.2174   23364513.8294   23364522.7494
  -5072590.03547  -3930324.54145  24668978.7844   24668979.1534   24668984.5344
   1061359.55948    823915.78946  22553984.6124   22553985.3554   22553989.1024
   -970048.05448   -749670.47746  22197610.3134   22197609.6314   22197615.1374
     88432.34846     81985.56744  24562140.6494   24562140.7124   24562139.1684
  -2176046.66449  -1517322.58947  20337575.7374   20337575.3094   20337579.4544
 97  6 10  3  0 40.0000000  0  8G21G17G23G25G 3G31G 9G 1
   -857616.65249   -663687.90747  20971931.8424   20971931.7574   20971937.6074
   2112790.77647   1636925.72645  25109608.0024   25109607.8574   25109614.8944
    659910.01948    511849.89846  23364639.5174   23364639.7344   23364649.4244
  -5077392.38747  -3934066.63045  24668064.8394   24668065.4074   24668070.8984
   1062556.15348    824848.19746  22554212.3784   22554212.4734   22554217.3584
   -970616.73648   -750113.60346  22197501.9534   22197502.1654   22197506.9154
     88770.87446     82249.36044  24562205.6684   24562205.6564   24562202.9604
  -2177758.86149  -1518656.76447  20337249.9314   20337249.6044   20337253.5854
 97  6 10  3  0 41.0000000  0  8G21G17G23G25G 3G31G 9G 1
   -858283.67749   -664207.66947  20971804.9024   20971804.9534   20971810.6644
   2114843.69446   1638525.40545  25109998.6644   25109998.7854   25110006.6914
    660574.56348    512367.73146  23364765.9724   23364766.5904   23364776.0214
  -5082194.27847  -3937808.35545  24667151.0054   24667151.7214   24667156.8824
   1063753.58248    825781.25746  22554440.3264   22554440.4754   22554445.3054
   -971184.31248   -750555.86946  22197393.7984   22197394.1954   22197399.1524
     89110.45846     82513.97744  24562271.0114   24562271.0064   24562267.2904
  -2179470.00149  -1519990.12247  20336924.2774   20336923.8524   20336928.2044
 97  6 10  3  0 42.0000000  0  8G21G17G23G25G 3G31G 9G 1
   -858950.63249   -664727.37547  20971678.0074   20971678.2724   20971683.8734
   2116896.59746   1640125.07045  25110389.4234   25110389.4104   25110397.0774
    661239.04448    512885.50646  23364892.3734   23364893.0404   23364903.6514
  -5086996.33047  -3941550.21145  24666237.0984   24666238.2014   24666242.8354
   1064951.23148    826714.49346  22554668.2144   22554668.1954   22554673.3324
   -971751.39148   -750997.74946  22197285.7994   22197285.8164   22197291.3344
     89450.40846     82778.88044  24562336.3984   24562335.3904   24562332.5424
  -2181180.72249  -1521323.15247  20336598.7264   20336598.5354   20336602.7774
 97  6 10  3  0 43.0000000  0  8G21G17G23G25G 3G31G 9G 1
   -859617.79149   -665247.23747  20971551.0944   20971551.2534   20971556.6864
   2118949.24846   1641724.53945  25110780.2214   25110779.8674   25110787.7284
    661903.17948    513403.01546  23365018.7234   23365019.1954   23365030.5814
  -5091798.80747  -3945292.39845  24665323.0994   24665324.3304   24665328.6904
   1066148.84648    827647.70246  22554896.1444   22554896.3024   22554900.9424
   -972318.24148   -751439.46146  22197177.8694   22197178.3814   22197183.0444
     89790.49146     83043.88444  24562401.9054   24562400.2204   24562397.0364
  -2182891.28149  -1522656.05647  20336273.2044   20336273.0544   20336277.2104
 97  6 10  3  0 44.0000000  0  8G21G17G23G25G 3G31G 9G 1
   -860285.10549   -665767.22647  20971424.1654   20971424.2694   20971430.0204
   2121001.67746   1643323.83245  25111171.0634   25111169.5394   25111177.9724
    662567.00348    513920.28346  23365144.9884   23365145.5964   23365157.2184
  -5096601.68947  -3949034.90545  24664409.0214   24664409.6044   24664415.1424
   1067346.43948    828580.88946  22555124.1014   22555124.4454   22555128.8124
   -972884.83848   -751880.96546  22197069.9914   22197069.9804   22197075.2164
     90130.72246     83309.00444  24562467.4274   24562464.8474   24562460.6344
  -2184601.67049  -1523988.82747  20335947.7204   20335947.5934   20335951.6334
 97  6 10  3  0 45.0000000  0  8G21G17G23G25G 3G31G 9G 1
   -860952.74349   -666287.46347  20971297.1724   20971297.3404   20971302.6754
   2123053.70146   1644922.81245  25111561.6904   25111561.1204   25111567.7724
    663230.37648    514437.19346  23365271.2184   23365271.4684   23365283.7654
  -5101405.12247  -3952777.83745  24663494.9254   24663495.8874   24663500.9414
   1068543.85448    829513.94846  22555351.9784   22555351.9984   22555356.7794
   -973451.33548   -752322.39146  22196962.0924   22196962.7774   22196967.6944
     90470.96246     83574.12344  24562532.6764   24562528.8544   24562525.6554
  -2186312.02549  -1525321.57147  20335622.2404   20335622.0774   20335626.1184
 97  6 10  3  0 46.0000000  0  8G21G17G23G25G 3G31G 9G 1
   -861620.22549   -666807.57847  20971170.2184   20971170.2084   20971175.6144
   2125105.82246   1646521.86945  25111952.2154   25111951.7034   25111957.8584
    663893.75748    514954.11546  23365397.5354   23365397.9714   23365409.7194
  -5106208.59747  -3956520.80145  24662580.7834   24662581.9374   24662587.1694
   1069741.57948    830447.23946  22555579.8844   22555580.3084   22555584.8104
   -974017.24048   -752763.35146  22196854.4284   22196854.9224   22196859.8644
     90811.69146     83839.62944  24562597.8054   24562594.5064   24562590.3164
  -2188021.87549  -1526653.92147  20335296.8794   20335296.6694   20335300.8054
 97  6 10  3  0 47.0000000  0  8G21G17G23G25G 3G31G 9G 1
   -862287.55849   -667327.57847  20971043.3004   20971043.3274   20971048.7034
   2127158.02146   1648120.98845  25112342.6154   25112342.3674   25112348.2434
    664557.17148    515471.05746  23365523.7504   23365524.1864   23365535.8774
  -5111012.18547  -3960263.85545  24661666.6344   24661667.7414   24661673.4534
   1070939.60048    831380.76146  22555807.8644   22555807.9624   22555812.4144
   -974582.59148   -753203.89046  22196746.9344   22196747.5924   22196752.2544
     91152.84346     84105.46444  24562663.0484   24562659.4394   24562655.9744
  -2189731.23549  -1527985.89047  20334971.6354   20334971.4174   20334975.5834
 97  6 10  3  0 48.0000000  0  8G21G17G23G25G 3G31G 9G 1
   -862954.44649   -667847.22947  20970916.4474   20970916.2354   20970921.8694
   2129210.59146   1649720.39645  25112732.9974   25112734.1504   25112737.8784
    665220.87248    515988.22546  23365650.0594   23365650.3294   23365661.9894
  -5115815.57747  -3964006.75245  24660752.5874   24660754.2524   24660758.8444
   1072138.21848    832314.75046  22556035.9094   22556036.1224   22556040.7724
   -975147.07048   -753643.74746  22196639.5654   22196640.4174   22196645.2224
     91494.79746     84371.92544  24562728.2404   24562723.7694   24562721.0664
  -2191439.81049  -1529317.24747  20334646.5454   20334646.2224   20334650.3384
 97  6 10  3  0 49.0000000  0  8G21G17G23G25G 3G31G 9G 1
   -863621.17049   -668366.75447  20970789.6244   20970789.6414   20970794.9664
   2131263.25446   1651319.86945  25113123.2194   25113125.0374   25113128.8964
    665884.59248    516505.41146  23365776.3184   23365776.9014   23365787.9314
  -5120618.99847  -3967749.67145  24659838.5584   24659840.4744   24659844.2454
   1073337.14848    833248.98146  22556264.0734   22556263.7834   22556268.9414
   -975710.93748   -754083.11846  22196532.3344   22196532.7494   22196537.9574
     91837.11446     84638.67044  24562792.6644   24562789.3564   24562788.9134
  -2193147.88549  -1530648.21547  20334321.5344   20334321.1064   20334325.1824
 97  6 10  3  0 50.0000000  0  8G21G17G23G25G 3G31G 9G 1
   -864287.45049   -668885.93447  20970662.9084   20970662.7594   20970668.1674
   2133316.27946   1652919.62945  25113513.5174   25113516.8504   25113519.6554
    666548.61848    517022.83346  23365902.7364   23365903.4224   23365914.5344
  -5125422.24347  -3971492.45645  24658924.6044   24658926.0374   24658929.9414
   1074536.69148    834183.69246  22556492.3494   22556492.0104   22556497.5134
   -976273.96548   -754521.84846  22196425.3034   22196425.5164   22196430.1684
     92180.28746     84906.08044  24562857.3184   24562854.8594   24562854.5564
  -2194855.17149  -1531978.56547  20333996.6534   20333996.2994   20334000.5374
 97  6 10  3  0 51.0000000  0  8G21G17G23G25G 3G31G 9G 1
   -864953.13249   -669404.64847  20970536.3084   20970536.1494   20970541.6234
   2135369.82246   1654519.79445  25113903.9534   25113906.1594   25113909.3124
    667213.09948    517540.60746  23366029.2554   23366029.7514   23366040.9684
  -5130225.11047  -3975234.94745  24658010.6514   24658012.5024   24658015.5974
   1075736.96048    835118.96046  22556720.7144   22556720.1314   22556726.6374
   -976835.97848   -754959.78346  22196318.4294   22196317.9614   22196323.2484
     92524.27646     85174.12244  24562922.2534   24562921.3944   24562922.2434
  -2196561.52249  -1533308.18947  20333671.9814   20333671.7064   20333675.6994
 97  6 10  3  0 52.0000000  0  8G21G17G23G25G 3G31G 9G 1
   -865618.10049   -669922.80347  20970409.8474   20970409.6524   20970415.0544
   2137424.01346   1656120.46645  25114294.6484   25114295.8184   25114300.9154
    667878.14048    518058.82046  23366155.9774   23366156.2784   23366166.9964
  -5135027.51147  -3978977.07245  24657096.8884   24657098.0414   24657102.9454
   1076938.12148    836054.93146  22556949.3134   22556948.8464   22556954.6404
   -977396.83848   -755396.81846  22196211.7844   22196212.1374   22196216.5254
     92869.42746     85443.07344  24562987.0644   24562987.1224   24562988.3574
  -2198266.81449  -1534636.98847  20333347.5104   20333347.1334   20333351.2804
 97  6 10  3  0 53.0000000  0  8G21G17G23G25G 3G31G 9G 1
   -866283.01149   -670440.91647  20970283.3854   20970283.1854   20970288.4704
   2139478.18246   1657721.12244  25114685.4534   25114686.4344   25114690.1294
    668543.08948    518576.95846  23366282.7294   23366282.9454   23366293.5024
  -5139830.08347  -3982719.32945  24656183.0544   24656184.4224   24656189.1204
   1078139.45248    836991.02746  22557177.8904   22557177.4144   22557183.2774
   -977957.23948   -755833.49346  22196105.1574   22196105.3624   22196110.3524
     93214.81446     85712.20944  24563052.3554   24563051.6784   24563054.8974
  -2199971.70649  -1535965.47547  20333023.1184   20333022.8544   20333026.9214
 97  6 10  3  0 54.0000000  0  8G21G17G23G25G 3G31G 9G 1
   -866947.82949   -670958.95747  20970156.9754   20970156.7104   20970161.7784
   2141532.33146   1659321.76144  25115076.4144   25115076.9024   25115082.1874
    669207.96848    519095.05146  23366409.5264   23366409.7854   23366419.7554
  -5144632.80947  -3986461.70645  24655269.2074   24655270.5344   24655275.5914
   1079341.03448    837927.32546  22557406.5604   22557406.5294   22557411.8094
   -978517.14748   -756269.78346  22195998.5924   22195998.8674   22196003.8644
     93560.67746     85981.71844  24563117.9734   24563116.8424   24563119.4244
  -2201676.16749  -1537293.62647  20332698.7614   20332698.2014   20332702.4864
 97  6 10  3  0 55.0000000  0  8G21G17G23G25G 3G31G 9G 1
   -867612.97549   -671477.25347  20970030.5234   20970030.1584   20970035.4024
   2143586.10546   1660922.10044  25115467.2854   25115466.3254   25115474.2244
    669872.36248    519612.75946  23366536.1714   23366536.0764   23366545.8474
  -5149436.09047  -3990204.52545  24654355.2424   24654356.2884   24654361.3534
   1080542.41648    838863.46946  22557635.2124   22557634.8164   22557640.2594
   -979076.94448   -756705.99146  22195892.0844   22195892.2864   22195896.9824
     93906.50846     86251.20444  24563183.9724   24563182.8524   24563184.3674
  -2203380.59949  -1538621.75647  20332374.3654   20332373.7404   20332378.0684
 97  6 10  3  0 56.0000000  0  8G21G17G23G25G 3G31G 9G 1
   -868278.18149   -671995.59547  20969903.9814   20969903.4054   20969908.6684
   2145639.68646   1662522.29044  25115858.1944   25115859.0364   25115864.8284
    670536.52748    520130.29046  23366662.8794   23366663.0524   23366671.7764
  -5154239.71047  -3993947.60745  24653441.1884   24653442.5454   24653447.2514
   1081743.86548    839799.66046  22557863.8354   22557863.4784   22557869.0724
   -979636.42148   -757141.94946  22195785.6124   22195785.9014   22195790.1654
     94252.63146     86520.91744  24563249.8544   24563248.7004   24563250.4634
  -2205084.76849  -1539949.68147  20332049.9854   20332049.6634   20332053.7014
 97  6 10  3  0 57.0000000  0  8G21G17G23G25G 3G31G 9G 1
   -868943.30249   -672513.87047  20969777.4534   20969776.9764   20969782.2524
   2147693.28746   1664122.49944  25116249.0824   25116250.1004   25116255.6784
    671200.62848    520647.77046  23366789.5394   23366789.5114   23366797.6164
  -5159043.47847  -3997690.79945  24652527.0604   24652528.5634   24652532.6474
   1082945.55648    840736.04146  22558092.5814   22558092.3374   22558097.6964
   -980195.39848   -757577.51746  22195679.2464   22195679.0824   22195684.1704
     94599.13446     86790.92544  24563316.0284   24563314.5234   24563315.7814
  -2206788.49649  -1541277.26347  20331725.7094   20331725.6584   20331729.7314
 97  6 10  3  0 58.0000000  0  8G21G17G23G25G 3G31G 9G 1
   -869608.13449   -673031.92047  20969651.0114   20969650.4494   20969655.6484
   2149747.09446   1665722.86644  25116640.1594   25116639.1564   25116645.9404
    671864.86947    521165.36446  23366916.2304   23366915.9004   23366923.8204
  -5163847.16747  -4001433.93045  24651613.0214   24651614.3684   24651618.8924
   1084147.67548    841672.75946  22558321.4044   22558320.9814   22558325.9414
   -980753.66448   -758012.52946  22195573.0174   22195572.9164   22195577.6324
     94946.24946     87061.41044  24563382.7154   24563380.6934   24563381.5014
  -2208491.57349  -1542604.33347  20331401.5954   20331401.2714   20331405.7164
 97  6 10  3  0 59.0000000  0  8G21G17G23G25G 3G31G 9G 1
   -870272.88649   -673549.90847  20969524.5734   20969523.9304   20969529.2084
   2151800.89846   1667323.23444  25117031.1334   25117029.6704   25117038.1764
    672529.02247    521682.88546  23367042.7494   23367042.1324   23367050.5494
  -5168651.04447  -4005177.21045  24650698.9984   24650699.7454   24650704.6444
   1085350.00648    842609.64246  22558550.3234   22558550.1244   22558555.0424
   -981311.46148   -758447.17946  22195466.8944   22195467.0834   22195472.0744
     95293.81946     87332.24444  24563449.4914   24563445.2114   24563447.4154
  -2210194.23049  -1543931.08147  20331077.5764   20331077.2344   20331081.5674
 97  6 10  3  1  0.0000000  0  8G21G17G23G25G 3G31G 9G 1
   -870937.33649   -674067.65947  20969398.1804   20969397.3334   20969402.4824
   2153854.91746   1668923.76144  25117421.9054   25117420.8254   25117429.0114
    673193.32547    522200.52046  23367169.2074   23367168.1104   23367177.1044
  -5173454.86647  -4008920.44045  24649784.9874   24649785.5114   24649790.2674
   1086552.76748    843546.86146  22558779.3474   22558778.8594   22558783.8234
   -981868.55048   -758881.27546  22195360.9004   22195361.4774   22195365.4704
     95641.95046     87603.51444  24563516.2164   24563511.5214   24563515.0934
  -2211896.23349  -1545257.31647  20330753.7154   20330753.5584   20330757.8544
 97  6 10  3  1  1.0000000  0  8G21G17G23G25G 3G31G 9G 1
   -871601.09849   -674584.87647  20969271.8834   20969271.1904   20969276.3194
   2155909.55046   1670524.77744  25117812.6734   25117810.0434   25117820.1144
    673858.18247    522718.58746  23367295.7034   23367295.0304   23367304.3194
  -5178258.22147  -4012663.30945  24648871.0194   24648871.3244   24648876.4594
   1087756.39048    844484.74946  22559008.5004   22559007.4454   22559012.4154
   -982424.53148   -759314.50846  22195255.1064   22195255.8674   22195259.8964
     95991.05946     87875.55244  24563583.3424   24563578.9204   24563581.4124
  -2213597.18349  -1546582.72947  20330430.0774   20330430.0084   20330434.0434
 97  6 10  3  1  2.0000000  0  8G21G17G23G25G 3G31G 9G 1
   -872264.53149   -675101.84147  20969145.6484   20969144.9674   20969150.1784
   2157964.44346   1672125.98844  25118203.4614   25118200.1594   25118211.0794
    674523.19547    523236.77446  23367422.2804   23367421.6274   23367431.0304
  -5183061.52647  -4016406.14045  24647957.0564   24647958.2314   24647962.4224
   1088960.46748    845422.98846  22559237.7594   22559236.4944   22559241.9424
   -982979.79048   -759747.17746  22195149.4984   22195149.8624   22195154.0774
     96340.86046     88148.12844  24563650.5604   24563646.4644   24563649.2094
  -2215297.46149  -1547907.62347  20330106.5844   20330106.2114   20330110.4374
 97  6 10  3  1  3.0000000  0  8G21G17G23G25G 3G31G 9G 1
   -872926.95549   -675618.01447  20969019.6354   20969018.8394   20969024.0224
   2160020.25846   1673727.92044  25118594.4384   25118591.1044   25118599.5964
    675189.05647    523755.62446  23367549.1264   23367548.3974   23367557.9254
  -5187864.07347  -4020148.38045  24647043.1814   24647044.0044   24647048.9974
   1090165.69148    846362.12646  22559467.1884   22559466.3714   22559471.2524
   -983533.65548   -760178.76446  22195044.2034   22195045.0194   22195048.9784
     96691.93946     88421.70044  24563717.3564   24563713.3774   24563716.9154
  -2216996.38649  -1549231.46047  20329783.3054   20329783.0184   20329787.2614
 97  6 10  3  1  4.0000000  0  8G21G17G23G25G 3G31G 9G 1
   -873589.31249   -676134.13447  20968893.6254   20968892.6304   20968897.8424
   2162076.06546   1675329.84244  25118985.5134   25118984.0204   25118992.4974
    675854.84347    524274.41946  23367675.9024   23367674.8494   23367684.5474
  -5192666.76547  -4023890.73545  24646129.3734   24646129.7564   24646134.9874
   1091371.15348    847301.44646  22559696.6374   22559695.8584   22559700.6104
   -984087.03148   -760609.96546  22194939.0354   22194939.3984   22194943.4014
     97043.45646     88695.61244  24563784.2334   24563782.6774   24563783.4184
  -2218694.88049  -1550554.95947  20329460.1374   20329459.6724   20329464.0744
 97  6 10  3  1  5.0000000  0  8G21G17G23G25G 3G31G 9G 1
   -874251.87549   -676650.41747  20968767.5254   20968766.6294   20968771.7794
   2164131.62346   1676931.57344  25119376.4484   25119374.9424   25119384.4694
    676520.26947    524792.93346  23367802.6694   23367801.4704   23367810.6004
  -5197469.93047  -4027633.45945  24645215.4204   24645215.5584   24645220.9184
   1092576.54748    848240.71346  22559926.1074   22559925.2294   22559930.3934
   -984640.21548   -761041.02446  22194833.8914   22194833.9624   22194838.1024
     97395.00846     88969.55044  24563851.2534                   24563848.5814
  -2220393.22349  -1551878.34547  20329137.0274   20329136.4354   20329140.8934
 97  6 10  3  1  6.0000000  0  8G21G17G23G25G 3G31G 9G 1
   -874914.43649   -677166.69747  20968641.4414   20968640.7114   20968645.6764
   2166187.11946   1678533.25344  25119767.3594   25119766.7624   25119776.0244
    677185.55447    525311.34046  23367929.4624   23367928.6044   23367936.9374
  -5202273.32047  -4031376.35945  24644301.4414   24644301.7624   24644307.0724
   1093782.08448    849180.09246  22560155.5074   22560154.1814   22560159.8244
   -985193.00948   -761471.77146  22194728.8384   22194728.4614   22194733.0114
     97746.92846     89243.77344  24563917.9354                   24563914.8254
  -2222091.21349  -1553201.45347  20328813.9474   20328813.3414   20328817.7454
 97  6 10  3  1  7.0000000  0  8G21G17G23G25G 3G31G 9G 1
   -875577.03749   -677683.01147  20968515.3404   20968514.3744   20968519.8144
   2168242.47846   1680134.82744  25120158.3884   25120157.8344   25120166.1704
    677850.64847    525829.59846  23368056.2974   23368055.1604   23368063.2564
  -5207076.99247  -4035119.47745  24643387.4284   24643387.3694   24643393.2454
   1094987.72848    850119.55246  22560384.8764   22560383.5714   22560389.1994
   -985745.46448   -761902.26046  22194623.8184   22194623.3444   22194627.7744
     98099.09356     89518.18544  24563984.1844                   24563982.2864
  -2223788.90449  -1554524.32747  20328490.8984   20328490.2164   20328494.5944
 97  6 10  3  1  8.0000000  0  8G21G17G23G25G 3G31G 9G 1
   -876239.64849   -678199.33147  20968389.1844   20968388.2734   20968393.6774
   2170297.75546   1681736.33644  25120549.5964   25120549.9934   25120557.1574
    678515.59247    526347.73146  23368182.9634   23368181.6134   23368189.7594
  -5211880.92247  -4038862.79645  24642473.3534   24642473.2074   24642478.9064
   1096193.50348    851059.11846  22560614.3324   22560613.2104   22560618.3104
   -986297.53348   -762332.44646  22194518.8704   22194518.2284   22194522.5504
     98451.66456     89792.91444  24564050.1394                   24564049.1214
  -2225486.25649  -1555846.93947  20328167.9154   20328167.3714   20328171.6454
 97  6 10  3  1  9.0000000  0  8G21G17G23G25G 3G31G 9G 1
   -876902.17949   -678715.59147  20968263.0494   20968262.4314   20968267.4684
   2172353.03446   1683337.85144  25120940.7184   25120940.8844   25120947.1284
    679180.46547    526865.81346  23368309.6014   23368307.8064   23368316.3464
  -5216685.02847  -4042606.25145  24641559.2304   24641559.4084   24641564.8394
   1097399.50348    851998.85946  22560843.7644   22560843.2494   22560847.1824
   -986849.13448   -762762.26246  22194413.9134   22194413.8054   22194417.5464
     98802.99856     90066.68144  24564116.2054                   24564115.9674
  -2227183.18349  -1557169.21947  20327844.9974   20327844.3744   20327848.6234
 97  6 10  3  1 10.0000000  0  8G21G17G23G25G 3G31G 9G 1
   -877564.34949   -679231.56947  20968137.0014   20968136.5524   20968141.2824
   2174408.63046   1684939.61144  25121332.0164   25121332.9844   25121338.9164
    679845.54247    527384.05346  23368436.1604   23368433.8724   23368443.0764
  -5221488.99347  -4046349.59745  24640645.1544   24640645.4334   24640650.2664
   1098606.00948    852938.99046  22561073.2824   22561072.9154   22561077.1464
   -987399.98448   -763191.50046  22194309.1044   22194309.1554   22194312.8474
     99148.80556     90336.13844  24564181.2044                   24564181.6914
  -2228879.39949  -1558490.94747  20327522.2244   20327521.5464   20327525.7584
 97  6 10  3  1 11.0000000  0  7G21G17G23G25G 3G31G 1
   -878226.35249   -679747.41647  20968011.0014   20968010.1304   20968015.3764
   2176464.30546   1686541.43644  25121723.2534   25121725.0164   25121731.3164
    680510.63447    527902.30446  23368562.6904   23368560.7344   23368569.2204
  -5226293.02447  -4050092.99845  24639731.0474   24639731.1324   24639736.0184
   1099812.82448    853879.36146  22561302.8864   22561302.6304   22561307.2464
   -987950.28148   -763620.30346  22194204.3714   22194203.7234   22194208.0774
  -2230575.10249  -1559812.27547  20327199.5214   20327198.8264   20327203.2014
 97  6 10  3  1 12.0000000  0  7G21G17G23G25G 3G31G 1
   -878887.88349   -680262.89347  20967885.1044   20967884.4114   20967889.4954
   2178520.37546   1688143.56744  25122114.6744   25122115.1734   25122122.9834
    681176.06347    528420.82246  23368689.2224   23368687.8814   23368695.7704
  -5231096.83247  -4053836.22245  24638816.9914   24638817.0014   24638822.3924
   1101020.25448    854820.21846  22561532.6004   22561532.5184   22561536.6584
   -988499.69148   -764048.41946  22194099.8524   22194099.0484   22194103.6764
  -2232269.98349  -1561132.96147  20326876.9614   20326876.2704   20326880.6524
 97  6 10  3  1 13.0000000  0  7G21G17G23G25G 3G31G 1
   -879548.55349   -680777.70347  20967759.3374   20967758.6154   20967763.9274
   2180577.25546   1689746.32744  25122506.0984   25122507.1804   25122514.2494
    681842.17447    528939.86546  23368815.9294   23368814.7194   23368822.7174
  -5235900.01547  -4057578.96045  24637903.0094   24637902.9254   24637908.3894
   1102228.67448    855761.84246  22561762.5454   22561762.5904   22561766.7664
   -989047.86348   -764475.56946  22193995.5144   22193995.0794   22193999.1154
  -2233963.65049  -1562452.70247  20326554.6224   20326554.0254   20326558.4884
 97  6 10  3  1 14.0000000  0  7G21G17G23G25G 3G31G 1
   -880208.71849   -681292.11847  20967633.6994   20967633.1664   20967638.2224
   2182634.53546   1691349.40244  25122897.6984   25122898.2784   25122905.8274
    682508.63447    529459.17946  23368942.7704   23368941.7544   23368949.5864
  -5240702.93947  -4061321.49545  24636989.1484   24636988.8084   24636994.0504
   1103437.71648    856703.95246  22561992.6224   22561992.2574   22561997.3264
   -989595.15748   -764902.03046  22193891.4204   22193890.8114   22193894.8384
  -2235656.48749  -1563771.79547  20326232.4314   20326232.0534   20326236.3714
 97  6 10  3  1 15.0000000  0  7G21G17G23G25G 3G31G 1
   -880868.80249   -681806.47047  20967508.1044   20967507.7614   20967512.6584
   2184691.83446   1692952.48944  25123289.1134   25123289.7154   25123297.4324
    683175.00747    529978.43246  23369069.7534   23369068.8484   23369076.1184
  -5245506.00247  -4065064.14345  24636075.1694   24636074.7474   24636079.7494
   1104646.96748    857646.22346  22562222.7294   22562222.4354   22562227.1974
   -990141.95148   -765328.10746  22193787.4234   22193787.4734   22193790.9104
  -2237348.90149  -1565090.55947  20325910.3074   20325909.9074   20325914.3084
 97  6 10  3  1 16.0000000  0  7G21G17G23G25G 3G31G 1
   -881528.86849   -682320.80747  20967382.5464   20967382.2164   20967386.9274
   2186749.05346   1694555.51644  25123680.4114   25123680.4994   25123688.7044
    683841.22947    530497.56946  23369196.7224   23369195.8704   23369202.7694
  -5250309.32247  -4068806.99245  24635161.0404   24635160.6114   24635165.3144
   1105856.36648    858588.61446  22562452.8214   22562452.2374   22562457.3944
   -990688.35348   -765753.88046  22193683.5164   22193683.1274   22193687.2504
  -2239040.99649  -1566409.07447  20325588.2644   20325587.8034   20325592.2064
 97  6 10  3  1 17.0000000  0  7G21G17G23G25G 3G31G 1
   -882189.17749   -682835.33247  20967256.8714   20967256.3944   20967261.2004
   2188805.92746   1696158.27244  25124071.7654   25124071.4224   25124079.9314
    684507.04847    531016.38746  23369323.6104   23369322.8894   23369329.0384
  -5255113.14447  -4072550.22745  24634246.9314   24634246.5134   24634251.2824
   1107065.61948    859530.89246  22562682.9384   22562682.7164   22562687.4764
   -991234.61548   -766179.53546  22193579.7064   22193579.2494   22193583.2154
  -2240733.00949  -1567727.52747  20325266.2334   20325265.9124   20325270.4154
 97  6 10  3  1 18.0000000  0  7G21G17G23G25G 3G31G 1
   -882849.51649   -683349.88347  20967131.1774   20967130.5844   20967135.5004
   2190862.68946   1697760.94544  25124463.0734   25124464.8184   25124470.1694
    685172.67247    531535.05346  23369450.3644   23369449.6404   23369455.5954
  -5259917.22947  -4076293.66845  24633332.7074   24633332.5394   24633337.2304
   1108274.98548    860473.25446  22562913.0264   22562912.1764   22562917.4694
   -991780.52748   -766604.92146  22193475.9584   22193475.1564   22193479.7774
  -2242424.71349  -1569045.73747  20324944.2704   20324943.9184   20324948.5014
 97  6 10  3  1 19.0000000  0  7G21G17G23G25G 3G31G 1
   -883509.68249   -683864.30147  20967005.5764   20967005.1964   20967010.0614
   2192919.57646   1699363.70944  25124854.3554   25124856.1034   25124862.0014
    685838.29547    532053.72046  23369577.0864   23369576.0414   23369581.7954
  -5264721.38847  -4080037.16245  24632418.4654   24632418.1404   24632423.2984
   1109484.66048    861415.85646  22563143.1414   22563143.2964   22563147.8034
   -992325.86848   -767029.86546  22193372.3034   22193371.1114   22193375.6134
  -2244115.90649  -1570363.54947  20324622.4054   20324622.1294   20324626.6314
 97  6 10  3  1 20.0000000  0  7G21G17G23G25G 3G31G 1
   -884169.59349   -684378.51747  20966880.0614   20966879.6014   20966884.3604
   2194976.62946   1700966.60644  25125245.6994   25125248.2644   25125253.9874
    686504.02147    532572.46446  23369703.7344   23369702.9404   23369708.0174
  -5269525.54547  -4083780.65845  24631504.2624   24631503.5804   24631509.1924
   1110694.70848    862358.75246  22563373.3594   22563373.9394   22563378.6224
   -992870.57148   -767454.31246  22193268.7114   22193267.5964   22193272.2584
  -2245806.51149  -1571680.90547  20324300.6644   20324300.3574   20324304.8254
 97  6 10  3  1 21.0000000  0  7G21G17G23G25G 3G31G 1
   -884829.43049   -684892.67647  20966754.5744   20966754.1104   20966758.8444
   2197033.68046   1702569.50244  25125637.1684   25125639.8614   25125645.8454
    687169.65647    533091.13646  23369830.3244   23369829.5604   23369834.9144
  -5274329.87347  -4087524.28445  24630590.0514   24630589.0644   24630594.9034
   1111904.96148    863301.80346  22563603.6414   22563603.7934   22563608.4214
   -993414.81348   -767878.40146  22193165.2174   22193163.6664   22193168.5464
  -2247496.70549  -1572997.93947  20323979.0154   20323978.7114   20323983.2404
 97  6 10  3  1 22.0000000  0  7G21G17G23G25G 3G31G 1
   -885488.73849   -685406.42147  20966629.1874   20966628.6784   20966633.3404
   2199091.16946   1704172.73445  25126028.7804   25126030.0104   25126037.2244
    687835.64947    533610.09346  23369956.9494   23369956.6534   23369961.3544
  -5279133.92047  -4091267.69245  24629675.9054   24629674.5514   24629681.0854
   1113115.89048    864245.37946  22563834.0264   22563834.9444   22563839.1994
   -993958.15048   -768301.77646  22193061.8134   22193060.9584   22193064.7194
  -2249186.05849  -1574314.31847  20323657.5414   20323657.2744   20323661.9174
 97  6 10  3  1 23.0000000  0  7G21G17G23G25G 3G31G 1
   -886147.70349   -685919.89847  20966503.8224   20966503.1814   20966507.9224
   2201148.93046   1705776.18145  25126420.5624   25126421.4184   25126429.2994
    688501.84347    534129.20446  23370083.6424   23370083.5374   23370088.0974
  -5283937.88047  -4095011.03045  24628761.7714   24628760.3774   24628766.6344
   1114327.29248    865189.32646  22564064.4714   22564064.7534   22564069.3314
   -994500.75148   -768724.57646  22192958.5694   22192957.6604   22192961.2754
  -2250874.74549  -1575630.17647  20323336.1604   20323335.8764   20323340.3584
 97  6 10  3  1 24.0000000  0  7G21G17G23G25G 3G31G 1
   -886805.93349   -686432.80647  20966378.6064   20966377.8674   20966382.7424
   2203207.33046   1707380.12245  25126812.4174   25126812.3914   25126821.3704
    689168.60247    534648.75546  23370210.3924   23370210.6574   23370215.2814
  -5288741.33347  -4098753.97145  24627847.7364   24627845.9794   24627852.1444
   1115539.55848    866133.94846  22564295.1504   22564295.4564   22564299.5314
   -995042.24348   -769146.51846  22192855.5414   22192854.6124   22192858.9244
  -2252562.37649  -1576945.21147  20323014.9894   20323014.6874   20323019.4404
 97  6 10  3  1 25.0000000  0  7G21G17G23G25G 3G31G 1
   -887463.75149   -686945.39447  20966253.4784   20966252.7354   20966257.5094
   2205266.05246   1708984.31945  25127204.2674   25127203.7724   25127212.8884
    689835.59147    535168.48846  23370337.2944   23370337.4804   23370342.2794
  -5293544.61947  -4102496.79045  24626933.7104   24626932.5004   24626937.9274
   1116752.39048    867079.01346  22564525.9364   22564526.0294   22564530.9054
   -995582.94648   -769567.85246  22192752.5704   22192751.5814   22192755.7314
  -2254249.29149  -1578259.69247  20322693.9704   20322693.9114   20322698.3954
 97  6 10  3  1 26.0000000  0  7G21G17G23G25G 3G31G 1
   -888121.38249   -687457.83547  20966128.4094   20966127.6024   20966132.0834
   2207324.87546   1710588.59545  25127596.1644   25127595.1864   25127604.5674
    690502.59147    535688.22846  23370464.2454   23370464.1454   23370469.6174
  -5298347.99747  -4106239.68245  24626019.6514   24626019.1314   24626024.0644
   1117965.53048    868024.31346  22564756.7864   22564757.1344   22564761.7144
   -996123.10148   -769988.75946  22192649.6984   22192648.5634   22192653.1674
  -2255935.70349  -1579573.78347  20322373.0414   20322373.0434   20322377.5004
 97  6 10  3  1 27.0000000  0  7G21G17G23G25G 3G31G 1
   -888779.27249   -687970.47647  20966003.2464   20966002.4924   20966007.0974
   2209383.35046   1712192.60045  25127987.9744   25127986.7914   25127996.3254
    691169.16247    536207.63646  23370591.1964   23370591.2844   23370596.3334
  -5303151.87147  -4109982.95945  24625105.5694   24625105.0254   24625109.9554
   1119178.56148    868969.53246  22564987.5784   22564988.2974   22564991.8544
   -996663.13648   -770409.56746  22192546.8794   22192545.9554   22192550.3054
  -2257622.04349  -1580887.81447  20322052.1504   20322052.0954   20322056.5274
 97  6 10  3  1 28.0000000  0  7G21G17G23G25G 3G31G 1
   -889436.85549   -688482.87847  20965878.0894   20965877.3774   20965882.0024
   2211442.00146   1713796.73645  25128379.5014   25128378.6034   25128387.7484
    691835.85647    536727.13946  23370718.1984   23370718.3174   23370723.2544
  -5307955.68847  -4113726.19145  24624191.5064   24624191.0534   24624195.2014
   1120392.03748    869915.09546  22565218.4974   22565219.1554   22565223.1644
   -997202.51448   -770829.85746  22192444.2124   22192443.0434   22192447.1554
  -2259307.79149  -1582201.38547  20321731.3894   20321731.3574   20321735.7274
 97  6 10  3  1 29.0000000  0  7G21G17G23G25G 3G31G 1
   -890094.56449   -688995.37847  20965752.9454   20965752.3404   20965756.6764
   2213500.47046   1715400.73445  25128770.9454   25128770.3934   25128779.6284
    692502.25047    537246.40646  23370845.1964   23370845.6434   23370850.2334
  -5312759.88847  -4117469.72245  24623277.3444   24623276.6784   24623281.2664
   1121605.51348    870860.66146  22565449.4354   22565449.9184   22565454.0914
   -997741.63348   -771249.95246  22192341.6654   22192340.4234   22192344.4434
  -2260993.33149  -1583514.78847  20321410.6864   20321410.5544   20321414.9704
 97  6 10  3  1 30.0000000  0  7G21G17G23G25G 3G31G 1
   -890752.15449   -689507.78747  20965627.8604   20965627.0944   20965631.4144
   2215558.94646   1717004.74345  25129162.4464   25129162.5654   25129170.8854
    693168.59747    537765.63646  23370972.0234   23370972.6354   23370977.1864
  -5317564.22347  -4121213.35845  24622363.1054   24622362.3444   24622367.3464
   1122819.24748    871806.42046  22565680.4574   22565680.2194   22565685.3114
   -998280.26948   -771669.66746  22192239.2614   22192237.8624   22192242.1684
  -2262678.44349  -1584827.86247  20321090.0784   20321090.0654   20321094.5394
 97  6 10  3  1 31.0000000  0  7G21G17G23G25G 3G31G 1
   -891409.54349   -690020.03847  20965502.8294   20965502.2254   20965506.3274
   2217617.52246   1718608.82445  25129553.9944   25129554.4594   25129562.8164
    693834.94247    538284.86246  23371098.9174   23371099.5874   23371103.9964
  -5322368.60547  -4124957.02745  24621448.8244   24621448.0224   24621453.3744
   1124033.29348    872752.43246  22565911.4474   22565911.1804   22565915.9294
   -998818.33448   -772088.94646  22192137.0204   22192135.9114   22192139.9804
  -2264363.05749  -1586140.54847  20320769.5624   20320769.3624   20320773.6904
 97  6 10  3  1 32.0000000  0  7G21G17G23G25G 3G31G 1
   -892066.68649   -690532.09947  20965377.8314   20965377.0064   20965381.2344
   2219676.21946   1720212.99945  25129945.6144   25129945.2004   25129955.5674
    694501.34847    538804.13646  23371225.9114   23371225.9534   23371230.7954
  -5327173.02047  -4128700.72145  24620534.4934   24620533.5284   24620538.8994
   1125247.73248    873698.75046  22566142.5604   22566142.5354   22566147.6534
   -999355.78748   -772507.74146  22192034.8234   22192033.3934   22192037.9984
  -2266047.11649  -1587452.80347  20320449.1394   20320448.9014   20320453.3054
 97  6 10  3  1 33.0000000  0  7G21G17G23G25G 3G31G 1
   -892723.27849   -691043.72747  20965252.9444   20965251.9264   20965256.3244
   2221735.38246   1721817.53545  25130337.3014   25130338.3604   25130347.1954
    695168.12447    539323.69846  23371352.9974   23371352.4484   23371357.7474
  -5331977.15747  -4132444.19845  24619620.2664   24619619.5104   24619625.0534
   1126462.81148    874645.56746  22566373.8014   22566374.1514   22566379.0344
   -999892.32848   -772925.82446  22191932.7854   22191931.3504   22191935.5164
  -2267730.31949  -1588764.38647  20320128.8724   20320128.3944   20320132.8774
 97  6 10  3  1 34.0000000  0  7G21G17G23G25G 3G31G 1
   -893379.26649   -691554.88747  20965128.1394   20965127.3194   20965131.5114
   2223795.05546   1723422.46845  25130729.1404   25130729.2284   25130737.0344
    695835.31347    539843.58746  23371480.1454   23371479.3924   23371484.3784
  -5336780.95947  -4136187.41845  24618706.0594   24618705.4914   24618711.0674
   1127678.67348    875592.99346  22566605.2334   22566605.9274   22566609.5054
  -1000427.89348   -773343.15046  22191830.9274   22191829.4664   22191833.7444
  -2269412.60949  -1590075.26347  20319808.7524   20319808.3464   20319812.8394
 97  6 10  3  1 35.0000000  0  7G21G17G23G25G 3G31G 1
   -894034.73349   -692065.64147  20965003.4184   20965002.6464   20965006.9794
   2225855.16346   1725027.74245  25131121.0994   25131120.5394   25131129.5634
    696502.86847    540363.76046  23371607.3824   23371606.8574   23371611.3674
  -5341584.50447  -4139930.44145  24617791.9444   24617790.6454   24617797.0144
   1128895.15848    876540.90146  22566836.7974   22566837.3624   22566841.4084
  -1000962.58248   -773759.78946  22191729.1944   22191727.7814   22191732.7734
  -2271094.06849  -1591385.48847  20319488.7894   20319488.3484   20319492.9174
 97  6 10  3  1 36.0000000  0  7G21G17G23G25G 3G31G 1
   -894689.56249   -692575.89747  20964878.8074   20964877.8694   20964882.1694
   2227915.80046   1726633.43245  25131513.1424   25131511.9884   25131521.2604
    697170.89147    540884.29746  23371734.7684   23371734.2004   23371738.1054
  -5346387.65147  -4143673.15145  24616877.8814   24616876.4984   24616883.1054
   1130112.41748    877489.41446  22567068.4804   22567068.0784   22567072.9274
  -1001496.22848   -774175.62046  22191627.5944   22191626.1404   22191630.8904
  -2272774.56249  -1592694.96647  20319168.9604   20319168.5764   20319173.1014
 97  6 10  3  1 37.0000000  0  7G21G17G23G25G 3G31G 1
   -895344.61949   -693086.33547  20964754.1674   20964753.2164   20964757.5214
   2229976.12046   1728238.87245  25131905.0454   25131903.9984   25131914.1614
    697838.51747    541404.52446  23371862.0934   23371861.5494   23371865.4524
  -5351191.29447  -4147416.24745  24615963.7444   24615962.3954   24615968.9234
   1131329.58348    878437.85546  22567300.1914   22567299.9294   22567304.8854
  -1002029.72748   -774591.33846  22191525.9944   22191524.7114   22191528.3264
  -2274454.98849  -1594004.39147  20318849.1564   20318848.9814   20318853.4344
 97  6 10  3  1 38.0000000  0  7G21G17G23G25G 3G31G 1
   -895999.76249   -693596.83647  20964629.5114   20964628.7334   20964632.9134
   2232036.28146   1729844.18345  25132296.9514   25132297.0624   25132305.6424
    698505.91747    541924.57646  23371989.3734   23371988.2644   23371992.0124
  -5355995.25447  -4151159.59245  24615049.6314   24615048.5634   24615054.7994
   1132546.77348    879386.31446  22567531.8244   22567531.6584   22567536.3724
  -1002562.92748   -775006.82246  22191424.4834   22191422.9074   22191427.2194
  -2276135.18349  -1595313.63547  20318529.4444   20318529.0614   20318533.4934
 97  6 10  3  1 39.0000000  0  7G21G17G23G25G 3G31G 1
   -896655.02849   -694107.43447  20964504.8394   20964504.0784   20964508.1694
   2234096.18846   1731449.29845  25132688.8514   25132688.5224   25132696.5194
    699173.02647    542444.40646  23372116.5804   23372114.9744   23372118.7194
  -5360799.59047  -4154903.23045  24614135.3054   24614134.4934   24614140.6144
   1133763.96648    880334.77846  22567763.5194   22567763.3664   22567768.2934
  -1003095.87848   -775422.10846  22191322.9834   22191321.3814   22191326.3344
  -2277815.18449  -1596622.72547  20318209.7804   20318209.5084   20318213.7054
 97  6 10  3  1 40.0000000  0  7G21G17G23G25G 3G31G 1
   -897310.39849   -694618.11047  20964380.1454   20964379.2594   20964383.1994
   2236155.90846   1733054.27045  25133080.6104   25133079.3894   25133088.6474
    699839.87447    542964.02746  23372243.6224   23372241.7414   23372245.8464
  -5365604.28547  -4158647.14745  24613220.9484   24613220.3024   24613226.1074
   1134981.16848    881283.25146  22567995.2324   22567995.1484   22567999.7764
  -1003628.53948   -775837.16746  22191221.5044   22191220.7244   22191224.3444
  -2279494.99949  -1597931.67147  20317890.1644   20317889.7394   20317894.3254
 97  6 10  3  1 41.0000000  0  7G21G17G23G25G 3G31G 1
   -897965.44849   -695128.53847  20964255.4704   20964254.4494   20964258.5354
   2238215.84546   1734659.41045  25133472.3524   25133471.8234   25133480.3134
    700506.89247    543483.78146  23372370.6714   23372368.9974   23372372.9964
  -5370408.90347  -4162391.00145  24612306.5964   24612306.0874   24612311.9934
   1136198.81048    882232.06146  22568227.0524   22568226.8524   22568231.6124
  -1004160.48948   -776251.67346  22191120.1474   22191119.1934   22191122.9974
  -2281174.17749  -1599240.12147  20317570.6784   20317570.2304   20317574.6264
 97  6 10  3  1 42.0000000  0  7G21G17G23G25G 3G31G 1
   -898620.33249   -695638.83747  20964130.8014   20964129.8434   20964134.0194
   2240275.82846   1736264.58745  25133863.9584   25133864.0164   25133873.3314
    701173.90147    544003.52846  23372497.6414   23372495.9434   23372499.2334
  -5375213.63847  -4166134.95145  24611392.2254   24611391.5264   24611397.6754
   1137416.72748    883181.08446  22568458.8164   22568457.5514   22568463.1444
  -1004691.87948   -776665.73746  22191018.8904   22191017.9234   22191022.4604
  -2282852.87649  -1600548.19747  20317251.2614   20317250.9284   20317255.2484
 97  6 10  3  1 43.0000000  0  7G21G17G23G25G 3G31G 1
   -899275.02049   -696148.98547  20964006.1804   20964005.4264   20964009.4444
   2242335.96346   1737869.88345  25134255.7754   25134255.9694   25134267.7464
    701840.94847    544523.30046  23372624.5734   23372622.6024   23372626.3474
  -5380018.39147  -4169878.90945  24610477.8504   24610477.3674   24610483.1064
   1138634.96648    884130.36146  22568690.7004   22568689.6574   22568695.0604
  -1005222.66148   -777079.33246  22190917.7294   22190916.7974   22190921.7914
  -2284531.07149  -1601855.88147  20316931.9334   20316931.5424   20316935.8144
 97  6 10  3  1 44.0000000  0  7G21G17G23G25G 3G31G 1
   -899929.27049   -696658.79147  20963881.6794   20963880.7354   20963885.0174
   2244396.39846   1739475.41644  25134647.6844   25134648.9024   25134659.2114
    702508.28047    545043.29846  23372751.5424   23372749.4944   23372753.7474
  -5384822.96347  -4173622.72745  24609563.5954   24609563.0034   24609569.2664
   1139853.74248    885080.05946  22568922.6764   22568921.6044   22568926.6424
  -1005752.60848   -777492.28346  22190816.7454   22190816.1254   22190820.8834
  -2286208.51849  -1603162.98247  20316612.7514   20316612.1494   20316616.8014
 97  6 10  3  1 45.0000000  0  7G21G17G23G25G 3G31G 1
   -900582.84549   -697168.06947  20963757.3174   20963756.4184   20963760.4964
   2246457.45946   1741081.43445  25135039.8114   25135042.3734   25135051.6114
    703176.13547    545563.70246  23372878.6234   23372876.7534   23372880.9964
  -5389627.11747  -4177366.22045  24608649.2774   24608648.4314   24608655.2194
   1141073.31448    886030.37146  22569154.8654   22569153.8234   22569158.5054
  -1006281.48648   -777904.39946  22190715.9984   22190715.6044   22190720.3264
  -2287884.97249  -1604469.30947  20316293.7644   20316293.1574   20316297.6404
 97  6 10  3  1 46.0000000  0  7G21G17G23G25G 3G31G 1
   -901235.78849   -697676.85847  20963633.0524   20963632.2544   20963636.2014
   2248519.05546   1742687.87144  25135432.0934   25135435.1324   25135443.7664
    703844.43647    546084.44946  23373005.8004   23373003.8764   23373007.4124
  -5394430.86347  -4181109.39345  24607735.1284   24607734.1004   24607740.6754
   1142293.62848    886981.26346  22569387.1064   22569386.3974   22569390.9684
  -1006809.32148   -778315.69646  22190615.4784   22190615.0164   22190619.4064
  -2289560.49649  -1605774.91047  20315974.9804   20315974.1874   20315978.8804
 97  6 10  3  1 47.0000000  0  7G21G17G23G25G 3G31G 1
   -901888.18249   -698185.21947  20963508.9194   20963508.3244   20963512.1044
   2250581.12046   1744294.66944  25135824.4664   25135826.5134   25135833.8614
    704513.12047    546605.49746  23373133.1214   23373131.1244   23373134.7334
  -5399234.30947  -4184852.33545  24606820.9684   24606820.7064   24606826.8074
   1143514.60248    887932.67746  22569619.3594   22569618.5764   22569623.0904
  -1007336.22348   -778726.26846  22190515.1494   22190514.5434   22190519.2204
  -2291235.14749  -1607079.83347  20315656.3104   20315655.4924   20315660.1674
 97  6 10  3  1 48.0000000  0  7G21G17G23G25G 3G31G 1
   -902540.79349   -698693.74947  20963384.7304   20963384.1794   20963387.7234
   2252642.85646   1745901.21344  25136216.9034   25136218.1024   25136226.4524
    705181.41047    547126.23446  23373260.3674   23373258.5314   23373261.9544
  -5404038.24847  -4188595.66445  24605906.7084   24605906.5774   24605912.9144
   1144735.46548    888883.99146  22569851.6204   22569850.9044   22569855.3034
  -1007862.94248   -779136.70846  22190414.9104   22190414.1884   22190419.4494
  -2292909.70249  -1608384.68247  20315337.6204   20315337.0954   20315341.4314
 97  6 10  3  1 49.0000000  0  7G21G17G23G25G 3G31G 1
   -903193.64949   -699202.46847  20963260.4814   20963259.8124   20963263.4834
   2254704.22646   1747507.46744  25136609.2764   25136610.8104   25136618.1844
    705849.25747    547646.63146  23373387.4504   23373385.8434   23373388.9724
  -5408842.68447  -4192339.37545  24604992.3584   24604992.6624   24604999.2094
   1145956.19148    889835.20846  22570083.9254   22570082.8664   22570087.6454
  -1008389.51548   -779547.02446  22190314.7964   22190313.7174   22190319.8374
  -2294584.21149  -1609689.49347  20315018.9204   20315018.2974   20315022.8304
 97  6 10  3  1 50.0000000  0  7G21G17G23G25G 3G31G 1
   -903846.50849   -699711.19147  20963136.2334   20963135.6244   20963139.3414
   2256765.52546   1749113.66944  25137001.6244   25137003.7814   25137008.9554
    706516.92447    548166.88946  23373514.5364   23373513.3044   23373515.7254
  -5413647.37647  -4196083.29045  24604077.9204   24604078.5054   24604085.2454
   1147177.03748    890786.51446  22570316.2224   22570315.1074   22570319.9924
  -1008915.68348   -779957.02446  22190214.7734   22190213.9524   22190219.4274
  -2296258.39049  -1610994.04947  20314700.3064   20314699.7094   20314704.2374
 97  6 10  3  1 51.0000000  0  7G21G17G23G25G 3G31G 1
   -904499.43649   -700219.96447  20963011.9644   20963011.2504   20963015.1854
   2258826.65346   1750719.73944  25137393.9524   25137393.7694   25137401.6114
    707184.34047    548686.95746  23373641.6644   23373640.5714   23373642.7904
  -5418452.39947  -4199827.46145  24603163.3974   24603164.3004   24603170.0504
   1148397.92548    891737.85446  22570548.4494   22570547.1624   22570552.5594
  -1009441.52548   -780366.77146  22190114.7724   22190114.6194   22190118.8414
  -2297932.33549  -1612298.42147  20314381.7254   20314381.2444   20314385.8584
 97  6 10  3  1 52.0000000  0  7G21G17G23G25G 3G31G 1
   -905152.06549   -700728.50847  20962887.7934   20962887.1894   20962891.0104
   2260887.97646   1752325.95544  25137786.3964   25137785.4384   25137793.1024
    707851.87247    549207.11546  23373768.7784   23373767.6434   23373769.5074
  -5423257.36147  -4203571.58645  24602248.8384   24602249.7794   24602255.3484
   1149619.25348    892689.53646  22570780.7824   22570779.7124   22570784.8204
  -1009966.62948   -780775.94246  22190014.8384   22190014.1554   22190018.3724
  -2299605.65749  -1613602.31147  20314063.2794   20314062.8734   20314067.4544
 97  6 10  3  1 53.0000000  0  7G21G17G23G25G 3G31G 1
   -905804.36849   -701236.79647  20962763.6504   20962763.0694   20962766.6714
   2262949.54246   1753932.36444  25138178.6414   25138178.0104   25138186.0134
    708519.57347    549727.40746  23373895.9084   23373894.8794   23373896.8374
  -5428062.25847  -4207315.65845  24601334.3064   24601335.1754   24601340.5044
   1150841.03048    893641.57146  22571013.1564   22571012.3734   22571016.8374
  -1010490.99448   -781184.53846  22189915.0494   22189914.6434   22189919.2324
  -2301278.31849  -1614905.68047  20313744.9234   20313744.4664   20313748.9054
 97  6 10  3  1 54.0000000  0  7G21G17G23G25G 3G31G 1
   -906456.65649   -701745.07147  20962639.5344   20962639.0354   20962642.5354
   2265011.06446   1755538.74044  25138570.6574   25138571.8734   25138577.9234
    709187.13047    550247.58146  23374022.9424   23374021.6894   23374023.7664
  -5432867.39047  -4211059.91445  24600419.7934   24600420.4864   24600426.1514
   1152062.94948    894593.71946  22571245.5484   22571244.6784   22571249.7744
  -1011014.94648   -781592.82146  22189815.3864   22189814.8214   22189819.1364
  -2302950.64549  -1616208.79347  20313426.6894   20313426.3394   20313430.7924
 97  6 10  3  1 55.0000000  0  7G21G17G23G25G 3G31G 1
   -907108.41849   -702252.93647  20962515.5084   20962514.9934   20962518.5524
   2267073.03346   1757145.46844  25138963.1484   25138965.6864   25138970.6454
    709855.03747    550768.03646  23374149.9934   23374149.1364   23374150.7164
  -5437672.19947  -4214803.91545  24599505.2854   24599505.7414   24599511.8764
   1153285.57848    895546.42046  22571478.0714   22571476.9614   22571483.3534
  -1011537.93448   -782000.34146  22189715.8634   22189715.1654   22189719.7454
  -2304622.08849  -1617511.21647  20313108.5944   20313108.3414   20313112.7914
 97  6 10  3  1 56.0000000  0  7G21G17G23G25G 3G31G 1
   -907759.84349   -702760.54347  20962391.5674   20962390.9624   20962394.7214
   2269135.25746   1758752.38944  25139355.5684   25139358.2434   25139363.9584
    710523.13647    551288.63146  23374277.0544   23374275.1574   23374277.6294
  -5442476.94547  -4218547.86945  24598590.9104   24598591.1064   24598597.5744
   1154508.67948    896499.47946  22571710.7194   22571710.0374   22571716.0354
  -1012060.17648   -782407.28446  22189616.4684   22189615.9064   22189619.7234
  -2306292.86049  -1618813.11847  20312790.6644   20312790.3124   20312794.9644
 97  6 10  3  1 57.0000000  0  7G21G17G23G25G 3G31G 1
   -908410.17549   -703267.29747  20962267.8544   20962267.3014   20962270.9684
   2271198.54246   1760360.14144  25139748.1374   25139750.5424   25139755.7394
    711192.15347    551809.94546  23374404.2604   23374402.3724   23374405.0934
  -5447280.81947  -4222291.14945  24597676.7404   24597677.5294   24597683.1824
   1155733.01248    897453.50546  22571943.5834   22571943.8214   22571948.6264
  -1012580.91648   -782813.05346  22189517.4024   22189516.5264   22189521.1864
  -2307962.19649  -1620113.89647  20312473.0214   20312472.6614   20312477.0134
 97  6 10  3  1 58.0000000  0  7G21G17G23G25G 3G31G 1
   -909060.47249   -703774.02347  20962144.1864   20962143.4854   20962146.9984
   2273261.76746   1761967.84444  25140140.7404   25140142.9084   25140148.6494
    711861.03747    552331.15146  23374531.3434   23374529.4374   23374532.3804
  -5452084.90047  -4226034.59045  24596762.5464   24596763.4524   24596768.6674
   1156957.54848    898407.68946  22572176.5394   22572177.1554   22572181.5574
  -1013101.19248   -783218.46246  22189418.3764   22189417.3444   22189421.9794
  -2309631.16149  -1621414.38947  20312155.4514   20312155.2364   20312159.3814
 97  6 10  3  1 59.0000000  0  7G21G17G23G25G 3G31G 1
   -909710.68049   -704280.67947  20962020.5294   20962019.7794   20962023.1394
   2275324.97746   1763575.54044  25140533.4424   25140534.5774   25140541.1794
    712529.85347    552852.30346  23374658.3734   23374656.8954   23374660.0704
  -5456889.16147  -4229778.17045  24595848.3974   24595850.0494   24595854.6014
   1158182.30548    899362.04446  22572409.5564   22572409.9784   22572414.4504
  -1013620.99048   -783623.50646  22189319.4004   22189319.3054   22189323.4494
  -2311299.71149  -1622714.55847  20311837.9514   20311837.4984   20311842.1614
 97  6 10  3  2  0.0000000  0  7G21G17G23G25G 3G31G 1
   -910360.97349   -704787.40147  20961896.8024   20961895.8994   20961899.4284
   2277388.06946   1765183.14444  25140925.9644   25140928.0844   25140933.5914
    713198.41447    553373.25446  23374785.3244   23374783.8134   23374787.5464
  -5461693.75647  -4233522.00745  24594934.0994   24594935.6414   24594939.8654
   1159407.10248    900316.42446  22572642.5804   22572642.1784   22572647.4734
  -1014140.45748   -784028.28146  22189220.5274   22189219.9674   22189224.9834
  -2312968.01349  -1624014.53347  20311520.5394   20311520.0274   20311524.5284
 97  6 10  3  2  1.0000000  0  7G21G17G23G25G 3G31G 1
   -911011.30149   -705294.15047  20961773.0594   20961772.1864   20961775.6924
   2279451.06046   1766790.66844  25141318.5154   25141320.5734   25141325.6434
    713866.75747    553894.03646  23374912.3474   23374911.0334   23374915.1324
  -5466498.61247  -4237266.05045  24594019.8224   24594021.2364   24594025.2224
   1160632.02548    901270.91246  22572875.6324   22572875.0824   22572880.3344
  -1014659.52348   -784432.74446  22189121.6954   22189121.1444   22189125.9534
  -2314636.02249  -1625314.28047  20311203.1454   20311202.5664   20311207.0554
 97  6 10  3  2  2.0000000  0  7G21G17G23G25G 3G31G 1
   -911661.72249   -705800.97347  20961649.2974   20961648.5234   20961651.9454
   2281513.87746   1768398.05944  25141711.2384   25141712.3824   25141719.1114
    714534.84047    554414.61946  23375039.4854   23375038.5714   23375042.7204
  -5471303.79247  -4241010.34245  24593105.4674   24593107.3134   24593110.8444
   1161856.99648    902225.43346  22573108.6764   22573108.3004   22573113.3444
  -1015178.29248   -784836.98546  22189022.9414   22189022.2374   22189027.3334
  -2316303.79349  -1626613.84047  20310885.8014   20310885.2134   20310889.7004
 97  6 10  3  2  3.0000000  0  7G21G17G23G25G 3G31G 1
   -912311.97949   -706307.66747  20961525.5774   20961524.7224   20961528.2044
   2283576.81846   1770005.54844  25142103.9264   25142105.1624   25142112.9894
    715202.92647    554935.20346  23375166.6204   23375166.0194   23375169.9584
  -5476109.06247  -4244754.70845  24592191.1794   24592193.0474   24592196.3664
   1163082.27548    903180.19846  22573341.8504   22573341.6424   22573346.3894
  -1015696.48948   -785240.77446  22188924.3004   22188923.5264   22188928.7374
  -2317971.06349  -1627913.01147  20310568.5294   20310567.8794   20310572.5844
 97  6 10  3  2  4.0000000  0  7G21G17G23G25G 3G31G 1
   -912962.13149   -706814.27847  20961401.8574   20961401.2334   20961404.6874
   2285639.78746   1771613.05944  25142496.5584   25142496.7674   25142506.1774
    715870.93047    555455.72646  23375293.7054   23375293.4524   23375296.9194
  -5480914.42947  -4248499.14945  24591276.8794   24591278.7484   24591282.0994
   1164307.80748    904135.15346  22573575.1194   22573575.8374   22573580.1484
  -1016214.16048   -785644.15746  22188825.6684   22188824.7384   22188829.5294
  -2319637.90449  -1629211.84847  20310251.3494   20310250.6714   20310255.1864
 97  6 10  3  2  5.0000000  0  7G21G17G23G25G 3G31G 1
   -913612.11349   -707320.75947  20961278.1564   20961277.3924   20961281.1824
   2287702.87746   1773220.66544  25142889.2554   25142889.6934   25142898.6364
    716538.96647    555976.27246  23375420.7744   23375420.8844   23375423.2674
  -5485719.86847  -4252243.64445  24590362.5394   24590363.5314   24590368.1604
   1165533.66048    905090.36446  22573808.4294   22573808.3394   22573812.8434
  -1016731.27748   -786047.10846  22188727.1454   22188726.8454   22188731.3514
  -2321304.23349  -1630510.28947  20309934.2364   20309933.6154   20309938.1714
 97  6 10  3  2  6.0000000  0  7G21G17G23G25G 3G31G 1
   -914261.48149   -707826.76047  20961154.5654   20961153.7684   20961157.3024
   2289766.48546   1774828.67344  25143282.0804   25143281.7154   25143291.3074
    717207.44847    556497.16746  23375547.9594   23375548.3544   23375550.8654
  -5490524.92447  -4255987.83945  24589448.2314   24589448.5904   24589454.2424
   1166760.26348    906046.15946  22574041.8494   22574041.7674   22574046.4764
  -1017247.36448   -786449.24646  22188628.7794   22188627.9224   22188633.4554
  -2322969.62249  -1631807.99547  20309617.2924   20309616.9694   20309621.2394
 97  6 10  3  2  7.0000000  0  7G21G17G23G25G 3G31G 1
   -914910.19949   -708332.25447  20961031.1384   20961030.3494   20961033.7004
   2291830.69546   1776437.14745  25143675.0754   25143676.0804   25143684.4724
    717876.40847    557018.43246  23375675.3294   23375675.7294   23375678.0594
  -5495329.53347  -4259731.68945  24588534.0724   24588533.5294   24588540.0654
   1167987.66748    907002.58146  22574275.3874   22574275.3944   22574280.2114
  -1017762.40948   -786850.58046  22188530.5894   22188530.5714   22188534.9524
  -2324634.02549  -1633104.93247  20309300.5424   20309300.1474   20309304.5324
 97  6 10  3  2  8.0000000  0  7G21G17G23G25G 3G31G 1
   -915558.42949   -708837.36947  20960907.7714   20960906.9004   20960910.4314
   2293895.33146   1778045.95544  25144067.9964   25144070.5204   25144077.3984
    718545.71947    557539.96746  23375802.8524   23375803.5244   23375805.3124
  -5500133.90547  -4263475.35145  24587619.8964   24587619.2834   24587626.1164
   1169215.70048    907959.48946  22574509.0164   22574508.9744   22574514.2294
  -1018276.58248   -787251.23646  22188432.5924   22188432.6104   22188436.9464
  -2326297.59449  -1634401.22047  20308983.9544   20308983.5094   20308987.8974
 97  6 10  3  2  9.0000000  0  7G21G17G23G25G 3G31G 1
   -916206.44949   -709342.32047  20960784.4494   20960783.6714   20960787.2354
   2295960.06046   1779654.84345  25144460.8864   25144464.2494   25144470.5984
    719215.05047    558061.51946  23375930.4884   23375930.8804   23375932.6154
  -5504938.32647  -4267219.05245  24586705.7574   24586705.1794   24586711.9404
   1170444.07648    908916.66446  22574742.7414   22574743.1954   22574748.2744
  -1018790.16348   -787651.43346  22188334.6984   22188334.8004   22188339.0624
  -2327960.63749  -1635697.09947  20308667.4964   20308667.1054   20308671.4614
 97  6 10  3  2 10.0000000  0  7G21G17G23G25G 3G31G 1
   -916854.43149   -709847.24347  20960661.1274   20960660.2014   20960663.8274
   2298024.79746   1781263.73245  25144853.5544   25144856.6734   25144863.9854
    719884.27647    558582.99246  23376058.1194   23376058.6494   23376059.5444
  -5509742.90147  -4270962.86745  24585791.5384   24585791.2874   24585797.3574
   1171672.68248    909874.02046  22574976.4604   22574977.2544   22574982.1944
  -1019303.28348   -788051.26746  22188236.9314   22188237.3914   22188241.9844
  -2329623.28649  -1636992.67247  20308351.1294   20308350.7104   20308355.0494
 97  6 10  3  2 11.0000000  0  7G21G17G23G25G 3G31G 1
   -917502.48649   -710352.22247  20960537.8134   20960537.1354   20960540.5644
   2300089.37946   1782872.50045  25145246.0744   25145248.2874   25145256.9724
    720553.28547    559104.30346  23376185.6634   23376186.0814   23376186.5784
  -5514547.78447  -4274706.92645  24584877.3004   24584876.9654   24584883.5034
   1172901.36248    910831.43246  22575210.2214   22575210.5484   22575216.0684
  -1019816.08648   -788450.85646  22188139.3184   22188139.8024   22188145.5604
  -2331285.66649  -1638288.03347  20308034.7954   20308034.3254   20308038.7054
 97  6 10  3  2 12.0000000  0  7G21G17G23G25G 3G31G 1
   -918150.63349   -710857.26947  20960414.4864   20960413.6304   20960417.1324
   2302153.81146   1784481.15345  25145638.5744   25145639.7274   25145649.3564
    721222.04747    559625.41546  23376313.0614   23376313.3244   23376314.0804
  -5519352.97347  -4278451.22745  24583962.9474   24583962.9844   24583969.1814
   1174130.10048    911788.89546  22575444.0074   22575444.3024   22575450.1864
  -1020328.57448   -788850.18746  22188041.7954   22188042.1294   22188047.4584
  -2332947.78749  -1639583.18847  20307718.5254   20307718.0734   20307722.4874
 97  6 10  3  2 13.0000000  0  7G21G17G23G25G 3G31G 1
   -918798.77149   -711362.31347  20960291.1504   20960290.4044   20960293.7744
   2304218.17246   1786089.74645  25146031.1974   25146032.8954   25146041.9024
    721890.68047    560146.43146  23376440.2824   23376440.3004   23376441.3504
  -5524158.36647  -4282195.67645  24583048.5734   24583048.6664   24583055.1654
   1175359.03848    912746.50746  22575677.8484   22575678.1794   22575683.5834
  -1020840.62648   -789249.18946  22187944.3984   22187944.5064   22187950.0494
  -2334609.53049  -1640878.05347  20307402.3414   20307401.8564   20307406.1634
 97  6 10  3  2 14.0000000  0  7G21G17G23G25G 3G31G 1
   -919446.50049   -711867.03847  20960167.8694   20960167.0744   20960170.5204
   2306282.91846   1787698.63545  25146423.8474   25146425.1004   25146435.3604
    722559.57347    560667.64746  23376567.5074   23376567.3074   23376568.4404
  -5528963.60947  -4285940.01845  24582134.1674   24582134.0114   24582140.2554
   1176588.52248    913704.54146  22575911.8744   22575912.3354   22575916.8774
  -1021351.89148   -789647.58446  22187847.2274   22187847.9774   22187851.7974
  -2336270.52649  -1642172.33547  20307086.3084   20307085.6564   20307090.0754
 97  6 10  3  2 15.0000000  0  7G21G17G23G25G 3G31G 1
   -920094.19249   -712371.73847  20960044.6024   20960043.8774   20960047.1894
   2308347.58246   1789307.47045  25146816.5724   25146818.8724   25146828.4924
    723228.33947    561188.76146  23376694.7554   23376694.4374   23376695.7864
  -5533769.03047  -4289684.49745  24581219.7234   24581219.3684   24581225.6894
   1177818.19748    914662.72646  22576145.8904   22576146.8154   22576151.3374
  -1021862.71348   -790045.63746  22187750.1634   22187750.7544   22187754.6474
  -2337931.13649  -1643466.31847  20306770.3794   20306769.6904   20306774.1944
 97  6 10  3  2 16.0000000  0  7G21G17G23G25G 3G31G 1
   -920741.52149   -712876.15147  20959921.4274   20959920.7644   20959924.0564
   2310412.54846   1790916.53445  25147209.2434   25147211.6434   25147221.3254
    723897.30947    561710.03646  23376822.1214   23376822.0004   23376822.9024
  -5538574.32947  -4293428.88045  24580305.3624   24580305.2414   24580310.5204
   1179048.39148    915621.31846  22576380.0184   22576379.9854   22576385.0534
  -1022372.76348   -790443.07546  22187653.2044   22187653.4414   22187657.8244
  -2339591.05449  -1644759.75947  20306454.5324   20306453.8954   20306458.3874
 97  6 10  3  2 17.0000000  0  7G21G17G23G25G 3G31G 1
   -921388.36349   -713380.18247  20959798.3454   20959797.6524   20959801.0004
   2312477.93446   1792525.92345  25147602.0914   25147603.9644   25147615.3274
    724566.62047    562231.57846  23376949.5474   23376949.2734   23376949.8154
  -5543379.38647  -4297173.07745  24579391.0324   24579391.0574   24579396.0064
   1180279.20748    916580.40046  22576614.2904   22576614.3434   22576618.9284
  -1022881.93448   -790839.83146  22187556.3584   22187556.4204   22187561.2384
  -2341250.13449  -1646052.54847  20306138.8134   20306138.0904   20306142.6704
 97  6 10  3  2 18.0000000  0  7G21G17G23G25G 3G31G 1
   -922034.25049   -713883.46947  20959675.4114   20959674.7794   20959678.1644
   2314544.16646   1794135.97544  25147995.2964   25147997.0554   25148007.7574
    725236.71647    562753.72846  23377077.1144   23377076.8094   23377077.4904
  -5548183.72547  -4300916.71345  24578476.8174   24578476.9794   24578482.6304
   1181511.12048    917540.33746  22576848.7344   22576849.0434   22576853.5484
  -1023389.76648   -791235.54046  22187459.8504   22187459.8584   22187464.1084
  -2342907.93049  -1647344.33747  20305823.3204   20305822.6544   20305827.1324
 97  6 10  3  2 19.0000000  0  7G21G17G23G25G 3G31G 1
   -922679.83049   -714386.51847  20959552.5174   20959551.7324   20959555.3254
   2316610.70046   1795746.26444  25148388.5974   25148390.3984   25148401.0024
    725906.96648    563276.00146  23377204.7144   23377204.2614   23377205.1914
  -5552987.95347  -4304660.26845  24577562.6074   24577563.1024   24577568.7094
   1182743.50448    918500.63146  22577083.2544   22577083.7654   22577088.3614
  -1023896.89148   -791630.70746  22187363.4094   22187363.3254   22187368.7504
  -2344565.07449  -1648635.61747  20305507.9374   20305507.1834   20305511.6874
 97  6 10  3  2 20.0000000  0  7G21G17G23G25G 3G31G 1
   -923325.38149   -714889.54847  20959429.6184   20959429.0204   20959432.5404
   2318677.13146   1797356.47044  25148781.5464   25148784.2634   25148794.6764
    726577.09148    563798.17246  23377332.3224   23377332.0674   23377332.8574
  -5557792.39747  -4308403.98545  24576648.3354   24576648.5684   24576654.6344
   1183976.05148    919461.05546  22577317.7474   22577318.2414   22577322.7894
  -1024403.61948   -792025.56746  22187266.9954   22187267.6154   22187272.2254
  -2346221.85649  -1649926.61747  20305192.5834   20305192.1144   20305196.3294
 97  6 10  3  2 21.0000000  0  7G21G17G23G25G 3G31G 1
   -923970.98249   -715392.61347  20959306.7184   20959306.0214   20959309.5244
   2320743.46846   1798966.60244  25149174.2494   25149177.4274   25149187.3174
    727247.00948    564320.18346  23377459.9474   23377459.5494   23377460.2954
  -5562597.11247  -4312147.91445  24575734.0414   24575734.2034   24575739.9764
   1185208.70148    920421.55746  22577552.3164   22577552.4074   22577557.1554
  -1024909.98448   -792420.13746  22187170.5874   22187170.8784   22187174.6384
  -2347878.34749  -1651217.39047  20304877.3244   20304876.7964   20304881.2274
 97  6 10  3  2 22.0000000  0  7G21G17G23G25G 3G31G 1
   -924616.92949   -715895.95047  20959183.7724   20959183.1794   20959186.6354
   2322809.40346   1800576.42544  25149567.2554   25149570.8424   25149579.7174
    727916.41548    564841.80046  23377587.3594   23377586.4054   23377588.0824
  -5567402.37747  -4315892.27545  24574819.6414   24574820.0404   24574825.1774
   1186441.16948    921381.92646  22577786.8804   22577787.2684   22577791.9884
  -1025416.30648   -792814.67246  22187074.1854   22187074.8854   22187078.4924
  -2349534.86649  -1652508.18447  20304562.0564   20304561.6314   20304566.1304
 97  6 10  3  2 23.0000000  0  7G21G17G23G25G 3G31G 1
   -925262.84549   -716399.25947  20959060.8584   20959060.4734   20959063.7854
   2324875.26246   1802186.18844  25149960.3264   25149963.1104   25149972.5714
    728585.71648    565363.33546  23377714.8014   23377713.6114   23377715.3884
  -5572207.85047  -4319636.79445  24573905.2134   24573905.1964   24573910.3534
   1187673.81348    922342.43246  22578021.4834   22578021.4594   22578026.3594
  -1025922.21248   -793208.88346  22186977.8104   22186977.3544   22186982.6134
  -2351191.01349  -1653798.68847  20304246.8584   20304246.3274   20304250.7964
 97  6 10  3  2 24.0000000  0  7G21G17G23G25G 3G31G 1
   -925908.67149   -716902.50347  20958937.9564   20958937.5184   20958940.9104
   2326941.16946   1803795.98344  25150353.4444   25150356.3754   25150365.7524
    729254.93648    565884.80746  23377842.2024   23377841.2084   23377843.1014
  -5577013.45847  -4323381.42145  24572990.6984   24572990.7664   24572995.8344
   1188906.69548    923303.12046  22578256.1574   22578256.4224   22578261.3714
  -1026427.64148   -793602.72646  22186881.6364   22186881.3264   22186886.4494
  -2352846.74049  -1655088.86447  20303931.7554   20303931.2234   20303935.7704
 97  6 10  3  2 25.0000000  0  7G21G17G23G25G 3G31G 1
   -926554.07049   -717405.40947  20958815.1604   20958814.5484   20958818.1204
   2329007.41246   1805406.04044  25150746.5394   25150749.3934   25150759.3204
    729924.43448    566406.49546  23377969.6634   23377968.4914   23377971.0504
  -5581818.80347  -4327125.83945  24572076.2754   24572076.9494   24572080.5894
   1190140.20148    924264.29046  22578490.9444   22578491.2664   22578496.1514
  -1026932.23048   -793995.90846  22186785.5854   22186786.0664   22186790.1684
  -2354501.68449  -1656378.42747  20303616.8194   20303616.4574   20303620.9634
 97  6 10  3  2 26.0000000  0  7G21G17G23G25G 3G31G 1
   -927199.40049   -717908.26647  20958692.3784   20958691.7474   20958695.2264
   2331073.69846   1807016.12844  25151139.6174   25151140.4794   25151152.2204
    730593.83248    566928.09946  23378097.0814   23378095.9504   23378098.6614
  -5586624.34147  -4330870.40745  24571161.8574   24571162.5214   24571166.0294
   1191373.90748    925225.62446  22578725.7904   22578725.5494   22578730.3744
  -1027436.36248   -794388.74246  22186689.7294   22186689.7864   22186694.1664
  -2356156.23849  -1657667.69347  20303301.9994   20303301.5554   20303306.0684
 97  6 10  3  2 27.0000000  0  7G21G17G23G25G 3G31G 1
   -927844.43749   -718410.89347  20958569.5984   20958568.8714   20958572.3114
   2333140.15046   1808626.34744  25151532.4804   25151533.3804   25151546.2884
    731263.37448    567449.82046  23378224.4224   23378223.6734   23378225.8034
  -5591429.81947  -4334614.93645  24570247.3784   24570247.4404   24570251.5574
   1192608.06148    926187.30246  22578960.6904   22578960.4864   22578965.8834
  -1027939.80648   -794781.04046  22186593.9844   22186593.9414   22186598.0384
  -2357810.15249  -1658956.45547  20302987.3144   20302986.6254   20302991.3214
 97  6 10  3  2 28.0000000  0  7G21G17G23G25G 3G31G 1
   -928488.94849   -718913.11047  20958446.9284   20958446.3924   20958449.9174
   2335207.06046   1810236.92944  25151925.6424   25151927.5044   25151939.5334
    731933.29148    567971.83246  23378351.8664   23378351.0134   23378353.4244
  -5596234.95047  -4338359.19145  24569332.9714   24569332.6104   24569337.0274
   1193842.93948    927149.54446  22579195.7014   22579195.4364   22579200.7494
  -1028442.30148   -795172.59646  22186498.4544   22186498.6254   22186502.5814
  -2359463.18549  -1660244.53347  20302672.7854   20302672.1884   20302676.8244
 97  6 10  3  2 29.0000000  0  7G21G17G23G25G 3G31G 1
   -929132.80449   -719414.81747  20958324.4084   20958323.8804   20958327.4684
   2337274.56946   1811847.97644  25152318.8044   25152321.9174   25152332.7034
    732603.71848    568494.24346  23378479.4564   23378478.2114   23378480.9414
  -5601039.66647  -4342103.12645  24568418.6984   24568418.5364   24568423.3204
   1195078.61248    928112.40646  22579430.9334   22579430.2834   22579435.1494
  -1028943.74948   -795563.33546  22186403.1264   22186402.7204   22186407.7934
  -2361115.22349  -1661531.83447  20302358.4314   20302357.8154   20302362.3564
 97  6 10  3  2 30.0000000  0  7G21G17G23G25G 3G31G 1
   -929776.38249   -719916.30647  20958201.9354   20958201.3734   20958205.1034
   2339342.31246   1813459.20144  25152712.2414   25152715.3974   25152726.5974
    733274.27548    569016.75246  23378607.0364   23378605.8764   23378608.2744
  -5605844.32647  -4345847.01745  24567504.3694   24567504.1524   24567508.8824
   1196314.72548    929075.61046  22579666.2874   22579666.2864   22579670.5394
  -1029444.53648   -795953.56046  22186307.9694   22186307.9664   22186312.3914
  -2362766.64649  -1662818.65747  20302044.1804   20302043.5544   20302048.1084
 97  6 10  3  2 31.0000000  0  7G21G17G23G25G 3G31G 1
   -930420.03549   -720417.85647  20958079.4474   20958078.9514   20958082.5774
   2341409.94046   1815070.33644  25153105.7314   25153108.5894   25153120.1744
    733944.63048    569539.10746  23378734.5814   23378733.3784   23378735.5054
  -5610649.25547  -4349591.11845  24566590.0854   24566590.3064   24566594.9524
   1197550.96448    930038.91146  22579901.6354   22579901.4074   22579905.7364
  -1029944.99448   -796343.52646  22186212.8354   22186212.7624   22186217.2404
  -2364417.77449  -1664105.25347  20301729.9794   20301729.4114   20301733.9784
 97  6 10  3  2 32.0000000  0  7G21G17G23G25G 3G31G 1
   -931063.64749   -720919.37347  20957956.9434   20957956.4274   20957960.2804
   2343477.49246   1816681.41444  25153499.2524   25153501.6704   25153513.1044
    734614.89648    570061.38846  23378862.1414   23378861.6384   23378862.9414
  -5615454.38247  -4353335.36945  24565675.7274   24565675.9734   24565680.7794
   1198787.39548    931002.36246  22580137.0674   22580136.5194   22580141.8324
  -1030445.01348   -796733.15346  22186117.7454   22186117.4034   22186122.6024
  -2366068.51549  -1665391.54747  20301415.8174   20301415.2504   20301419.8064
 97  6 10  3  2 33.0000000  0  7G21G17G23G25G 3G31G 1
   -931707.60649   -721421.16047  20957834.3554   20957833.8544   20957837.5654
   2345544.66246   1818292.19344  25153892.5934   25153895.0934   25153905.5984
    735284.66348    570583.28046  23378989.5434   23378988.8144   23378990.4964
  -5620260.08947  -4357080.07545  24564761.2524   24564761.6544   24564766.6964
   1200023.62448    931965.65446  22580372.4804   22580371.7244   22580376.9644
  -1030944.98648   -797122.74446  22186022.6234   22186022.6414   22186026.5984
  -2367719.27349  -1666677.85247  20301101.6604   20301101.1734   20301105.6034
 97  6 10  3  2 34.0000000  0  7G21G17G23G25G 3G31G 1
   -932351.58849   -721922.96647  20957711.7994   20957711.3004   20957715.0534
   2347611.77546   1819902.92744  25154285.8554   25154287.4934   25154298.9584
    735954.28548    571105.06146  23379116.8894   23379115.8114   23379118.0004
  -5625066.00047  -4360824.94045  24563846.7674   24563847.7144   24563851.9744
   1201260.04548    932929.09946  22580607.8984   22580607.2374   22580612.2904
  -1031444.58448   -797512.04546  22185927.6024   22185927.8584   22185932.0544
  -2369369.67449  -1667963.87947  20300787.5574   20300787.1024   20300791.6894
 97  6 10  3  2 35.0000000  0  7G21G17G23G25G 3G31G 1
   -932995.46049   -722424.68347  20957589.2984   20957588.8364   20957592.7574
   2349678.90246   1821513.68244  25154679.0404   25154680.4174   25154691.4724
    736623.85348    571626.80146  23379244.2634   23379242.5834   23379245.1394
  -5629872.07047  -4364569.92745  24562932.3024   24562933.0714   24562937.5194
   1202496.72548    933892.74646  22580843.2784   22580842.3914   22580847.3814
  -1031943.67748   -797900.95046  22185832.6724   22185832.5984   22185837.0234
  -2371019.64549  -1669249.57147  20300473.5584   20300473.1564   20300477.6104
 97  6 10  3  2 36.0000000  0  7G21G17G23G25G 3G31G 1
   -933639.02349   -722926.16047  20957466.8744   20957466.4204   20957470.2004
   2351746.26846   1823124.61444  25155072.0284   25155074.2564   25155085.8074
    737293.59148    572148.67546  23379371.5904   23379369.9194   23379372.2814
  -5634678.06447  -4368314.85945  24562017.7704   24562018.6124   24562023.1214
   1203733.88348    934856.75746  22581078.7664   22581078.2684   22581082.1774
  -1032442.07548   -798289.30846  22185737.8594   22185737.1654   22185742.1074
  -2372668.95349  -1670534.74647  20300159.6604   20300159.1654   20300163.7364
 97  6 10  3  2 37.0000000  0  7G21G17G23G25G 3G31G 1
   -934282.49449   -723427.56647  20957344.4404   20957343.9534   20957347.7144
   2353813.67146   1824735.57544  25155464.9274   25155466.5564   25155479.1134
    737963.29248    572670.51946  23379498.8704   23379497.1694   23379499.4574
  -5639484.16447  -4372059.86945  24561103.2254   24561103.2894   24561108.4244
   1204971.32248    935820.99146  22581314.2794   22581313.8214   22581318.1564
  -1032939.99148   -798677.29646  22185643.1474   22185642.5224   22185647.7694
  -2374317.83749  -1671819.59147  20299845.9214   20299845.5814   20299849.9924
 97  6 10  3  2 38.0000000  0  7G21G17G23G25G 3G31G 1
   -934925.45349   -723928.57247  20957222.1164   20957221.6464   20957225.3654
   2355881.52846   1826346.89444  25155858.5604   25155859.8454   25155873.0994
    738633.38248    573192.66846  23379626.2464   23379624.7274   23379626.6014
  -5644289.97047  -4375804.65145  24560188.7154   24560188.4974   24560193.8024
   1206209.44948    936785.75946  22581549.9264   22581549.3124   22581553.3474
  -1033437.00148   -799064.57346  22185548.6354   22185548.2594   22185552.9424
  -2375965.86549  -1673103.76847  20299532.3764   20299531.9184   20299536.5194
 97  6 10  3  2 39.0000000  0  7G21G17G23G25G 3G31G 1
   -935567.91149   -724429.19147  20957099.8714   20957099.2374   20957103.1444
   2357949.83046   1827958.55744  25156252.0924   25156253.7684   25156264.3184
    739303.84248    573715.10046  23379753.7814   23379752.1634   23379754.4754
  -5649095.52047  -4379549.23345  24559274.2444   24559273.7354   24559279.2734
   1207448.25148    937751.06146  22581785.6874   22581784.8894   22581788.9264
  -1033933.11548   -799451.15646  22185454.3474   22185454.0574   22185458.4134
  -2377613.04749  -1674387.28647  20299219.0094   20299218.5564   20299223.1544
 97  6 10  3  2 40.0000000  0  7G21G17G23G25G 3G31G 1
   -936209.71549   -724929.29847  20956977.7324   20956976.9204   20956981.1164
   2360018.73246   1829570.68744  25156645.8734   25156648.4794   25156658.1414
    739974.83848    574237.94946  23379881.3334   23379880.0734   23379882.5424
  -5653900.60347  -4383293.45045  24558359.8754   24558358.5244   24558364.4644
   1208687.89548    938717.01246  22582021.5664   22582020.9274   22582025.0824
  -1034428.16448   -799836.91246  22185360.2254   22185359.7024   22185364.5354
  -2379259.22049  -1675670.01747  20298905.8414   20298905.2704   20298909.8564
 97  6 10  3  2 41.0000000  0  7G21G17G23G25G 3G31G 1
   -936850.89049   -725428.91547  20956855.6994   20956855.2784   20956858.9534
   2362088.18246   1831183.24444  25157039.8534   25157041.4364   25157051.8714
    740646.31748    574761.18346  23380009.0354   23380008.1064   23380009.9514
  -5658705.30747  -4387037.36845  24557445.5784   24557444.0674   24557449.4184
   1209928.30148    939683.56346  22582257.5874   22582257.1844   22582261.6434
  -1034922.19848   -800221.87646  22185266.3054   22185265.7234   22185269.6994
  -2380904.43249  -1676952.00047  20298592.8294   20298592.1764   20298596.6734
 97  6 10  3  2 42.0000000  0  7G21G17G23G25G 3G31G 1
   -937492.22849   -725928.66247  20956733.6654   20956733.1914   20956736.9804
   2364157.43146   1832795.65044  25157434.1964   25157435.1034   25157445.1314
    741317.47448    575284.15746  23380136.6974   23380136.2444   23380137.9684
  -5663510.40147  -4390781.59545  24556531.1924   24556529.4214   24556535.4434
   1211168.69848    940650.10346  22582493.5934   22582492.9744   22582497.6144
  -1035416.01648   -800606.67646  22185172.3744   22185171.4774   22185176.0504
  -2382549.48749  -1678233.86147  20298279.8644   20298279.1114   20298283.6364
 97  6 10  3  2 43.0000000  0  7G21G17G23G25G 3G31G 1
   -938133.91149   -726428.67647  20956611.5714   20956611.0694   20956614.7834
   2366226.24046   1834407.70544  25157828.2184   25157829.5274   25157839.6414
    741988.15448    575806.76346  23380264.2584   23380264.0724   23380265.8984
  -5668316.04047  -4394526.25045  24555616.7124   24555615.2824   24555621.3414
   1212408.91148    941616.50046  22582729.5874   22582728.5094   22582733.5294
  -1035909.79148   -800991.43746  22185078.4464   22185077.9244   22185082.0294
  -2384194.56949  -1679515.74247  20297966.8814   20297966.1834   20297970.6664
 97  6 10  3  2 44.0000000  0  7G21G17G23G25G 3G31G 1
   -938775.59949   -726928.69047  20956489.4654   20956488.8714   20956492.7124
   2368294.98546   1836019.71344  25158222.1564   25158222.9014   25158233.4684
    742658.69348    576329.26146  23380391.8194   23380391.9074   23380393.2104
  -5673121.93747  -4398271.10345  24554702.2494   24554700.7964   24554706.7814
   1213649.26848    942583.01546  22582965.5704   22582964.6934   22582969.0854
  -1036403.17548   -801375.89546  22184984.6374   22184984.0644   22184987.6694
  -2385839.31849  -1680797.36147  20297653.9284   20297653.0694   20297657.4894
 97  6 10  3  2 45.0000000  0  7G21G17G23G25G 3G31G 1
   -939417.37449   -727428.77547  20956367.3594   20956366.5604   20956370.6174
   2370363.55746   1837631.58544  25158615.9894   25158616.6464   25158626.7094
    743328.99748    576851.57346  23380519.3754   23380519.6994   23380520.7664
  -5677928.15847  -4402016.20645  24553787.6904   24553786.4634   24553791.9904
   1214889.68848    943549.57646  22583201.5374   22583200.6364   22583204.8684
  -1036896.25648   -801760.11646  22184890.8394   22184890.1404   22184894.2564
  -2387483.81949  -1682078.79247  20297341.0234   20297340.1354   20297344.6494
 97  6 10  3  2 46.0000000  0  7G21G17G23G25G 3G31G 1
   -940058.90349   -727928.66847  20956245.2794   20956244.5204   20956248.6504
   2372432.35946   1839243.64144  25159009.7524   25159010.3134   25159020.3924
    743999.41748    577373.97446  23380647.0014   23380646.9864   23380648.4904
  -5682734.33847  -4405761.28145  24552873.1564   24552872.1174   24552877.4504
   1216130.50348    944516.44046  22583437.5904   22583437.1844   22583441.0124
  -1037388.71048   -802143.84746  22184797.1594   22184795.9024   22184800.4694
  -2389127.78249  -1683359.80247  20297028.1674   20297027.2304   20297031.8604
 97  6 10  3  2 47.0000000  0  7G21G17G23G25G 3G31G 1
   -940700.50049   -728428.61447  20956123.1514   20956122.3334   20956126.5704
   2374500.94946   1840855.52844  25159403.6324   25159403.4324   25159413.6224
    744669.62248    577896.21046  23380774.5754   23380775.0604   23380776.3834
  -5687540.83547  -4409506.60145  24551958.5894   24551957.4674   24551962.7704
   1217371.39448    945483.36946  22583673.6904   22583673.1764   22583677.1524
  -1037880.85348   -802527.33146  22184703.4654   22184703.0074   22184706.9354
  -2390771.50049  -1684640.62347  20296715.3654   20296714.3894   20296719.0074
 97  6 10  3  2 48.0000000  0  7G21G17G23G25G 3G31G 1
   -941341.61449   -728928.18647  20956001.1794   20956000.6724   20956004.6624
   2376570.00146   1842467.78044  25159797.4394   25159797.6454   25159807.5184
    745340.17848    578418.72146  23380902.2794   23380902.5754   23380903.5294
  -5692347.07447  -4413251.71645  24551044.0224   24551043.3394   24551048.0154
   1218612.90848    946450.78246  22583909.8504   22583909.1224   22583913.9174
  -1038372.12648   -802910.14046  22184609.9264   22184609.2924   22184613.7024
  -2392414.36949  -1685920.78047  20296402.6774   20296401.8614   20296406.4014
 97  6 10  3  2 49.0000000  0  7G21G17G23G25G 3G31G 1
   -941982.39149   -729427.49247  20955879.2654   20955878.6004   20955882.4864
   2378639.27046   1844080.19644  25160191.6494   25160191.8184   25160201.2864
    746010.93348    578941.38546  23381030.0794   23381030.1814   23381031.5754
  -5697153.19447  -4416996.74345  24550129.5324   24550129.1214   24550133.4904
   1219854.89648    947418.57246  22584146.1534   22584146.0554   22584150.4864
  -1038862.69648   -803292.40346  22184516.5144   22184515.5554   22184520.6044
  -2394056.61249  -1687200.44847  20296090.1454   20296089.2414   20296093.8704
 97  6 10  3  2 50.0000000  0  7G21G17G23G25G 3G31G 1
   -942622.59749   -729926.35247  20955757.4344   20955756.6014   20955760.7784
   2380709.05646   1845693.02044  25160585.8724   25160585.4504   25160594.9654
    746682.11548    579464.38046  23381157.8754   23381157.4864   23381159.5874
  -5701959.00147  -4420741.52445  24549215.0754   24549214.9764   24549218.5064
   1221097.57248    948386.88846  22584382.5934   22584382.3664   22584386.5754
  -1039352.34248   -803673.94546  22184423.3094   22184422.5454   22184426.9804
  -2395697.97649  -1688479.43447  20295777.7984   20295777.0754   20295781.6164
 97  6 10  3  2 51.0000000  0  7G21G17G23G25G 3G31G 1
   -943262.08849   -730424.65847  20955635.7124   20955635.0374   20955639.0834
   2382779.42446   1847306.29244  25160979.9024   25160978.9194   25160988.9014
    747353.86848    579987.82746  23381285.7124   23381285.0094   23381287.4044
  -5706764.33547  -4424485.93745  24548300.7124   24548300.2434   24548304.5584
   1222341.09848    949355.86446  22584619.1664   22584618.8184   22584623.5014
  -1039840.90048   -804054.63946  22184330.3694   22184329.7504   22184333.8944
  -2397338.30949  -1689757.61447  20295465.6514   20295464.8304   20295469.5034
 97  6 10  3  2 52.0000000  0  7G21G17G23G25G 3G31G 1
   -943900.91849   -730922.44847  20955514.1744   20955513.4104   20955517.6134
   2384850.35246   1848920.00244  25161374.0104   25161372.9304   25161383.1034
    748026.13448    580511.66846  23381413.6134   23381413.3104   23381415.4764
  -5711569.25047  -4428230.02445  24547386.4604   24547386.1054   24547390.2114
   1223585.41148    950325.45446  22584855.9074   22584855.5594   22584860.4984
  -1040328.44748   -804434.55046  22184237.6254   22184237.1974   22184240.8114
  -2398977.67949  -1691035.04547  20295153.6204   20295152.6754   20295157.5094
 97  6 10  3  2 53.0000000  0  7G21G17G23G25G 3G31G 1
   -944539.98249   -731420.42047  20955392.4894   20955392.0944   20955395.9224
   2386920.94046   1850533.44544  25161767.7394   25161768.1764   25161777.5314
    748698.01848    581035.21646  23381541.4994   23381541.2854   23381543.0674
  -5716374.64047  -4431974.47845  24546472.1384   24546471.3754   24546475.8494
   1224829.61748    951294.96146  22585092.6854   22585092.8224   22585097.5224
  -1040815.86948   -804814.35746  22184144.9054   22184144.2794   22184148.7784
  -2400616.96249  -1692312.40747  20294841.6864   20294840.9434   20294845.2944
 97  6 10  3  2 54.0000000  0  7G21G17G23G25G 3G31G 1
   -945179.30749   -731918.59547  20955270.8054   20955270.3634   20955274.2164
   2388991.20146   1852146.63444  25162161.3084   25162161.9424   25162171.3004
    749369.49548    581558.44246  23381669.2974   23381669.3334   23381670.9264
  -5721180.55447  -4435719.34145  24545557.7664   24545556.8724   24545561.5794
   1226073.67648    952264.36146  22585329.3914   22585329.7504   22585334.4854
  -1041303.20048   -805194.09546  22184052.2044   22184051.6284   22184056.0284
  -2402256.19949  -1693589.73547  20294529.6914   20294528.8314   20294533.3384
 97  6 10  3  2 55.0000000  0  7G21G17G23G25G 3G31G 1
   -945818.59749   -732416.74347  20955149.1184   20955148.6064   20955152.5944
   2391061.34646   1853759.73244  25162554.5274   25162555.6284   25162565.5044
    750040.86248    582081.58046  23381797.1154   23381796.9194   23381798.4874
  -5725986.68447  -4439464.37245  24544643.3004   24544641.8834   24544646.7894
   1227317.88848    953233.88046  22585566.1104   22585566.0094   22585570.4954
  -1041790.12748   -805573.52146  22183959.5524   22183958.7604   22183963.4074
  -2403895.10049  -1694866.79947  20294217.7514   20294216.8624   20294221.6764
 97  6 10  3  2 56.0000000  0  7G21G17G23G25G 3G31G 1
   -946457.97749   -732914.96447  20955027.4394   20955026.8994   20955030.9194
   2393131.32956   1855372.70644  25162948.0254   25162949.8554   25162960.0824
    750711.99548    582604.54246  23381924.8134   23381924.6264   23381925.9864
  -5730793.17447  -4443209.68245  24543728.7154   24543727.8044   24543732.2334
   1228562.13448    954203.42046  22585802.8074   22585802.4674   22585807.2174
  -1042276.78148   -805952.73846  22183866.9684   22183866.2704   22183870.7464
  -2405533.77149  -1696143.68547  20293905.8774   20293904.9884   20293909.9984
 97  6 10  3  2 57.0000000  0  7G21G17G23G25G 3G31G 1
   -947097.07049   -733412.95747  20954905.7694   20954905.3164   20954909.2294
   2395201.43446   1856985.77244  25163341.4984   25163344.0944   25163354.9244
    751383.26448    583127.61146  23382052.4624   23382051.7594   23382053.7164
  -5735599.64547  -4446954.97945  24542814.1124   24542813.0864   24542817.7084
   1229806.77048    955173.26746  22586039.5894   22586039.2704   22586044.0924
  -1042762.79748   -806331.44746  22183774.4744   22183773.5904   22183778.1274
  -2407171.83349  -1697420.09547  20293594.1274   20293593.3324   20293598.1664
 97  6 10  3  2 58.0000000  0  7G21G17G23G25G 3G31G 1
   -947735.91449   -733910.75647  20954784.1504   20954783.6714   20954787.7134
   2397271.73746   1858598.99544  25163735.0754   25163738.3874   25163748.6064
    752054.64248    583650.76346  23382180.0764   23382179.6764   23382181.2274
  -5740406.14647  -4450700.30045  24541899.4944   24541898.9904   24541902.9144
   1231051.78248    956143.40946  22586276.4954   22586276.8354   22586281.5484
  -1043248.21648   -806709.69846  22183682.0944   22183681.5894   22183686.3854
  -2408809.33949  -1698696.07447  20293282.4464   20293281.8634   20293286.5634
 97  6 10  3  2 59.0000000  0  7G21G17G23G25G 3G31G 1
   -948374.51549   -734408.36747  20954662.6054   20954662.0044   20954666.2454
   2399342.12846   1860212.28144  25164128.6374   25164131.3704   25164143.5834
    752726.11048    584173.98846  23382307.7554   23382307.0914   23382309.1294
  -5745212.68247  -4454445.64645  24540984.8764   24540984.3844   24540988.8964
   1232297.13748    957113.80946  22586513.4744   22586513.8604   22586517.9594
  -1043733.05548   -807087.49446  22183589.7234   22183588.5174   22183594.0774
  -2410446.29249  -1699971.62347  20292970.8794   20292970.1424   20292975.0194
 97  6 10  3  3  0.0000000  0  7G21G17G23G25G 3G31G 1
   -949012.57649   -734905.55947  20954541.1374   20954540.5034   20954544.9064
   2401412.91856   1861825.88344  25164522.3584   25164524.8784   25164536.5454
    753397.96048    584697.50746  23382435.6204   23382435.0214   23382437.0414
  -5750018.97247  -4458190.80245  24540070.2804   24540069.2314   24540074.0204
   1233543.12948    958084.71246  22586750.5624   22586751.0624   22586754.8974
  -1044216.99248   -807464.58646  22183497.5364   22183496.2194   22183501.6554
  -2412082.40649  -1701246.51847  20292659.4594   20292658.9114   20292663.5584
 97  6 10  3  3  1.0000000  0  7G21G17G23G25G 3G31G 1
   -949650.09049   -735402.32647  20954419.7734   20954419.4304   20954423.5794
   2403484.19446   1863439.86144  25164915.9554   25164918.4064   25164930.6764
    754070.20148    585221.32346  23382563.5364   23382562.6294   23382564.8834
  -5754824.98647  -4461935.74245  24539155.6484   24539154.4114   24539159.4384
   1234789.78348    959056.13546  22586987.8554   22586987.9304   22586992.2654
  -1044700.05248   -807840.99046  22183405.6194   22183405.3884   22183409.3794
  -2413717.65749  -1702520.74047  20292348.2264   20292347.9084   20292352.4714
 97  6 10  3  3  2.0000000  0  7G21G17G23G25G 3G31G 1
   -950286.92849   -735898.56247  20954298.5624   20954298.1694   20954302.2844
   2405556.02446   1865054.27044  25165309.8974   25165312.1794   25165325.7094
    754742.96248    585745.55246  23382691.5864   23382691.3744   23382692.8554
  -5759630.60547  -4465680.37545  24538241.1104   24538240.0594   24538244.6504
   1236037.21248    960028.15646  22587225.2794   22587224.6644   22587229.7104
  -1045182.09548   -808216.61446  22183313.8584   22183312.8274   22183317.4534
  -2415351.92749  -1703794.19647  20292037.1944   20292036.8044   20292041.4934
 97  6 10  3  3  3.0000000  0  7G21G17G23G25G 3G31G 1
   -950923.59249   -736394.66547  20954177.3774   20954176.8084   20954181.0694
   2407627.86846   1866668.69444  25165703.9794   25165706.1084   25165720.8324
    755415.72348    586269.78146  23382819.6764   23382819.5344   23382820.8164
  -5764436.33747  -4469425.09845  24537326.4884   24537325.3194   24537330.5974
   1237284.90448    961000.38546  22587462.7014   22587461.9364   22587467.2894
  -1045663.60648   -808591.82346  22183222.2894   22183221.4594   22183225.9344
  -2416985.70549  -1705067.27147  20291726.2874   20291726.0484   20291730.5094
 97  6 10  3  3  4.0000000  0  7G21G17G23G25G 3G31G 1
   -951560.33049   -736890.82647  20954056.1694   20954055.9204   20954060.1354
   2409699.53046   1868282.97445  25166098.0124   25166100.6304   25166114.9544
    756088.24048    586793.81746  23382947.6564   23382948.0674   23382948.7094
  -5769242.44847  -4473170.11745  24536411.7654   24536410.7754   24536416.2604
   1238532.61948    961972.62846  22587700.1864   22587699.7504   22587705.6074
  -1046144.89548   -808966.85146  22183130.6824   22183129.7534   22183135.1564
  -2418619.26649  -1706340.17547  20291415.4654   20291415.1674   20291419.7054
 97  6 10  3  3  5.0000000  0  7G21G17G23G25G 3G31G 1
   -952196.90249   -737386.85347  20953934.9914   20953934.7034   20953939.1164
   2411771.20146   1869897.25845  25166492.1144   25166495.4264   25166510.3814
    756760.75048    587317.85146  23383075.6744   23383075.6894   23383076.5414
  -5774048.67047  -4476915.22745  24535496.9884   24535495.8024   24535502.2244
   1239780.58248    962945.07346  22587937.6384   22587937.1964   22587943.5194
  -1046625.65548   -809341.46446  22183039.1394   22183038.4184   22183043.2514
  -2420252.34849  -1707612.70447  20291104.7474   20291104.2734   20291108.8064
 97  6 10  3  3  6.0000000  0  7G21G17G23G25G 3G31G 1
   -952833.76049   -737883.10947  20953813.7934   20953813.6134   20953817.9244
   2413842.45546   1871511.21845  25166886.5124   25166889.3784   25166904.1854
    757432.83148    587841.55046  23383203.6354   23383203.8564   23383204.6854
  -5778855.48547  -4480660.79545  24534582.1964   24534581.1904   24534587.2244
   1241028.35748    963917.35946  22588175.0394   22588174.5484   22588180.0934
  -1047106.36748   -809716.05146  22182947.6554   22182946.8184   22182952.1724
  -2421885.39449  -1708885.20847  20290794.0224   20290793.6374   20290798.2094
 97  6 10  3  3  7.0000000  0  7G21G17G23G25G 3G31G 1
   -953470.50049   -738379.27147  20953692.6154   20953692.2844   20953696.6844
   2415913.67946   1873125.15444  25167280.7994   25167284.2014   25167299.8234
    758104.82148    588365.17446  23383331.5524   23383331.6954   23383332.9854
  -5783662.48847  -4484406.50745  24533667.3864   24533666.2554   24533672.5104
   1242276.32148    964889.79846  22588412.4394   22588412.1884   22588417.4084
  -1047586.64848   -810090.29846  22182856.2184   22182855.0494   22182860.0404
  -2423518.04649  -1710157.40447  20290483.3404   20290482.9534   20290487.3854
 97  6 10  3  3  8.0000000  0  7G21G17G23G25G 3G31G 1
   -954107.02649   -738875.26347  20953571.5014   20953571.2984   20953575.4414
   2417985.00846   1874739.17044  25167675.2364   25167678.6374   25167694.0344
    758776.86748    588888.84946  23383459.5394   23383459.2504   23383460.8094
  -5788469.56947  -4488152.28645  24532752.5464   24532751.5684   24532757.6394
   1243524.58348    965862.47046  22588649.8604   22588649.7504   22588654.5004
  -1048066.38048   -810464.10846  22182764.8744   22182763.7384   22182768.8804
  -2425150.17449  -1711429.18947  20290172.8124   20290172.2984   20290176.8174
 97  6 10  3  3  9.0000000  0  7G21G17G23G25G 3G31G 1
   -954743.16149   -739370.95647  20953450.4954   20953450.2064   20953454.5524
   2420056.59246   1876353.38344  25168069.8144   25168073.4054   25168088.1754
    759449.14648    589412.70346  23383587.5594   23383586.3304   23383588.5964
  -5793276.54147  -4491897.98245  24531837.7574   24531836.7354   24531842.6434
   1244773.32348    966835.50746  22588887.4034   22588887.7044   22588892.4474
  -1048545.38248   -810837.36146  22182673.6974   22182673.1384   22182677.7954
  -2426781.59849  -1712700.43047  20289862.3634   20289861.7714   20289866.4414
 97  6 10  3  3 10.0000000  0  7G21G17G23G25G 3G31G 1
   -955379.00749   -739866.41847  20953329.5174   20953329.0594   20953333.3574
   2422128.29746   1877967.69344  25168464.1564   25168466.8794   25168482.6584
    760121.51648    589936.63046  23383715.5044   23383714.6984   23383715.9174
  -5798083.53247  -4495643.68645  24530922.9554   24530921.5424   24530927.2334
   1246022.42248    967808.82846  22589125.0374   22589125.1884   22589130.0424
  -1049023.79348   -811210.15246  22182582.5974   22182581.7524   22182587.0204
  -2428412.44649  -1713971.22047  20289552.0084   20289551.6094   20289556.1644
 97  6 10  3  3 11.0000000  0  7G21G17G23G25G 3G31G 1
   -956014.40149   -740361.53047  20953208.6194   20953208.2884   20953212.4254
   2424200.38746   1879582.30144  25168859.1234   25168861.9044   25168877.9264
    760794.17248    590460.76946  23383843.5964   23383842.6594   23383844.6104
  -5802890.36647  -4499389.27145  24530008.2244   24530006.7814   24530012.8784
   1247272.06048    968782.56646  22589362.8364   22589362.4074   22589368.4894
  -1049501.41848   -811582.32946  22182491.7024   22182490.0214   22182495.8514
  -2430042.53549  -1715241.41947  20289241.7984   20289241.3174   20289245.9034
 97  6 10  3  3 12.0000000  0  7G21G17G23G25G 3G31G 1
   -956649.12349   -740856.12247  20953087.8654   20953087.4654   20953091.8994
   2426272.89146   1881197.23344  25169253.9624   25169256.0524   25169274.3104
    761467.33748    590985.31146  23383971.6584   23383970.5854   23383972.5124
  -5807696.81147  -4503134.55445  24529093.6284   24529092.0874   24529098.1974
   1248522.44948    969756.89646  22589600.8254   22589599.7594   22589605.7984
  -1049978.04648   -811953.72746  22182400.9844   22182400.1164   22182405.2924
  -2431671.64749  -1716510.85747  20288931.7844   20288931.4594   20288935.8294
 97  6 10  3  3 13.0000000  0  7G21G17G23G25G 3G31G 1
   -957283.13649   -741350.15547  20952967.2274   20952966.6364   20952971.1404
   2428346.05746   1882812.68344  25169649.2054   25169651.6184   25169668.9904
    762141.02048    591510.26346  23384099.8324   23384097.8144   23384101.4214
  -5812502.86047  -4506879.51745  24528179.0864   24528177.9744   24528183.4434
   1249773.61348    970731.83346  22589838.9834   22589838.4464   22589843.9674
  -1050453.67448   -812324.34446  22182310.3924   22182309.6714   22182314.6954
  -2433299.74249  -1717779.50347  20288621.9754   20288621.6324   20288626.1094
 97  6 10  3  3 14.0000000  0  7G21G17G23G25G 3G31G 1
   -957916.81049   -741843.93047  20952846.6394   20952846.0474   20952850.6364
   2430419.34446   1884428.22744  25170044.0714   25170046.0234   25170063.4844
    762814.86648    592035.33646  23384227.9784   23384226.7134   23384229.3434
  -5817308.87447  -4510624.46145  24527264.5544   24527263.4254   24527268.7904
   1251025.19148    971707.09146  22590077.2254   22590076.9644   22590081.9064
  -1050928.65148   -812694.46246  22182219.9204   22182219.1984   22182224.3884
  -2434927.20849  -1719047.65947  20288312.3024   20288312.0174   20288316.5394
 97  6 10  3  3 15.0000000  0  7G21G17G23G25G 3G31G 1
   -958550.67149   -742337.84747  20952726.0334   20952725.5724   20952729.8734
   2432492.33246   1886043.53444  25170439.0534   25170440.0364   25170458.4644
    763488.35748    592560.13746  23384356.0264   23384355.1654   23384358.2224
  -5822115.38747  -4514369.79745  24526349.9094   24526348.8834   24526354.1024
   1252276.65548    972682.25646  22590315.4654   22590314.6774   22590320.2404
  -1051403.47848   -813064.46146  22182129.4784   22182129.3804   22182134.0554
  -2436554.56149  -1720315.72647  20288002.6474   20288002.2304   20288006.8204
 97  6 10  3  3 16.0000000  0  7G21G17G23G25G 3G31G 1
   -959184.78649   -742831.96247  20952605.4064   20952604.7954   20952609.1314
   2434564.95946   1887658.56644  25170833.5304   25170835.3154   25170850.2624
    764161.43448    593084.60846  23384484.0404   23384482.7254   23384486.1234
  -5826922.45947  -4518115.56945  24525435.1774   24525433.7784   24525439.1224
   1253527.95648    973657.29346  22590553.6314   22590552.8324   22590558.5224
  -1051878.25548   -813434.41746  22182039.0504   22182038.8774   22182043.8234
  -2438181.86749  -1721583.75747  20287692.9954   20287692.6374   20287697.1054
 97  6 10  3  3 17.0000000  0  7G21G17G23G25G 3G31G 1
   -959818.85749   -743326.04447  20952484.7264   20952484.0494   20952488.5274
   2436637.48846   1889273.51144  25171228.0234   25171230.3094   25171244.6224
    764834.40448    593609.00046  23384611.9184   23384611.2294   23384614.2214
  -5831729.76747  -4521861.52045  24524520.4164   24524519.0254   24524525.0434
   1254779.39748    974632.44246  22590791.8374   22590791.0764   22590796.2444
  -1052352.65548   -813804.07646  22181948.7454   22181948.4404   22181953.7394
  -2439808.82949  -1722851.52147  20287383.4264   20287383.0774   20287387.4864
 97  6 10  3  3 18.0000000  0  7G21G17G23G25G 3G31G 1
   -960452.89149   -743820.09747  20952364.0464   20952363.5104   20952367.9444
   2438709.93046   1890888.39544  25171622.6254   25171625.9624   25171639.1144
    765507.27448    594133.31246  23384739.7414   23384738.8274   23384742.6444
  -5836537.32647  -4525607.66545  24523605.6304   24523604.1634   24523610.2264
   1256030.96548    975607.68746  22591029.9634   22591029.0384   22591034.7464
  -1052826.69348   -814173.45746  22181858.5494   22181858.4464   22181863.2904
  -2441435.43949  -1724119.00847  20287073.8824   20287073.5414   20287077.9144
 97  6 10  3  3 19.0000000  0  7G21G17G23G25G 3G31G 1
   -961086.48549   -744313.80647  20952243.4844   20952242.8364   20952247.5154
   2440782.74046   1892503.56544  25172017.2634   25172021.1084   25172033.5964
    766180.43648    594657.84646  23384867.7514   23384867.2974   23384870.8454
  -5841344.74647  -4529353.70245  24522690.9174   24522689.1614   24522695.0634
   1257283.06448    976583.34746  22591268.2084   22591267.1494   22591273.3754
  -1053300.00248   -814542.26446  22181768.4744   22181768.5964   22181773.1284
  -2443061.34449  -1725385.94547  20286764.5014   20286764.1634   20286768.6064
 97  6 10  3  3 20.0000000  0  7G21G17G23G25G 3G31G 1
   -961719.96949   -744807.42847  20952122.9604   20952122.3734   20952126.7444
   2442855.48846   1894118.68944  25172411.6614   25172415.2604   25172428.1424
    766853.55248    595182.35146  23384995.8024   23384994.8044   23384998.9314
  -5846152.33747  -4533099.87645  24521776.0684   24521774.2964   24521780.3794
   1258535.38848    977559.18246  22591506.4424   22591506.2914   22591511.7314
  -1053772.84248   -814910.71046  22181678.5244   22181678.1814   22181683.5704
  -2444686.81849  -1726652.54647  20286455.1614   20286454.6614   20286459.2474
 97  6 10  3  3 21.0000000  0  7G21G17G23G25G 3G31G 1
   -962353.08949   -745300.76847  20952002.4624   20952001.8104   20952006.2854
   2444928.47946   1895734.00044  25172806.1634   25172810.1844   25172822.6904
    767526.89748    595707.03046  23385123.9234   23385122.4734   23385127.3474
  -5850959.84847  -4536845.98445  24520861.2324   24520860.0914   24520865.3254
   1259788.17048    978535.37546  22591744.7694   22591744.2484   22591748.9664
  -1054244.98648   -815278.61546  22181588.7114   22181588.5364   22181592.8564
  -2446311.61349  -1727918.62147  20286146.0094   20286145.6004   20286150.0124
 97  6 10  3  3 22.0000000  0  7G21G17G23G25G 3G31G 1
   -962985.65049   -745793.67347  20951882.1134   20951881.5024   20951886.0074
   2447001.91146   1897349.65144  25173200.8724   25173204.4854   25173218.0944
    768200.65248    596232.02546  23385252.0484   23385251.6964   23385255.1844
  -5855767.12347  -4540591.91345  24519946.3524   24519945.9334   24519950.3474
   1261041.59748    979512.06846  22591983.1824   22591983.2674   22591987.8884
  -1054716.29048   -815645.87746  22181499.1254   22181499.0334   22181503.3974
  -2447935.58349  -1729184.05547  20285837.0074   20285836.6974   20285841.0244
 97  6 10  3  3 23.0000000  0  7G21G17G23G25G 3G31G 1
   -963617.42249   -746285.96147  20951761.8904   20951761.3764   20951765.8244
   2449076.05646   1898965.86545  25173595.6674   25173599.1844   25173612.7354
    768875.05948    596757.53846  23385380.2864   23385380.1674   23385383.3484
  -5860573.88347  -4544337.43545  24519031.6314   24519031.1634   24519035.7154
   1262295.91448    980489.45446  22592221.7744   22592221.2934   22592226.6214
  -1055186.45448   -816012.23646  22181409.7214   22181409.6894   22181414.7784
  -2449558.44849  -1730448.62347  20285528.1704   20285527.7814   20285532.3614
 97  6 10  3  3 24.0000000  0  7G21G17G23G25G 3G31G 1
   -964248.72849   -746777.89047  20951641.7474   20951641.1634   20951645.5554
   2451150.50546   1900582.31444  25173990.7004   25173993.7214   25174006.9414
    769549.79548    597283.30146  23385508.7034   23385508.3934   23385511.7164
  -5865380.46947  -4548082.82345  24518116.9344   24518116.2524   24518121.6364
   1263550.81048    981467.29946  22592460.4934   22592460.5254   22592466.3024
  -1055655.81348   -816377.96846  22181320.3794   22181320.3894   22181325.5654
  -2451180.52649  -1731712.58147  20285219.5454   20285219.0764   20285223.6244
 97  6 10  3  3 25.0000000  0  7G21G17G23G25G 3G31G 1
   -964880.05149   -747269.83247  20951521.6264   20951521.0814   20951525.6074
   2453224.82246   1902198.66245  25174385.5404   25174388.1504   25174400.6004
    770224.36348    597808.94546  23385637.0564   23385636.5854   23385639.7804
  -5870187.34147  -4551828.43345  24517202.1584   24517201.6414   24517206.8954
   1264805.80448    982445.21546  22592699.2484   22592699.7484   22592704.7584
  -1056124.86948   -816743.46646  22181231.0644   22181231.1564   22181235.8044
  -2452802.31549  -1732976.31147  20284910.9694   20284910.2904   20284915.1294
 97  6 10  3  3 26.0000000  0  7G21G17G23G25G 3G31G 1
   -965511.80649   -747762.11147  20951401.4544   20951400.9874   20951405.1784
   2455298.61646   1903814.60544  25174780.4864   25174783.8734   25174794.8434
    770898.36848    598334.14446  23385765.2564   23385765.1774   23385768.5104
  -5874994.92847  -4555574.60545  24516287.2224   24516286.9424   24516291.6444
   1266060.45348    983422.86746  22592937.9574   22592938.4884   22592942.5054
  -1056594.02448   -817109.04046  22181141.7564   22181141.3444   22181146.4134
  -2454424.22349  -1734240.13547  20284602.3694   20284601.8194   20284606.2354
 97  6 10  3  3 27.0000000  0  7G21G17G23G25G 3G31G 1
   -966143.66449   -748254.46547  20951281.2144   20951280.5884   20951284.9324
   2457372.18446   1905430.36644  25175175.1574   25175177.0214   25175187.3264
    771572.13148    598859.15646  23385893.3444   23385892.7074   23385896.1824
  -5879802.89347  -4559321.06645  24515372.2234   24515371.9214   24515376.6884
   1267315.11148    984400.52346  22593176.6644   22593177.0294   22593181.4714
  -1057062.92348   -817474.42246  22181052.4864   22181052.0254   22181056.9574
  -2456045.89749  -1735503.77647  20284293.7994   20284293.2504   20284297.7364
 97  6 10  3  3 28.0000000  0  7G21G17G23G25G 3G31G 1
   -966775.70649   -748746.96647  20951160.9664   20951160.3534   20951164.6824
   2459445.41346   1907045.86244  25175569.6844   25175571.3204   25175581.7714
    772245.55048    599383.89546  23386021.3754   23386020.9314   23386024.3944
  -5884611.33747  -4563067.90545  24514457.0884   24514456.6864   24514462.3004
   1268569.66048    985378.09546  22593415.3594   22593415.0184   22593420.4164
  -1057531.70248   -817839.70246  22180963.2244   22180962.5254   22180967.7834
  -2457667.47449  -1736767.34447  20283985.2074   20283984.6064   20283989.0904
 97  6 10  3  3 29.0000000  0  7G21G17G23G25G 3G31G 1
   -967407.31649   -749239.12847  20951040.8124   20951040.3104   20951044.6184
   2461518.92146   1908661.58044  25175964.2864   25175967.1994   25175976.5474
    772919.25048    599908.85846  23386149.5114   23386149.0044   23386152.7764
  -5889419.62447  -4566814.61545  24513542.0804   24513542.0744   24513547.2604
   1269824.73248    986356.07346  22593654.1744   22593654.3154   22593659.0674
  -1057999.70048   -818204.37546  22180874.1024   22180873.7144   22180879.1264
  -2459288.28949  -1738030.31447  20283676.7484   20283676.0364   20283680.8754
 97  6 10  3  3 30.0000000  0  7G21G17G23G25G 3G31G 1
   -968038.70849   -749731.11947  20950920.6544   20950919.9984   20950924.4694
   2463592.56246   1910277.40044  25176358.9124   25176361.2894   25176371.8724
    773593.02148    600433.87246  23386277.6264   23386277.5994   23386280.7774
  -5894227.98947  -4570561.39145  24512627.0144   24512626.6054   24512632.1104
   1271080.11248    987334.29246  22593893.0854   22593893.1264   22593897.9504
  -1058467.15048   -818568.62346  22180785.0384   22180784.3784   22180789.9394
  -2460908.58249  -1739292.88047  20283368.3794   20283367.7934   20283372.3264
 97  6 10  3  3 31.0000000  0  7G21G17G23G25G 3G31G 1
   -968669.69949   -750222.79947  20950800.5884   20950799.7984   20950804.3144
   2465666.42446   1911893.39245  25176753.4674   25176755.7144   25176766.9154
    774267.02248    600959.06746  23386405.7704   23386404.9874   23386409.0904
  -5899036.24847  -4574308.08545  24511711.9124   24511711.9574   24511717.4164
   1272335.96748    988312.87746  22594132.0634   22594131.8444   22594136.9334
  -1058933.87548   -818932.29846  22180696.1624   22180696.2594   22180701.0234
  -2462528.16549  -1740554.89147  20283060.1364   20283059.7364   20283064.0884
 97  6 10  3  3 32.0000000  0  7G21G17G23G25G 3G31G 1
   -969300.01849   -750713.95847  20950680.6564   20950679.7684   20950684.5504
   2467740.81746   1913509.79845  25177148.1894   25177150.5004   25177161.5894
    774941.53148    601484.65246  23386533.9484   23386533.1554   23386537.5444
  -5903844.11947  -4578054.47545  24510796.9404   24510797.5294   24510802.2634
   1273592.57948    989292.05346  22594371.1804   22594370.2714   22594376.7674
  -1059399.57348   -819295.18146  22180607.4684   22180608.2124   22180612.7634
  -2464146.77249  -1741816.14447  20282752.0694   20282751.5814   20282756.1374
 97  6 10  3  3 33.0000000  0  7G21G17G23G25G 3G31G 1
   -969929.97949   -751204.83547  20950560.7734   20950560.0244   20950564.7224
   2469815.42246   1915126.37145  25177542.9104   25177544.9774   25177555.6334
    775616.22248    602010.38146  23386662.2594   23386661.7694   23386666.4574
  -5908651.92447  -4581800.81245  24509881.9064   24509881.8294   24509886.8844
   1274849.61948    990271.56946  22594610.4084   22594610.0454   22594615.5784
  -1059864.59948   -819657.54046  22180518.9884   22180518.8584   22180524.0544
  -2465764.72549  -1743076.88647  20282444.1504   20282443.8274   20282448.3794
 97  6 10  3  3 34.0000000  0  7G21G17G23G25G 3G31G 1
   -970559.07349   -751695.03747  20950441.0394   20950440.1944   20950444.8834
   2471890.75546   1916743.51445  25177937.8444   25177940.5094   25177951.3494
    776291.62648    602536.66746  23386790.7964   23386790.5734   23386795.0854
  -5913459.14847  -4585546.69745  24508967.0164   24508966.9904   24508971.8274
   1276107.61648    991251.82446  22594849.8164   22594849.7764   22594855.6314
  -1060328.42348   -820018.95946  22180430.7474   22180430.3214   22180435.5464
  -2467381.49949  -1744336.71047  20282136.4764   20282136.2104   20282140.6254
 97  6 10  3  3 35.0000000  0  7G21G17G23G25G 3G31G 1
   -971187.91349   -752185.04547  20950321.3744   20950320.5124   20950325.1434
   2473966.19846   1918360.74145  25178332.7254   25178335.2504   25178346.7634
    776967.13848    603063.04546  23386919.2844   23386919.4044   23386923.2414
  -5918266.39947  -4589292.60645  24508052.1514   24508051.6344   24508057.2214
   1277365.95148    992232.34746  22595089.2664   22595089.3184   22595094.7244
  -1060791.66548   -820379.93246  22180342.6624   22180342.2874   22180347.4644
  -2468997.70449  -1745596.09347  20281828.9244   20281828.6134   20281833.1704
 97  6 10  3  3 36.0000000  0  7G21G17G23G25G 3G31G 1
   -971816.81249   -752675.09647  20950201.6564   20950200.7504   20950205.4434
   2476041.44246   1919977.80845  25178727.5984   25178730.0354   25178740.7514
    777642.45948    603589.27646  23387047.7224   23387048.4894   23387051.0504
  -5923073.98347  -4593038.77245  24507137.2454   24507136.7024   24507142.0274
   1278624.34548    993212.91446  22595328.7334   22595328.9744   22595333.8144
  -1061254.59448   -820740.65946  22180254.6674   22180254.4234   22180259.3584
  -2470613.62849  -1746855.25447  20281521.4434   20281521.1624   20281525.4614
 97  6 10  3  3 37.0000000  0  7G21G17G23G25G 3G31G 1
   -972445.91049   -753165.30447  20950081.9244   20950081.0624   20950085.7464
   2478116.40546   1921594.65945  25179122.5944   25179124.7704   25179135.6144
    778317.44948    604115.24146  23387176.1224   23387175.7844   23387179.3944
  -5927882.05547  -4596785.32145  24506222.2334   24506221.8124   24506227.1304
   1279882.63548    994193.39246  22595568.2504   22595568.2234   22595573.6964
  -1061717.39848   -821101.28146  22180166.6544   22180166.4114   22180171.2514
  -2472229.43949  -1748114.32947  20281213.9844   20281213.5904   20281217.9884
 97  6 10  3  3 38.0000000  0  7G21G17G23G25G 3G31G 1
   -973075.26049   -753655.70547  20949962.1304   20949961.2634   20949965.9334
   2480190.95146   1923211.18645  25179517.4524   25179519.0724   25179530.0954
    778992.02448    604640.87946  23387304.5164   23387303.6284   23387308.4744
  -5932690.66347  -4600532.29045  24505307.1634   24505307.3604   24505311.9214
   1281140.75748    995173.74246  22595807.6784   22595807.9084   22595812.5414
  -1062180.10248   -821461.83446  22180078.6814   22180078.8904   22180083.1724
  -2473845.17949  -1749373.34447  20280906.5404   20280906.2874   20280910.6004
 97  6 10  3  3 39.0000000  0  7G21G17G23G25G 3G31G 1
   -973704.58549   -754146.08847  20949842.3534   20949841.3524   20949846.2454
   2482265.41146   1924827.64645  25179912.4494   25179914.2264   25179925.2134
    779666.47848    605166.42346  23387432.9664   23387432.8304   23387436.8284
  -5937499.53347  -4604279.45845  24504391.9624   24504392.4684   24504396.9334
   1282399.00248    996154.19746  22596047.1314   22596047.7444   22596052.5744
  -1062642.43848   -821822.09346  22179990.7504   22179990.5144   22179995.4564
  -2475460.57049  -1750632.09147  20280599.1584   20280598.6804   20280603.1564
 97  6 10  3  3 40.0000000  0  7G21G17G23G25G 3G31G 1
   -974333.85149   -754636.42447  20949722.5714   20949721.8064   20949726.5494
   2484339.81146   1926444.05845  25180307.4024   25180309.1824   25180320.9744
    780340.85448    605691.91046  23387561.3864   23387561.7044   23387565.0094
  -5942308.61047  -4608026.78745  24503476.8234   24503477.9454   24503481.8344
   1283657.40548    997134.77446  22596286.6084   22596286.5994   22596292.2724
  -1063104.38448   -822182.05446  22179902.9274   22179902.5924   22179907.6924
  -2477075.55649  -1751890.52047  20280291.8174   20280291.4164   20280295.9374
 97  6 10  3  3 41.0000000  0  7G21G17G23G25G 3G31G 1
   -974962.81149   -755126.52247  20949602.7944   20949602.0664   20949606.9174
   2486414.42446   1928060.63845  25180702.3504   25180703.8954   25180715.8974
    781015.39248    606217.51746  23387689.9044   23387690.5744   23387694.1484
  -5947117.66947  -4611774.10445  24502561.7654   24502561.9104   24502566.3294
   1284916.21148    998115.65946  22596526.1904   22596525.8364   22596531.5824
  -1063565.67448   -822541.50146  22179815.2244   22179814.7264   22179820.1614
  -2478689.92849  -1753148.47347  20279984.6434   20279984.1694   20279988.8064
 97  6 10  3  3 42.0000000  0  7G21G17G23G25G 3G31G 1
   -975591.68049   -755616.55147  20949483.0504   20949482.4254   20949487.2544
   2488489.00546   1929677.19045  25181097.2094   25181098.7294   25181110.6434
    781689.89948    606743.10146  23387818.4064   23387819.2374   23387822.4484
  -5951926.91647  -4615521.56345  24501646.6654   24501646.4824   24501651.2354
   1286175.20548    999096.69346  22596765.7814   22596764.8284   22596770.7424
  -1064026.52048   -822900.60146  22179727.5404   22179726.8854   22179732.4114
  -2480303.86249  -1754406.08547  20279677.5334   20279677.0904   20279681.7964
 97  6 10  3  3 43.0000000  0  7G21G17G23G25G 3G31G 1
   -976219.93249   -756106.09847  20949363.4414   20949362.7814   20949367.7464
   2490564.09346   1931294.13845  25181491.8754   25181494.1204   25181505.6584
    782364.89048    607269.07146  23387947.0304   23387948.2704   23387950.5524
  -5956735.84247  -4619268.77745  24500731.6194   24500731.5904   24500736.0884
   1287434.91248   1000078.27746  22597005.4854   22597005.1764   22597010.2564
  -1064486.43248   -823258.96946  22179640.0124   22179639.4164   22179644.2634
  -2481916.84949  -1755662.95847  20279370.5984   20279370.2694   20279374.7514
 97  6 10  3  3 44.0000000  0  7G21G17G23G25G 3G31G 1
   -976847.51549   -756595.12447  20949243.9204   20949243.4244   20949248.2424
   2492639.71746   1932911.50645  25181886.7474   25181888.6524   25181900.6394
    783040.41648    607795.46246  23388075.8374   23388076.9464   23388079.2074
  -5961544.37147  -4623015.68145  24499816.6094   24499816.7834   24499821.0414
   1288695.37648   1001060.45446  22597245.3524   22597245.1574   22597251.0864
  -1064945.32548   -823616.55446  22179552.6844   22179552.2634   22179557.2144
  -2483528.83049  -1756919.04647  20279063.9184   20279063.5594   20279067.9264
 97  6 10  3  3 45.0000000  0  7G21G17G23G25G 3G31G 1
   -977474.39949   -757083.60447  20949124.5154   20949124.0334   20949128.7804
   2494715.96446   1934529.35945  25182281.7814   25182284.0484   25182295.9794
    783716.49748    608322.28046  23388204.7454   23388205.9734   23388208.4614
  -5966352.48547  -4626762.26245  24498901.7474   24498901.5184   24498906.5584
   1289956.62848   1002043.25046  22597485.3544   22597485.1514   22597490.9454
  -1065403.18448   -823973.32746  22179465.5934   22179464.8534   22179470.2514
  -2485139.76949  -1758174.32447  20278757.4174   20278756.9734   20278761.2494
 97  6 10  3  3 46.0000000  0  7G21G17G23G25G 3G31G 1
   -978101.04549   -757571.90247  20949005.1904   20949004.8474   20949009.5484
   2496792.32346   1936147.30045  25182677.0364   25182680.0464   25182690.7544
    784392.68848    608849.17846  23388333.5994   23388334.4104   23388337.2674
  -5971160.65047  -4630508.88245  24497986.8944   24497986.6164   24497991.6814
   1291218.20848   1003026.29546  22597725.4334   22597725.0334   22597730.7584
  -1065860.48848   -824329.66646  22179378.6084   22179378.5054   22179382.5084
  -2486750.13349  -1759429.15347  20278451.0504   20278450.4014   20278454.8314
 97  6 10  3  3 47.0000000  0  7G21G17G23G25G 3G31G 1
   -978727.56349   -758060.09947  20948885.9164   20948885.6934   20948890.2994
   2498868.66846   1937765.23145  25183072.0364   25183075.0614   25183085.6134
    785068.85748    609376.06346  23388462.4204   23388462.5164   23388465.7204
  -5975968.98547  -4634255.63045  24497071.9814   24497071.2114   24497076.1474
   1292479.98948   1004009.49946  22597965.5614   22597965.5334   22597969.9444
  -1066317.34848   -824685.66046  22179291.6834   22179291.7994   22179295.9394
  -2488360.04049  -1760683.62647  20278144.7194   20278144.0714   20278148.4954
 97  6 10  3  3 48.0000000  0  7G21G17G23G25G 3G31G 1
   -979354.29249   -758548.46047  20948766.5924   20948766.3564   20948771.2864
   2500944.67346   1939382.89445  25183467.0434   25183470.0714   25183480.6614
    785744.66248    609902.66446  23388591.1304   23388590.6544   23388595.1364
  -5980777.83247  -4638002.78545  24496156.9714   24496156.1014   24496161.2674
   1293741.62248   1004992.58846  22598205.6434   22598205.6944   22598210.4094
  -1066774.09648   -825041.57146  22179204.7554   22179204.4244   22179209.2174
  -2489969.82049  -1761938.00147  20277838.4034   20277838.0574   20277842.1644
 97  6 10  3  3 49.0000000  0  7G21G17G23G25G 3G31G 1
   -979981.18149   -759036.94347  20948647.2844   20948647.0614   20948651.9714
   2503020.41646   1941000.35445  25183862.2094   25183866.6194   25183875.7644
    786420.18948    610429.04646  23388719.7504   23388719.3964   23388724.0254
  -5985587.12647  -4641750.28345  24495241.8574   24495241.0464   24495246.1584
   1295003.17448   1005975.61446  22598445.7024   22598445.2444   22598450.7004
  -1067230.69948   -825397.37446  22179117.8874   22179117.4944   22179122.2804
  -2491579.42149  -1763192.23647  20277532.1434   20277531.6674   20277535.8524
 97  6 10  3  3 50.0000000  0  7G21G17G23G25G 3G31G 1
   -980608.00249   -759525.37547  20948527.9614   20948527.6994   20948532.6034
   2505096.09346   1942617.76345  25184257.2954   25184261.3984   25184271.1154
    787095.61448    610955.35346  23388848.4154   23388847.4014   23388852.1104
  -5990396.66747  -4645497.97345  24494326.6834   24494325.7634   24494331.1924
   1296264.85748   1006958.74146  22598685.8534   22598685.6624   22598690.6374
  -1067686.90648   -825752.86346  22179031.0604   22179030.9384   22179035.5734
  -2493188.63149  -1764446.16547  20277225.9624   20277225.5084   20277229.6494
 97  6 10  3  3 51.0000000  0  7G21G17G23G25G 3G31G 1
   -981234.47549   -760013.53547  20948408.7024   20948408.5024   20948413.7144
   2507171.96846   1944235.32745  25184652.0854   25184656.5014   25184666.6464
    787771.25148    611481.82246  23388977.1424   23388976.0484   23388980.3084
  -5995206.15347  -4649245.62345  24493411.5674   24493410.8704   24493415.9644
   1297526.96448   1007942.19846  22598926.0904   22598926.3884   22598930.8944
  -1068142.41348   -826107.80646  22178944.3544   22178944.2674   22178948.9974
  -2494797.16249  -1765699.56547  20276919.8974   20276919.1524   20276923.5014
 97  6 10  3  3 52.0000000  0  7G21G17G23G25G 3G31G 1
   -981860.54049   -760501.37947  20948289.4834   20948289.3804   20948294.4064
   2509248.12446   1945853.11045  25185047.0314   25185051.0384   25185061.2814
    788447.13348    612008.48346  23389105.8614   23389105.2934   23389108.8104
  -6000015.54247  -4652993.19545  24492496.4214   24492495.5854   24492500.6604
   1298789.53448   1008926.02146  22599166.3764   22599166.6734   22599171.8994
  -1068597.21648   -826462.19646  22178857.8324   22178857.7054   22178862.3284
  -2496404.95449  -1766952.39147  20276613.9714   20276613.1694   20276617.4204
 97  6 10  3  3 53.0000000  0  7G21G17G23G25G 3G31G 1
   -982486.44049   -760989.09547  20948170.3294   20948170.3534   20948175.1314
   2511324.36046   1947470.95245  25185442.3954   25185446.3034   25185457.6164
    789123.03348    612535.15446  23389234.5344   23389233.7214   23389237.6954
  -6004825.06547  -4656740.86945  24491581.2044   24491580.3874   24491585.6524
   1300052.35048   1009910.03146  22599406.6884   22599406.9824   22599412.2394
  -1069051.52148   -826816.20046  22178771.3514   22178770.5464   22178775.3564
  -2498012.25149  -1768204.83147  20276308.1304   20276307.2724   20276311.6334
 97  6 10  3  3 54.0000000  0  7G21G17G23G25G 3G31G 1
   -983112.07649   -761476.60347  20948051.2434   20948051.1544   20948056.1804
   2513400.73546   1949088.90645  25185837.5914   25185840.6394   25185852.4694
    789799.04548    613061.91846  23389363.2144   23389362.3154   23389366.4414
  -6009634.61847  -4660488.56945  24490665.9654   24490664.8224   24490670.8894
   1301315.51348   1010894.31146  22599647.1154   22599646.8304   22599651.8734
  -1069505.24348   -827169.75446  22178684.9894   22178684.4574   22178689.2064
  -2499618.94949  -1769456.80247  20276002.4014   20276001.6234   20276005.9644
 97  6 10  3  3 55.0000000  0  7G21G17G23G25G 3G31G 1
   -983736.76349   -761963.37447  20947932.3404   20947932.3494   20947937.2624
   2515477.94746   1950707.51445  25186232.9554   25186236.4334   25186247.4714
    790475.86648    613589.31546  23389492.0404   23389491.1574   23389495.8624
  -6014443.51247  -4664235.75145  24489750.9054   24489749.9714   24489755.1214
   1302579.67248   1011879.36446  22599887.7084   22599887.1054   22599892.2964
  -1069957.71648   -827522.32946  22178598.8524   22178598.7314   22178603.0424
  -2501224.34849  -1770707.76247  20275696.9134   20275696.3044   20275700.5574
 97  6 10  3  3 56.0000000  0  7G21G17G23G25G 3G31G 1
   -984360.81849   -762449.64947  20947813.5784   20947813.5324   20947818.4544
   2517555.64746   1952326.49645  25186628.3534   25186631.5964   25186642.7214
    791153.15148    614117.06446  23389620.9554   23389619.5264   23389624.2034
  -6019252.05447  -4667982.66745  24488835.7804   24488834.9724   24488839.8914
   1303844.55348   1012864.98546  22600128.3774   22600128.4344   22600133.6154
  -1070409.22848   -827874.15746  22178512.9074   22178513.1554   22178517.2454
  -2502828.79249  -1771957.97747  20275391.5724   20275390.9364   20275395.0644
 97  6 10  3  3 57.0000000  0  7G21G17G23G25G 3G31G 1
   -984984.81149   -762935.88047  20947694.8544   20947695.0004   20947699.9534
   2519633.34246   1953945.47645  25187023.6854   25187026.2584   25187038.7024
    791830.37348    614644.77046  23389749.7594   23389748.5384   23389752.5984
  -6024060.82347  -4671729.75845  24487920.6734   24487920.5604   24487925.3274
   1305109.57348   1013850.71346  22600369.1414   22600369.0254   22600374.5174
  -1070860.33748   -828225.67446  22178427.1304   22178426.8214   22178431.5724
  -2504432.83449  -1773207.88047  20275086.3264   20275085.7134   20275090.0174
 97  6 10  3  3 58.0000000  0  7G21G17G23G25G 3G31G 1
   -985608.56749   -763421.92347  20947576.1434   20947576.2154   20947581.1224
   2521711.14346   1955564.53945  25187419.0534   25187421.3844   25187433.9184
    792507.66248    615172.52846  23389878.5374   23389876.6594   23389880.9684
  -6028869.66047  -4675476.90045  24487005.5804   24487005.4604   24487010.6964
   1306374.89948   1014836.67446  22600609.9814   22600609.8124   22600614.8484
  -1071310.90548   -828576.76946  22178341.4324   22178341.1324   22178345.5294
  -2506036.30849  -1774457.34147  20274781.1684   20274780.7914   20274784.7154
 97  6 10  3  3 59.0000000  0  7G21G17G23G25G 3G31G 1
   -986232.71649   -763908.27347  20947457.3474   20947457.4034   20947462.3184
   2523788.43246   1957183.20645  25187814.4164   25187817.0354   25187830.2834
    793184.40448    615699.85346  23390007.1814   23390005.6014   23390010.1734
  -6033679.16647  -4679224.56445  24486090.3074   24486089.7434   24486095.0144
   1307639.90948   1015822.39346  22600850.7804   22600851.1724   22600855.9074
  -1071761.55048   -828927.92446  22178255.7174   22178255.5844   22178259.7744
  -2507639.84249  -1775706.84947  20274476.0294   20274475.3094   20274479.5234
 97  6 10  3  4  0.0000000  0  7G21G17G23G25G 3G31G 1
   -986856.83549   -764394.60047  20947338.6254   20947338.7554   20947343.2814
   2525865.65846   1958801.82145  25188209.8764   25188212.8014   25188225.2754
    793861.02848    616227.09446  23390135.8314   23390134.8164   23390138.0604
  -6038488.92647  -4682972.42145  24485175.0604   24485174.7854   24485179.4464
   1308905.03748   1016808.20746  22601091.6054   22601091.8084   22601096.3014
  -1072211.82948   -829278.79046  22178170.0754   22178169.5984   22178173.9044
  -2509243.00349  -1776956.06847  20274170.9404   20274170.4514   20274174.4654
 97  6 10  3  4  1.0000000  0  7G21G17G23G25G 3G31G 1
   -987480.95849   -764880.92947  20947219.9184   20947219.9644   20947224.7314
   2527942.78546   1960420.36145  25188605.3404   25188608.5114   25188620.3494
    794537.47848    616754.19846  23390264.4384   23390263.9914   23390267.5364
  -6043298.99747  -4686720.52445  24484259.7424   24484258.9924   24484263.6374
   1310170.23248   1017794.08146  22601332.4344   22601332.2594   22601336.2594
  -1072661.81448   -829629.42546  22178084.5574   22178083.8994   22178088.1824
  -2510845.83549  -1778205.02747  20273865.9314   20273865.3684   20273869.5714
 97  6 10  3  4  2.0000000  0  7G21G17G23G25G 3G31G 1
   -988104.69349   -765366.95547  20947101.2584   20947101.1824   20947106.2114
   2530020.15646   1962039.08845  25189000.7974   25189003.9184   25189015.0334
    795214.15648    617281.47946  23390393.0884   23390392.3424   23390395.9934
  -6048108.96847  -4690468.55245  24483344.4244   24483343.4894   24483348.5904
   1311435.90448   1018780.31646  22601573.3624   22601573.1504   22601577.4604
  -1073111.08948   -829979.51846  22177999.2164   22177998.3434   22178002.8654
  -2512447.94349  -1779453.42247  20273561.0714   20273560.6514   20273564.7594
 97  6 10  3  4  3.0000000  0  7G21G17G23G25G 3G31G 1
   -988728.27849   -765852.86347  20946982.6414   20946982.4154   20946987.5014
   2532097.62446   1963657.89245  25189396.2364   25189399.3904   25189409.4504
    795890.83548    617808.75746  23390521.6984   23390521.0284   23390524.8364
  -6052919.07347  -4694216.68445  24482429.0674   24482428.4944   24482433.3424
   1312701.81748   1019766.74346  22601814.3644   22601813.8574   22601818.8414
  -1073559.88048   -830329.22246  22177913.9684   22177913.3204   22177918.1264
  -2514049.55749  -1780701.43247  20273256.3254   20273255.8434   20273259.8944
 97  6 10  3  4  4.0000000  0  7G21G17G23G25G 3G31G 1
   -989351.61149   -766338.57747  20946864.0664   20946863.9364   20946868.7444
   2534175.21646   1965276.79145  25189791.8354   25189794.3424   25189804.8944
    796567.59048    618336.09546  23390650.3334   23390649.9774   23390654.1844
  -6057729.21947  -4697964.84745  24481513.7274   24481513.2934   24481517.4154
   1313968.08648   1020753.44146  22602055.4164   22602054.1334   22602059.6944
  -1074008.12348   -830678.49946  22177828.7654   22177828.4654   22177832.6854
  -2515650.57449  -1781948.97747  20272951.7034   20272950.9524   20272955.1694
 97  6 10  3  4  5.0000000  0  7G21G17G23G25G 3G31G 1
   -989974.29149   -766823.78347  20946745.6144   20946745.3934   20946750.3004
   2536253.38446   1966896.14045  25190187.4804   25190189.5464   25190200.4374
    797244.83348    618863.81646  23390779.1724   23390779.6014   23390783.6704
  -6062539.02147  -4701712.74245  24480598.4204   24480597.2754   24480601.9234
   1315235.08648   1021740.71246  22602296.5814   22602295.8114   22602301.1674
  -1074455.40448   -831027.02946  22177743.7274   22177743.1054   22177747.5434
  -2517250.61149  -1783195.75847  20272647.2434   20272646.5544   20272650.7684
 97  6 10  3  4  6.0000000  0  7G21G17G23G25G 3G31G 1
   -990596.34749   -767308.50247  20946627.2874   20946627.0454   20946631.8744
   2538332.06446   1968515.88645  25190582.9454   25190584.7644   25190595.6674
    797922.53248    619391.89446  23390908.1694   23390909.2604   23390911.8754
  -6067348.46747  -4705460.36045  24479683.2124   24479681.9024   24479686.9384
   1316502.80848   1022728.54346  22602537.8064   22602537.1814   22602542.1894
  -1074901.75148   -831374.83446  22177658.8414   22177658.2844   22177661.9244
  -2518849.68849  -1784441.79147  20272342.9434   20272342.1654   20272346.4344
 97  6 10  3  4  7.0000000  0  7G21G17G23G25G 3G31G 1
   -991218.12949   -767793.00747  20946508.9914   20946508.6474   20946513.4964
   2540410.94746   1970135.79245  25190978.7154   25190980.0484   25190991.6364
    798600.36148    619920.06946  23391037.2264   23391038.2724   23391040.2934
  -6072157.91047  -4709207.97745  24478768.0164   24478766.4954   24478772.0024
   1317770.91448   1023716.67346  22602779.0414   22602778.4684   22602783.2334
  -1075347.53748   -831722.19646  22177574.0304   22177573.4424   22177577.3294
  -2520448.12449  -1785687.32747  20272038.7674   20272038.1854   20272042.1954
 97  6 10  3  4  8.0000000  0  7G21G17G23G25G 3G31G 1
   -991839.76549   -768277.39847  20946390.7234   20946390.3384   20946395.2084
   2542489.86146   1971755.72245  25191373.9364   25191375.8514   25191387.1214
    799278.17048    620448.23446  23391166.3194   23391167.3974   23391169.4974
  -6076967.50947  -4712955.71545  24477852.8774   24477851.3524   24477857.0524
   1319039.23048   1024704.97346  22603020.3444   22603019.9844   22603024.4814
  -1075792.85448   -832069.19946  22177489.2754   22177488.5194   22177492.5034
  -2522046.10149  -1786932.50547  20271734.6584   20271734.0164   20271738.0614
 97  6 10  3  4  9.0000000  0  7G21G17G23G25G 3G31G 1
   -992461.46349   -768761.83847  20946272.4704   20946272.0654   20946276.9344
   2544568.59746   1973375.51445  25191769.3774   25191771.3404   25191781.3604
    799955.77448    620976.24046  23391295.4024   23391296.2404   23391298.8964
  -6081777.45747  -4716703.72545  24476937.6204   24476936.2364   24476941.7884
   1320307.59148   1025693.30646  22603261.6484   22603261.1474   22603265.5984
  -1076237.91548   -832416.00646  22177404.4924   22177403.5824   22177408.4724
  -2523643.78749  -1788177.45747  20271430.5734   20271429.9654   20271433.9814
 97  6 10  3  4 10.0000000  0  7G21G17G23G25G 3G31G 1
   -993083.27749   -769246.36947  20946154.2144   20946153.9414   20946158.7494
   2546647.18246   1974995.18845  25192165.0174   25192166.7354   25192176.5274
    800633.11548    621504.03646  23391424.3984   23391424.6564   23391428.3404
  -6086587.79147  -4720452.03645  24476022.2064   24476021.0674   24476026.8514
   1321575.94548   1026681.62846  22603502.9454   22603502.2664   22603507.7914
  -1076682.77548   -832762.64646  22177319.7274   22177318.8304   22177323.5684
  -2525241.24749  -1789422.23047  20271126.5484   20271125.9154   20271130.1074
 97  6 10  3  4 11.0000000  0  7G21G17G23G25G 3G31G 1
   -993705.11449   -769730.91847  20946035.9214   20946035.6214   20946040.3874
   2548725.61946   1976614.74845  25192560.4494   25192561.2324   25192571.9054
    801310.29448    622031.71446  23391553.3104   23391553.5894   23391557.5894
  -6091398.44047  -4724200.59045  24475106.7774   24475105.6284   24475111.8714
   1322844.37748   1027670.02246  22603744.3354   22603743.9664   22603749.2734
  -1077127.32848   -833109.05246  22177235.0554   22177234.4784   22177238.5094
  -2526838.38649  -1790666.75247  20270822.5654   20270822.1854   20270826.0824
 97  6 10  3  4 12.0000000  0  7G21G17G23G25G 3G31G 1
   -994326.96049   -770215.47247  20945917.6514   20945917.2804   20945922.1014
   2550803.96646   1978234.24045  25192956.0134   25192957.3334   25192968.0694
    801987.32148    622559.27046  23391682.1784   23391682.1094   23391686.0794
  -6096209.37447  -4727949.37045  24474191.3254   24474190.2014   24474196.6954
   1324112.88648   1028658.47046  22603985.6614   22603985.4494   22603990.4144
  -1077571.59148   -833455.22946  22177150.4034   22177149.7464   22177154.1824
  -2528435.20449  -1791911.02647  20270518.6374   20270518.1614   20270522.3424
 97  6 10  3  4 13.0000000  0  7G21G17G23G25G 3G31G 1
   -994948.20649   -770699.56147  20945799.5244   20945798.8754   20945803.7144
   2552882.88146   1979854.17245  25193351.6494   25193352.8064   25193363.3094
    802664.81548    623087.18346  23391811.1174   23391811.2354   23391815.4774
  -6101020.00047  -4731697.90445  24473275.9284   24473274.7974   24473280.5244
   1325382.10848   1029647.46546  22604227.1804   22604226.4014   22604232.0114
  -1078014.95248   -833800.70946  22177065.9004   22177065.8014   22177069.4594
  -2530031.06949  -1793154.55947  20270214.9184   20270214.4914   20270218.7864
 97  6 10  3  4 14.0000000  0  7G21G17G23G25G 3G31G 1
   -995569.37849   -771183.59147  20945681.3894   20945680.6394   20945685.5274
   2554961.71946   1981474.04545  25193747.3304   25193748.2994   25193759.1334
    803342.22748    623615.02846  23391940.0644   23391939.8944   23391944.4804
  -6105830.83047  -4735446.59945  24472360.4934   24472359.5564   24472365.4464
   1326651.48348   1030636.58646  22604468.7484   22604467.8644   22604472.8234
  -1078457.91148   -834145.87046  22176981.4344   22176981.2364   22176985.4834
  -2531626.53549  -1794397.78147  20269911.3064   20269911.0734   20269915.1584
 97  6 10  3  4 15.0000000  0  7G21G17G23G25G 3G31G 1
   -996190.15649   -771667.31447  20945563.2794   20945562.4644   20945567.5744
   2557040.86646   1983094.15645  25194142.9634   25194144.4434   25194155.3874
    804019.90948    624143.09546  23392069.0694   23392068.4344   23392073.4424
  -6110641.54947  -4739195.20445  24471444.9914   24471444.3194   24471449.8594
   1327921.34948   1031626.09746  22604710.3614   22604709.4064   22604714.5974
  -1078900.16548   -834490.48246  22176897.1314   22176896.6684   22176902.0724
  -2533221.26949  -1795640.42747  20269607.8524   20269607.5234   20269611.4684
 97  6 10  3  4 16.0000000  0  7G21G17G23G25G 3G31G 1
   -996810.30749   -772150.54747  20945445.2944   20945444.3934   20945449.5134
   2559120.61046   1984714.72945  25194538.6644   25194539.6664   25194551.7844
    804698.07048    624671.53246  23392198.1844   23392198.1574   23392202.5024
  -6115451.91547  -4742943.53845  24470529.6224   24470528.8884   24470534.6514
   1329191.93948   1032616.16646  22604952.1114   22604951.6894   22604956.6304
  -1079341.50248   -834834.38246  22176813.0714   22176813.6304   22176818.0504
  -2534815.02449  -1796882.31447  20269304.5864   20269304.0424   20269308.1464
 97  6 10  3  4 17.0000000  0  7G21G17G23G25G 3G31G 1
   -997429.83149   -772633.29247  20945327.4614   20945326.7884   20945331.7314
   2561200.86446   1986335.70145  25194934.5894   25194936.8464   25194947.8264
    805376.72848    625200.35646  23392327.3944   23392327.3944   23392331.9294
  -6120261.92647  -4746691.59445  24469614.2274   24469613.5844   24469619.6274
   1330463.25248   1033606.79446  22605194.0174   22605193.9234   22605198.6324
  -1079781.88848   -835177.54446  22176729.1934   22176729.6414   22176733.3934
  -2536407.80949  -1798123.44447  20269001.5044   20269000.8734   20269005.0984
 97  6 10  3  4 18.0000000  0  7G21G17G23G25G 3G31G 1
   -998049.05749   -773115.80647  20945209.6874   20945208.7884   20945213.7714
   2563281.31246   1987956.82645  25195330.5914   25195332.9394   25195343.0334
    806055.54748    625729.30646  23392456.6794   23392456.4134   23392460.5404
  -6125071.91547  -4750439.63145  24468698.8514   24468697.8714   24468704.0374
   1331734.94348   1034597.72046  22605435.9554   22605435.4564   22605440.8304
  -1080221.65148   -835520.21946  22176645.4644   22176646.1444   22176650.0424
  -2537999.95549  -1799364.07647  20268698.5904   20268698.0684   20268702.2284
 97  6 10  3  4 19.0000000  0  7G21G17G23G25G 3G31G 1
   -998668.41549   -773598.42247  20945091.8534   20945090.9904   20945095.8654
   2565361.58246   1989577.81345  25195726.3894   25195729.2684   25195739.5914
    806734.08748    626258.03346  23392585.8894   23392585.5174   23392589.6534
  -6129882.32547  -4754187.99645  24467783.2944   24467783.0934   24467788.5644
   1333006.56848   1035588.59446  22605677.9034   22605677.6394   22605682.1154
  -1080661.26448   -835862.77146  22176561.7384   22176562.1744   22176566.5494
  -2539591.91149  -1800604.56247  20268395.7144   20268395.2284   20268399.3394
 97  6 10  3  4 20.0000000  0  7G21G17G23G25G 3G31G 1
   -999288.17949   -774081.35447  20944973.9124   20944973.2024   20944977.9524
   2567441.29046   1991198.35945  25196122.0904   25196124.6394   25196135.1614
    807412.08348    626786.33646  23392714.9154   23392714.8754   23392719.1564
  -6134693.42647  -4757936.91145  24466867.6284   24466867.2264   24466872.9554
   1334277.85948   1036579.21246  22605919.7624   22605919.3214   22605924.3594
  -1081100.95648   -836205.39146  22176478.0874   22176478.5834   22176482.6384
  -2541183.93749  -1801845.10047  20268092.8234   20268092.2144   20268096.1964
 97  6 10  3  4 21.0000000  0  7G21G17G23G25G 3G31G 1
   -999908.19649   -774564.48847  20944855.9144   20944855.0914   20944860.0434
   2569520.68146   1992818.66145  25196517.8214   25196520.5284   25196531.0644
    808089.63848    627314.29946  23392843.7974   23392843.6214   23392847.6664
  -6139505.06547  -4761686.23745  24465951.9094   24465951.2994   24465957.0094
   1335548.96548   1037569.68246  22606161.6194   22606161.5224   22606166.6494
  -1081540.59948   -836547.97246  22176394.4564   22176395.0274   22176398.7694
  -2542775.89349  -1803085.58747  20267789.9114   20267789.4004   20267793.2794
 97  6 10  3  4 22.0000000  0  7G21G17G23G25G 3G31G 1
  -1000528.06749   -775047.50547  20944737.9524   20944737.2354   20944741.8154
   2571600.10046   1994438.98245  25196913.7954   25196916.1044   25196927.0554
    808767.25648    627842.31146  23392972.7664   23392971.6624   23392976.4724
  -6144316.86647  -4765435.69345  24465036.1064   24465035.9994   24465041.2154
   1336820.29548   1038560.32746  22606403.4704   22606403.3644   22606407.5734
  -1081979.80548   -836890.21346  22176310.9354   22176311.6104   22176315.2924
  -2544367.37749  -1804325.70447  20267487.0544   20267486.4524   20267490.6264
 97  6 10  3  4 23.0000000  0  7G21G17G23G25G 3G31G 1
  -1001147.80549   -775530.41447  20944620.0264   20944619.2624   20944623.8304
   2573679.54146   1996059.32545  25197309.6154   25197311.3074   25197322.7714
    809444.86448    628370.32446  23393101.7414   23393100.7114   23393105.1234
  -6149128.80447  -4769185.25045  24464120.2764   24464120.4874   24464125.9684
   1338091.83548   1039551.14146  22606645.3804   22606646.0204   22606649.2584
  -1082418.56148   -837232.09846  22176227.4754   22176228.0534   22176231.8254
  -2545958.39149  -1805565.45347  20267184.2594   20267183.4974   20267187.7634
 97  6 10  3  4 24.0000000  0  7G21G17G23G25G 3G31G 1
  -1001767.20349   -776013.06247  20944502.1684   20944501.4094   20944506.1474
   2575759.20746   1997679.83645  25197705.5734   25197707.0644   25197717.6704
    810122.66048    628898.48146  23393230.8434   23393230.7024   23393233.9234
  -6153940.71047  -4772934.79045  24463204.5834   24463204.4394   24463209.7384
   1339363.77048   1040542.25746  22606887.3024   22606887.3034   22606892.3314
  -1082856.65648   -837573.47246  22176144.0844   22176144.4564   22176148.6574
  -2547548.74549  -1806804.69147  20266881.5904   20266880.9384   20266885.0084
 97  6 10  3  4 25.0000000  0  7G21G17G23G25G 3G31G 1
  -1002386.28649   -776495.46647  20944384.3504   20944383.5304   20944388.4664
   2577839.07546   1999300.50845  25198101.5404   25198102.9034   25198114.1964
    810800.61648    629426.76046  23393359.9624   23393359.1834   23393362.4484
  -6158752.63347  -4776684.33845  24462288.7704   24462289.2124   24462293.9834
   1340636.07748   1041533.66046  22607129.3624   22607129.3064   22607134.2944
  -1083294.16148   -837914.38746  22176060.8374   22176060.8444   22176065.4164
  -2549138.46249  -1808043.43348  20266579.0624   20266578.4284   20266582.6074
 97  6 10  3  4 26.0000000  0  7G21G17G23G25G 3G31G 1
  -1003004.69749   -776977.34647  20944266.6874   20944265.8424   20944270.7184
   2579919.45346   2000921.57945  25198497.6274   25198498.4794   25198510.4034
    811479.08448    629955.43346  23393489.1464   23393488.2044   23393491.4034
  -6163564.18647  -4780433.59745  24461373.0184   24461373.3644   24461378.3484
   1341909.11448   1042525.63146  22607371.5634   22607371.3574   22607376.8214
  -1083730.68648   -838254.53346  22175977.8024   22175977.9234   22175982.1494
  -2550727.18549  -1809281.39847  20266276.7364   20266276.0854   20266280.2044
 97  6 10  3  4 27.0000000  0  7G21G17G23G25G 3G31G 1
  -1003622.60349   -777458.83047  20944149.1024   20944148.2554   20944152.9634
   2582000.24846   2002542.97745  25198893.9074   25198894.6244   25198906.3114
    812157.91848    630484.39546  23393618.4444   23393617.7284   23393620.7904
  -6168375.51547  -4784182.68245  24460457.3854   24460457.3184   24460462.4694
   1343182.73048   1043518.05846  22607613.9104   22607613.7714   22607618.9834
  -1084166.36748   -838594.02546  22175894.9804   22175894.8154   22175898.5334
  -2552315.06249  -1810518.70447  20265974.5834   20265973.9734   20265978.0144
 97  6 10  3  4 28.0000000  0  7G21G17G23G25G 3G31G 1
  -1004239.59049   -777939.59747  20944031.6794   20944030.7994   20944035.6724
   2584081.86746   2004165.01245  25199290.0504   25199290.8944   25199302.5074
    812837.51748    631013.95246  23393747.9054   23393746.8464   23393749.7594
  -6173186.25547  -4787931.30545  24459541.8274   24459542.3974   24459546.9334
   1344457.31948   1044511.24746  22607856.4104   22607856.9254   22607861.3014
  -1084600.84148   -838932.57346  22175812.4064   22175812.4104   22175816.5884
  -2553901.69049  -1811755.03647  20265672.6614   20265672.0004   20265676.1364
 97  6 10  3  4 29.0000000  0  7G21G17G23G25G 3G31G 1
  -1004856.47649   -778420.28947  20943914.2804   20943913.4724   20943918.2754
   2586163.48646   2005787.05145  25199686.3314   25199686.8674   25199698.5244
    813517.05848    631543.47246  23393877.3014   23393876.4004   23393879.5484
  -6177997.18947  -4791680.08545  24458626.1724   24458626.7544   24458631.8534
   1345732.07648   1045504.55746  22608099.0124   22608099.3064   22608103.8734
  -1085034.89148   -839270.80146  22175729.9234   22175729.4744   22175733.7934
  -2555487.87649  -1812991.02847  20265370.7964   20265370.0614   20265374.3704
 97  6 10  3  4 30.0000000  0  7G21G17G23G25G 3G31G 1
  -1005473.32949   -778900.95547  20943796.8814   20943796.0684   20943800.6834
   2588244.99446   2007409.00045  25200082.2534   25200082.7774   25200094.7674
    814196.50248    632072.90846  23394006.6174   23394005.7654   23394009.6244
  -6182808.37447  -4795429.06145  24457710.4894   24457710.7974   24457715.8534
   1347006.94448   1046497.96346  22608341.6714   22608341.6014   22608346.2084
  -1085468.56248   -839608.73046  22175647.5484   22175647.3224   22175651.2254
  -2557073.68249  -1814226.71947  20265069.0304   20265068.2074   20265072.5664
 97  6 10  3  4 30.9990000  0  7G21G17G23G25G 3G31G 1
  -1006089.92949   -779381.42447  20943679.5054   20943678.6484   20943683.4694
   2590323.93046   2009028.94945  25200478.1444   25200478.8634   25200489.5444
    814874.72848    632601.40046  23394135.6924   23394134.5684   23394138.4064
  -6187615.45147  -4799174.83245  24456795.6894   24456795.7264   24456801.5484
   1348280.20248   1047490.11646  22608584.0464   22608583.7484   22608589.9044
  -1085901.88648   -839946.38846  22175565.2454   22175565.1744   22175568.8214
  -2558657.97349  -1815461.23247  20264767.5674   20264766.9654   20264771.2214
 97  6 10  3  4 31.9990000  0  7G21G17G23G25G 3G31G 1
  -1006707.42949   -779862.59047  20943561.9664   20943561.1304   20943565.9064
   2592404.56646   2010650.22445  25200874.0614   25200875.3624   25200885.7144
    815553.20348    633130.08046  23394264.8164   23394263.6694   23394268.2674
  -6192427.92447  -4802924.80845  24455879.8534   24455880.4044   24455886.4954
   1349554.51148   1048483.08146  22608826.6254   22608826.7364   22608831.6934
  -1086335.58848   -840284.33546  22175482.7894   22175482.4434   22175486.0734
  -2560243.81049  -1816696.95047  20264465.8374   20264465.2064   20264469.2494
 97  6 10  3  4 32.9990000  0  7G21G17G23G25G 3G31G 1
  -1007325.21549   -780343.98347  20943444.3564   20943443.6624   20943448.3864
   2594484.80846   2012271.19245  25201269.9714   25201270.5344   25201282.4814
    816231.22848    633658.41646  23394393.9004   23394392.3234   23394397.3614
  -6197241.00347  -4806675.26045  24454963.8804   24454964.5764   24454970.3204
   1350828.57748   1049475.85646  22609069.1274   22609068.3674   22609073.8824
  -1086769.26348   -840622.26546  22175400.3554   22175399.3684   22175403.7894
  -2561829.61549  -1817932.64147  20264164.0904   20264163.3554   20264167.4454
 97  6 10  3  4 33.9990000  0  7G21G17G23G25G 3G31G 1
  -1007942.82349   -780825.23447  20943326.7594   20943326.1724   20943330.8644
   2596565.14346   2013892.22545  25201665.7934   25201666.8684   25201677.8904
    816909.26648    634186.75646  23394522.9724   23394521.1544   23394526.0014
  -6202054.20547  -4810425.80945  24454047.8794   24454048.7504   24454054.2234
   1352102.84148   1050468.78946  22609311.6794   22609311.2494   22609315.9964
  -1087202.47148   -840959.82646  22175317.9624   22175316.8804   22175322.0104
  -2563414.91949  -1819167.94247  20263862.4024   20263861.5644   20263865.8964
 97  6 10  3  4 34.9990000  0  7G21G17G23G25G 3G31G 1
  -1008560.12049   -781306.24647  20943209.2224   20943208.5854   20943213.2174
   2598645.62446   2015513.37745  25202061.7284   25202062.9444   25202073.7034
    817587.45548    634715.21646  23394652.0314   23394650.4654   23394655.2224
  -6206867.43347  -4814176.37345  24453131.8174   24453133.0434   24453138.6154
   1353377.47048   1051462.00546  22609554.3234   22609554.1894   22609559.5074
  -1087635.06848   -841296.91346  22175235.6804   22175235.0754   22175240.1344
  -2564999.60549  -1820402.76247  20263560.8134   20263559.9274   20263564.3284
 97  6 10  3  4 35.9990000  0  7G21G17G23G25G 3G31G 1
  -1009177.10549   -781787.01447  20943091.7564   20943091.2144   20943095.8384
   2600726.28946   2017134.67445  25202457.5884   25202458.5844   25202469.3454
    818265.78948    635243.78746  23394781.0394   23394779.4894   23394784.2164
  -6211680.66947  -4817926.94145  24452215.8174   24452217.5354   24452222.9214
   1354652.44248   1052455.48846  22609797.0374   22609795.8634   22609801.7394
  -1088067.04848   -841633.51746  22175153.4974   22175152.9644   22175156.6214
  -2566583.66849  -1821637.09547  20263259.3274   20263258.5424   20263262.8154
 97  6 10  3  4 36.9990000  0  7G21G17G23G25G 3G31G 1
  -1009793.57349   -782267.37847  20942974.4304   20942973.9814   20942978.5974
   2602807.40646   2018756.32045  25202853.4894   25202854.6384   25202865.8394
    818944.49148    635772.64346  23394909.9774   23394907.9644   23394913.5584
  -6216493.71247  -4821677.35845  24451299.9944   24451301.4184   24451307.0174
   1355927.94748   1053449.38246  22610039.8544   22610039.1624   22610043.8414
  -1088498.21948   -841969.50346  22175071.4684   22175070.4654   22175075.5584
  -2568166.90049  -1822870.78147  20262958.0094   20262957.2064   20262961.5034
 97  6 10  3  4 37.9990000  0  7G21G17G23G25G 3G31G 1
  -1010409.44449   -782747.27847  20942857.1994   20942856.7534   20942861.3994
   2604889.01746   2020378.35045  25203249.7044   25203251.0394   25203262.0234
    819623.62348    636301.83346  23395038.9414   23395036.8094   23395042.8974
  -6221306.48447  -4825427.56345  24450384.0834   24450385.6334   24450391.1534
   1357204.10348   1054443.78646  22610282.7624   22610282.3824   22610286.7544
  -1088928.49748   -842304.79146  22174989.5624   22174988.5624   22174992.9644
  -2569749.22949  -1824103.76547  20262656.8914   20262656.2874   20262660.4304
 97  6 10  3  4 38.9990000  0  7G21G17G23G25G 3G31G 1
  -1011024.68349   -783226.68647  20942740.0864   20942739.6734   20942744.2744
   2606971.13146   2022000.77645  25203645.8994   25203647.3264   25203658.0694
    820303.23048    636831.40146  23395168.0334   23395166.4914   23395172.2624
  -6226118.92247  -4829177.50845  24449468.3524   24449469.6794   24449474.9354
   1358480.92548   1055438.72146  22610525.7934   22610524.9644   22610529.8954
  -1089357.84248   -842639.34246  22174907.7824   22174906.5874   22174911.1224
  -2571330.60149  -1825336.00547  20262355.9504   20262355.4374   20262359.5704
 97  6 10  3  4 39.9990000  0  7G21G17G23G25G 3G31G 1
  -1011639.43949   -783705.71847  20942623.0694   20942622.7144   20942627.3674
   2609053.66246   2023623.52645  25204042.1304   25204043.2854   25204054.7534
    820983.16448    637361.21046  23395297.2284   23395296.1484   23395302.2734
  -6230931.22047  -4832927.34345  24448552.6194   24448553.4554   24448559.4574
   1359758.25648   1056434.04346  22610768.9254   22610768.5524   22610773.2004
  -1089786.44248   -842973.31546  22174826.1414   22174825.6764   22174829.6824
  -2572911.17949  -1826567.62647  20262055.1324   20262054.5474   20262058.6944
 97  6 10  3  4 40.9990000  0  7G21G17G23G25G 3G31G 1
  -1012254.02849   -784184.62147  20942506.1054   20942505.6524   20942510.4094
   2611136.26246   2025246.32845  25204438.2824   25204440.1184   25204450.6304
    821663.11648    637891.04646  23395426.5144   23395425.6754   23395431.6214
  -6235743.62347  -4836677.26445  24447636.9134   24447637.6344   24447643.3544
   1361035.82748   1057429.55446  22611012.0944   22611011.1274   22611015.6204
  -1090214.54048   -843306.89546  22174744.5744   22174743.5414   22174748.4624
  -2574491.24949  -1827798.85047  20261754.4094   20261753.9354   20261758.1834
 97  6 10  3  4 41.9990000  0  7G21G17G23G25G 3G31G 1
  -1012868.50949   -784663.43747  20942389.1764   20942388.8094   20942393.3244
   2613218.84946   2026869.12445  25204834.4704   25204835.9094   25204846.2054
    822343.03648    638420.84946  23395555.8574   23395554.3544   23395560.8254
  -6240556.21647  -4840427.33745  24446721.1894   24446722.1404   24446727.1964
   1362313.56348   1058425.18446  22611255.2824   22611254.3474   22611259.9974
  -1090642.19848   -843640.13646  22174663.0814   22174662.3294   22174666.7564
  -2576070.88549  -1829029.73547  20261453.7574   20261453.3554   20261457.5084
 97  6 10  3  4 42.9990000  0  7G21G17G23G25G 3G31G 1
  -1013483.38249   -785142.55847  20942272.1254   20942271.8924   20942276.4104
   2615300.99246   2028491.57145  25205230.7084   25205231.9944   25205241.8624
    823022.40848    638950.23246  23395685.0844   23395684.3344   23395689.9534
  -6245369.54147  -4844177.97945  24445805.3474   24445806.4474   24445810.9224
   1363590.94448   1059420.54246  22611498.4144   22611496.9334   22611502.5154
  -1091069.94748   -843973.45146  22174581.6114   22174580.7724   22174585.3264
  -2577650.56249  -1830260.65147  20261153.1524   20261152.6714   20261156.9634
 97  6 10  3  4 43.9990000  0  7G21G17G23G25G 3G31G 1
  -1014098.62049   -785621.96547  20942155.0284   20942154.6864   20942159.4454
   2617382.66346   2030113.65045  25205626.7434   25205627.5604   25205638.0294
    823701.27148    639479.21346  23395814.1644   23395814.4564   23395819.2114
  -6250183.53547  -4847929.14045  24444889.3494   24444890.8874   24444894.6834
   1364868.01048   1060415.66446  22611741.4704   22611740.2174   22611745.1844
  -1091497.73348   -844306.79146  22174500.1664   22174499.7844   22174504.0084
  -2579230.27849  -1831491.59947  20260852.5644   20260852.0884   20260856.2134
 97  6 10  3  4 44.9990000  0  7G21G17G23G25G 3G31G 1
  -1014713.64049   -786101.20147  20942038.0034   20942037.5974   20942042.0914
   2619464.51746   2031735.87145  25206023.0634   25206023.7274   25206034.0404
    824380.22248    640008.26246  23395943.2794   23395942.8524   23395948.2154
  -6254997.59647  -4851680.35445  24443973.3224   24443974.1004   24443978.7314
   1366145.36148   1061411.00146  22611984.5274   22611983.2624   22611988.4274
  -1091924.96248   -844639.69446  22174418.7824   22174417.9454   22174422.7524
  -2580809.42549  -1832722.10147  20260552.0594   20260551.6004   20260555.8344
 97  6 10  3  4 45.9990000  0  7G21G17G23G25G 3G31G 1
  -1015328.50749   -786580.31847  20941920.9934   20941920.5484   20941924.9014
   2621546.39746   2033358.11645  25206419.1764   25206419.3904   25206430.4424
    825059.16748    640537.31146  23396072.3694   23396071.7454   23396077.5934
  -6259811.85347  -4855431.72645  24443057.3544   24443057.6484   24443062.8554
   1367422.88348   1062406.47246  22612227.6484   22612226.1004   22612231.7404
  -1092351.74448   -844972.25946  22174337.5334   22174337.1734   22174341.5724
  -2582388.10449  -1833952.24147  20260251.6674   20260251.1924   20260255.3854
 97  6 10  3  4 46.9990000  0  7G21G17G23G25G 3G31G 1
  -1015942.80049   -787058.98747  20941804.1064   20941803.7394   20941808.2394
   2623628.78146   2034980.75445  25206815.6814   25206815.8754   25206827.0974
    825738.54548    641066.69746  23396201.5904   23396201.8704   23396206.9664
  -6264625.84947  -4859182.88945  24442141.3994   24442140.4744   24442146.6874
   1368701.02348   1063402.43146  22612470.8224   22612469.8604   22612475.5294
  -1092777.63948   -845304.12246  22174256.4144   22174255.9514   22174260.6324
  -2583965.87349  -1835181.67047  20259951.4354   20259950.8154   20259955.2074
 97  6 10  3  4 47.9990000  0  7G21G17G23G25G 3G31G 1
  -1016556.65249   -787537.31347  20941687.3324   20941687.0654   20941691.4374
   2625711.47946   2036603.63945  25207212.3874   25207211.6954   25207223.1064
    826418.21748    641596.31946  23396330.8714   23396330.7374   23396336.0584
  -6269439.71847  -4862933.94945  24441225.4524   24441224.5214   24441230.4714
   1369979.65348   1064398.76146  22612714.0814   22612713.1914   22612718.0184
  -1093202.78548   -845635.40146  22174175.4084   22174175.2564   22174179.3924
  -2585542.87949  -1836410.50547  20259651.3584   20259650.8334   20259654.9884
 97  6 10  3  4 48.9990000  0  7G21G17G23G25G 3G31G 1
  -1017169.81749   -788015.10547  20941570.6944   20941570.2204   20941574.7754
   2627794.79846   2038227.00145  25207609.0894   25207608.6004   25207620.0584
    827098.44848    642126.36946  23396460.2944   23396461.1064   23396465.7594
  -6274253.23347  -4866684.73845  24440309.6814   24440309.6304   24440314.8354
   1371258.98948   1065395.64546  22612957.4534   22612956.5474   22612961.7804
  -1093626.94148   -845965.91546  22174094.5784   22174094.8284   22174098.9484
  -2587118.88249  -1837638.56047  20259351.4384   20259350.8514   20259355.0244
 97  6 10  3  4 49.9990000  0  7G21G17G23G25G 3G31G 1
  -1017782.35549   -788492.40647  20941454.1804   20941453.7144   20941458.2084
   2629878.64546   2039850.77645  25208005.8794   25208004.9134   25208016.1154
    827779.17748    642656.80846  23396589.8854   23396590.0724   23396595.1714
  -6279066.41347  -4870435.26345  24439393.9144   24439393.5024   24439399.0404
   1372539.01648   1066393.06746  22613200.9724   22613199.4614   22613205.2414
  -1094050.12248   -846295.67346  22174013.9164   22174014.0594   22174018.4594
  -2588693.92349  -1838865.86647  20259051.7124   20259051.0594   20259055.4564
 97  6 10  3  4 50.9990000  0  7G21G17G23G25G 3G31G 1
  -1018394.58749   -788969.47447  20941337.7174   20941337.3834   20941341.6744
   2631962.73946   2041474.74545  25208402.5434   25208401.5874   25208413.4824
    828460.07648    643187.37846  23396719.5034   23396719.4474   23396724.9734
  -6283879.59047  -4874185.78645  24438478.1274   24438478.2824   24438483.3854
   1373819.39748   1067390.76746  22613444.5614   22613443.3744   22613448.9064
  -1094472.68448   -846624.94246  22173933.3224   22173933.0234   22173937.6454
  -2590268.33349  -1840092.68047  20258752.0824   20258751.7054   20258755.7614
 97  6 10  3  4 51.9990000  0  7G21G17G23G25G 3G31G 1
  -1019006.70249   -789446.44747  20941221.2574   20941220.9914   20941225.1024
   2634046.85446   2043098.73045  25208799.4024   25208798.6344   25208810.4984
    829140.97548    643717.95146  23396849.1104   23396848.7844   23396854.4364
  -6288692.96347  -4877936.46245  24437562.2674   24437562.9934   24437567.5134
   1375099.92248   1068388.57246  22613688.1834   22613686.9964   22613692.9754
  -1094894.83348   -846953.88846  22173852.8124   22173853.3874   22173857.8624
  -2591842.29249  -1841319.14047  20258452.5314   20258452.0974   20258456.4234
 97  6 10  3  4 52.9990000  0  7G21G17G23G25G 3G31G 1
  -1019618.74449   -789923.36447  20941104.7824   20941104.6504   20941108.5054
   2636130.96746   2044722.71245  25209196.4074   25209195.5834   25209206.2934
    829821.81548    644248.47946  23396978.5744   23396977.7164   23396984.2384
  -6293506.54847  -4881687.30545  24436646.3864   24436647.0234   24436650.9854
   1376380.57748   1069386.48846  22613931.8534   22613930.6574   22613935.9084
  -1095316.57048   -847282.51546  22173772.4564   22173773.0044   22173778.0174
  -2593415.83449  -1842545.28047  20258153.0594   20258152.6604   20258156.8384
 97  6 10  3  4 53.9990000  0  7G21G17G23G25G 3G31G 1
  -1020231.11549   -790400.53847  20940988.3024   20940988.0594   20940991.9014
   2638214.63146   2046346.34245  25209593.2344   25209592.3264   25209603.1094
    830502.19148    644778.63646  23397107.9334   23397107.4884   23397114.6264
  -6298320.78647  -4885438.66245  24435730.3564   24435730.6104   24435734.8134
   1377660.94448   1070384.17046  22614175.4944   22614174.9564   22614179.5734
  -1095738.32148   -847611.15446  22173692.1504   22173692.1804   22173697.0084
  -2594989.38649  -1843771.42547  20257853.6044   20257853.3934   20257857.4174
 97  6 10  3  4 54.9990000  0  7G21G17G23G25G 3G31G 1
  -1020843.67749   -790877.85947  20940871.7764   20940871.3644   20940875.5714
   2640297.99946   2047969.74745  25209989.7974   25209988.3584   25210000.0154
    831182.23448    645308.53446  23397237.1684   23397236.6414   23397243.7544
  -6303135.51647  -4889190.40145  24434814.2544   24434814.1604   24434819.0074
   1378941.14248   1071381.72746  22614419.0854   22614419.0084   22614423.6334
  -1096159.95848   -847939.70346  22173611.8954   22173612.4204   22173616.3504
  -2596562.79649  -1844997.45647  20257554.2014   20257553.7184   20257558.0594
 97  6 10  3  4 55.9990000  0  7G21G17G23G25G 3G31G 1
  -1021456.05549   -791355.03547  20940755.2824   20940754.8894   20940759.0294
   2642381.46846   2049593.23045  25210386.5114   25210385.1024   25210396.3674
    831862.32448    645838.47146  23397366.4674   23397365.9024   23397373.2154
  -6307950.37347  -4892942.23845  24433898.0734   24433898.0364   24433902.9434
   1380221.56548   1072379.45846  22614662.7714   22614662.5394   22614667.8694
  -1096581.08348   -848267.85246  22173531.7034   22173531.9974   22173536.7654
  -2598135.70349  -1846223.09747  20257254.9034   20257254.5404   20257258.8384
 97  6 10  3  4 56.9990000  0  7G21G17G23G25G 3G31G 1
  -1022068.15949   -791831.99747  20940638.8514   20940638.4084   20940642.5624
   2644465.08246   2051216.82445  25210783.1884   25210781.6054   25210792.9374
    832542.52648    646368.49346  23397495.8394   23397495.7284   23397502.7464
  -6312765.26447  -4896694.09745  24432981.8104   24432981.1264   24432986.8144
   1381502.28448   1073377.41546  22614906.4994   22614906.0534   22614910.4264
  -1097001.62448   -848595.54646  22173451.6554   22173452.1564   22173457.0994
  -2599708.02149  -1847448.28047  20256955.7154   20256955.3274   20256959.5794
 97  6 10  3  4 57.9990000  0  7G21G17G23G25G 3G31G 1
  -1022679.68849   -792308.51447  20940522.5104   20940522.0824   20940526.0534
   2646549.16146   2052840.78445  25211179.9344   25211177.6424   25211189.1064
    833223.16648    646898.85646  23397625.3564   23397625.7574   23397631.7214
  -6317579.91547  -4900445.77245  24432065.6334   24432064.6444   24432070.3234
   1382783.59148   1074375.84046  22615150.3174   22615149.2774   22615154.4654
  -1097421.28548   -848922.55746  22173371.7454   22173372.0754   22173376.9734
  -2601279.43349  -1848672.75747  20256656.7334   20256656.2134   20256660.5724
 97  6 10  3  4 58.9990000  0  7G21G17G23G25G 3G31G 1
  -1023290.92049   -792784.79847  20940406.2634   20940406.0044   20940409.7764
   2648633.43846   2054464.89945  25211576.6504   25211574.0804   25211585.1234
    833903.97648    647429.36246  23397755.0214   23397755.7794   23397761.9674
  -6322394.55747  -4904197.43845  24431149.4044   24431148.4944   24431153.8324
   1384065.23848   1075374.52646  22615394.2514   22615393.1384   22615399.4554
  -1097840.31848   -849249.07346  22173292.0104   22173292.5634   22173297.1104
  -2602850.21849  -1849896.74247  20256357.8834   20256357.2214   20256361.6984
 97  6 10  3  4 59.9990000  0  7G21G17G23G25G 3G31G 1
  -1023901.41949   -793260.51247  20940290.1164   20940289.8294   20940293.7634
   2650718.36146   2056089.51245  25211973.5234   25211970.8934   25211981.9414
    834585.38648    647960.32946  23397884.8394   23397885.5534   23397890.9164
  -6327208.77047  -4907948.77045  24430233.2584   24430233.2974   24430237.4254
   1385347.65348   1076373.81246  22615638.3104   22615637.7284   22615642.5714
  -1098258.29748   -849574.76946  22173212.4884   22173212.7514   22173217.7304
  -2604419.93249  -1851119.89747  20256059.2174   20256058.4754   20256062.8614
 97  6 10  3  5  0.9990000  0  7G21G17G23G25G 3G31G 1
  -1024511.61049   -793735.98747  20940174.0654   20940173.6104   20940177.6084
   2652803.49346   2057714.28645  25212370.4314   25212367.6944   25212378.9584
    835266.95948    648491.42746  23398014.7024   23398015.2384   23398021.3594
  -6332023.02147  -4911700.12845  24429317.0424   24429317.6344   24429321.3814
   1386630.38548   1077373.34246  22615882.4324   22615881.8464   22615886.9394
  -1098675.67248   -849899.99946  22173133.0774   22173133.5254   22173138.6144
  -2605988.99849  -1852342.54547  20255760.6594   20255760.0774   20255764.2474
 97  6 10  3  5  1.9990000  0  7G21G17G23G25G 3G31G 1
  -1025121.32849   -794211.09147  20940058.0934   20940057.8154   20940061.4574
   2654888.95846   2059339.32445  25212767.5994   25212764.4564   25212776.0064
    835948.87948    649022.79546  23398144.6824   23398144.8464   23398151.2504
  -6336837.09147  -4915451.34745  24428400.8754   24428401.6214   24428405.3174
   1387913.64248   1078373.28046  22616126.6554   22616125.9224   22616131.0224
  -1099092.24548   -850224.59546  22173053.8234   22173054.5884   22173059.4594
  -2607557.25549  -1853564.56247  20255462.2514   20255461.5634   20255465.9174
 97  6 10  3  5  2.9990000  0  7G21G17G23G25G 3G31G 1
  -1025730.76649   -794685.98047  20939942.1614   20939941.7004   20939945.8334
   2656974.62846   2060964.51945  25213164.6984   25213161.6854   25213174.3194
    836630.92948    649554.25846  23398274.5914   23398274.5454   23398281.2174
  -6341651.18447  -4919202.58545  24427484.8014   24427485.6014   24427489.1804
   1389197.21248   1079373.46346  22616370.9084   22616370.7184   22616374.9674
  -1099508.20048   -850548.72546  22172974.7044   22172974.9754   22172980.2884
  -2609124.90549  -1854786.10947  20255163.9294   20255163.3014   20255167.6014
 97  6 10  3  5  3.9990000  0  7G21G17G23G25G 3G31G 1
  -1026340.25149   -795160.90447  20939826.2574   20939825.7674   20939829.9314
   2659060.12146   2062589.57745  25213561.7784   25213559.1824   25213570.4334
    837312.79648    650085.57846  23398404.4004   23398403.8554   23398410.6664
  -6346465.66447  -4922954.12845  24426568.6414   24426569.2144   24426573.3664
   1390480.74848   1080373.61646  22616615.1834   22616614.8234   22616619.1594
  -1099923.91048   -850872.65146  22172895.6054   22172895.8064   22172900.6254
  -2610692.25649  -1856007.42247  20254865.6564   20254865.1034   20254869.2864
 97  6 10  3  5  4.9990000  0  7G21G17G23G25G 3G31G 1
  -1026949.68549   -795635.78847  20939710.3654   20939709.7624   20939713.7844
   2661145.55846   2064214.58945  25213958.8634   25213955.9434   25213967.2174
    837994.57948    650616.84146  23398534.2064   23398534.0534   23398540.5484
  -6351280.38747  -4926705.85945  24425652.5104   24425652.4264   24425657.4974
   1391764.37948   1081373.84446  22616859.4394   22616859.1964   22616863.2444
  -1100339.23148   -851196.27746  22172816.5994   22172816.8514   22172822.0174
  -2612259.22549  -1857228.43847  20254567.4624   20254566.9054   20254570.9994
 97  6 10  3  5  5.9990000  0  7G21G17G23G25G 3G31G 1
  -1027559.12049   -796110.67147  20939594.4524   20939593.9354   20939597.9294
   2663230.89246   2065839.52045  25214355.7674   25214352.8144   25214364.2154
    838676.23748    651148.00146  23398664.0344   23398663.9784   23398669.6214
  -6356095.40847  -4930457.82245  24424736.1504   24424734.8404   24424740.7884
   1393048.06748   1082374.11346  22617103.7294   22617102.7734   22617107.5644
  -1100754.23048   -851519.65846  22172737.6544   22172737.7494   22172742.5444
  -2613825.84149  -1858449.17747  20254269.3444   20254268.9614   20254273.0744
 97  6 10  3  5  6.9990000  0  7G21G17G23G25G 3G31G 1
  -1028168.67349   -796585.64747  20939478.4974   20939477.9564   20939481.7494
   2665316.03546   2067464.30645  25214752.6834   25214749.6214   25214760.7774
    839357.67048    651678.98646  23398793.8434   23398793.5434   23398799.0344
  -6360910.85847  -4934210.11245  24423819.7614   24423818.2194   24423824.3384
   1394331.67348   1083374.32646  22617347.9474   22617347.0674   22617351.4394
  -1101169.01648   -851842.86446  22172658.7294   22172658.5584   22172663.8644
  -2615392.19049  -1859669.71047  20253971.2764   20253970.8184   20253974.9944
 97  6 10  3  5  7.9990000  0  7G21G17G23G25G 3G31G 1
  -1028778.15949   -797060.56947  20939362.5454   20939361.9344   20939365.8654
   2667401.14446   2069089.06345  25215149.5494   25215146.4914   25215156.9964
    840039.04948    652209.92946  23398923.6704   23398923.1684   23398929.2064
  -6365726.54347  -4937962.59045  24422903.3154   24422902.4124   24422908.4334
   1395615.40648   1084374.64346  22617592.1984   22617591.2514   22617596.8814
  -1101583.39948   -852165.75746  22172579.8674   22172579.6754   22172585.2804
  -2616958.12449  -1860889.91647  20253673.3114   20253672.8084   20253676.8854
 97  6 10  3  5  8.9990000  0  7G21G17G23G25G 3G31G 1
  -1029387.62549   -797535.48047  20939246.6134   20939245.8704   20939250.0594
   2669486.17646   2070713.76045  25215546.2624   25215543.2134   25215553.8394
    840720.32548    652740.78946  23399053.4434   23399052.7864   23399059.0494
  -6370542.49847  -4941715.28245  24421986.8124   24421986.2844   24421992.3704
   1396899.21248   1085375.01746  22617836.4524   22617835.9274   22617841.3224
  -1101997.42748   -852488.37246  22172501.0844   22172500.7874   22172506.1054
  -2618523.68749  -1862109.83747  20253375.4114   20253374.8664   20253379.2134
 97  6 10  3  5  9.9990000  0  7G21G17G23G25G 3G31G 1
  -1029996.84649   -798010.19847  20939130.7394   20939130.0334   20939134.0614
   2671571.37146   2072338.58345  25215942.9434   25215940.3304   25215950.0194
    841401.72948    653271.75646  23399183.1654   23399182.6094   23399188.7924
  -6375358.53547  -4945468.03445  24421070.3594   24421069.7494   24421075.6604
   1398183.28548   1086375.58946  22618080.7544   22618080.2044   22618085.4514
  -1102410.89048   -852810.55946  22172422.4784   22172422.4064   22172428.1144
  -2620088.63449  -1863329.27547  20253077.6224   20253077.0164   20253081.3424
 97  6 10  3  5 10.9990000  0  7G21G17G23G25G 3G31G 1
  -1030606.32149   -798485.11247  20939014.8354   20939014.0844   20939018.1254
   2673656.22346   2073963.14545  25216339.6264   25216337.1984   25216346.6064
    842082.77748    653802.44346  23399312.8054   23399312.1784   23399318.1044
  -6380175.10947  -4949221.20745  24420153.7464   24420153.3974   24420158.6114
   1399467.17548   1087376.01846  22618325.0084   22618325.2534   22618329.9444
  -1102824.26248   -853132.66946  22172343.7994   22172343.8584   22172348.6834
  -2621653.48449  -1864548.63747  20252779.8154   20252779.2214   20252783.5184
 97  6 10  3  5 11.9990000  0  7G21G17G23G25G 3G31G 1
  -1031215.60849   -798959.88147  20938898.9394   20938897.9974   20938902.0934
   2675741.17746   2075587.78145  25216736.3064   25216734.0804   25216743.7824
    842763.86548    654333.16346  23399442.4864   23399442.2154   23399447.5294
  -6384991.79147  -4952974.46645  24419237.1404   24419236.3354   24419241.9934
   1400751.30148   1088376.63446  22618569.3074   22618569.1044   22618573.5034
  -1103237.10648   -853454.36346  22172265.2674   22172265.3904   22172269.9894
  -2623217.80449  -1865767.58847  20252482.1234   20252481.5084   20252485.8654
 97  6 10  3  5 12.9990000  0  7G21G17G23G25G 3G31G 1
  -1031824.08949   -799434.02247  20938783.1564   20938782.3024   20938786.4344
   2677826.87846   2077212.99945  25217133.2384   25217131.2254   25217140.7394
    843445.66148    654864.43346  23399572.1884   23399571.2524   23399577.5104
  -6389807.98147  -4956727.34045  24418320.6584   24418319.3624   24418325.3404
   1402036.30648   1089377.93446  22618813.7784   22618814.0924   22618817.8134
  -1103648.81948   -853775.18446  22172186.9254   22172186.3854   22172191.4594
  -2624780.93749  -1866985.61347  20252184.6454   20252184.0584   20252188.4604
 97  6 10  3  5 13.9990000  0  7G21G17G23G25G 3G31G 1
  -1032431.92449   -799907.66047  20938667.4844   20938666.6744   20938670.8614
   2679913.15246   2078838.66345  25217530.3214   25217528.2644   25217537.4584
    844127.99648    655396.11946  23399701.9904   23399700.3284   23399707.0854
  -6394623.79847  -4960479.92045  24417404.2764   24417402.8074   24417409.2774
   1403322.00648   1090379.77446  22619058.4414   22619058.7384   22619063.2134
  -1104059.52348   -854095.20946  22172108.7264   22172108.9594   22172113.1144
  -2626343.07049  -1868202.85948  20251887.3614   20251886.8404   20251890.9914
 97  6 10  3  5 14.9990000  0  7G21G17G23G25G 3G31G 1
  -1033039.43849   -800381.04847  20938551.8854   20938550.7004   20938555.0904
   2681999.65746   2080464.50745  25217927.4864   25217925.4504   25217934.5954
    844810.51348    655927.95846  23399831.7584   23399830.0484   23399836.0534
  -6399439.62847  -4964232.50845  24416487.9174   24416486.6564   24416492.3404
   1404608.09248   1091381.92446  22619303.1944   22619302.5484   22619307.6254
  -1104469.56348   -854414.72046  22172030.6874   22172030.8714   22172035.9584
  -2627904.53249  -1869419.58448  20251590.2104   20251589.8334   20251593.9164
 97  6 10  3  5 15.9990000  0  7G21G17G23G25G 3G31G 1
  -1033646.32849   -800853.94847  20938436.4254   20938435.4804   20938439.7724
   2684086.71046   2082090.77645  25218324.8004   25218322.3884   25218331.7484
    845493.55148    656460.19846  23399961.5434   23399959.6834   23399966.3014
  -6404255.12547  -4967984.84345  24415571.5704   24415570.9174   24415576.0154
   1405894.83048   1092384.57846  22619548.0384   22619547.4564   22619552.6834
  -1104878.66048   -854733.49846  22171952.8334   22171953.0154   22171958.2034
  -2629465.01849  -1870635.54948  20251293.2334   20251292.8754   20251296.9544
 97  6 10  3  5 16.9990000  0  7G21G17G23G25G 3G31G 1
  -1034253.03349   -801326.70647  20938320.9854   20938320.0074   20938324.2544
   2686173.88947   2083717.14645  25218722.1004   25218719.8814   25218728.8994
    846176.65248    656992.48746  23400091.2304   23400089.0024   23400095.6094
  -6409070.74847  -4971737.27545  24414655.2014   24414655.0404   24414659.9244
   1407181.82548   1093387.42946  22619792.9364   22619793.0394   22619797.2654
  -1105287.23148   -855051.86346  22171875.0594   22171875.5774   22171880.5864
  -2631024.97949  -1871851.10348  20250996.3734   20250995.9974   20251000.1654
 97  6 10  3  5 17.9990000  0  7G21G17G23G25G 3G31G 1
  -1034859.41149   -801799.20747  20938205.5764   20938204.7894   20938208.7274
   2688261.33047   2085343.72145  25219119.3874   25219117.0994   25219126.3784
    846859.94848    657524.92646  23400220.9124   23400219.1454   23400225.9544
  -6413886.32447  -4975489.66645  24413738.8484   24413738.6944   24413743.6234
   1408469.21348   1094390.58546  22620037.9444   22620038.7534   22620042.9574
  -1105695.14348   -855369.72046  22171797.4404   22171797.7924   22171802.5154
  -2632584.25949  -1873066.12648  20250699.6304   20250699.3204   20250703.5864
 97  6 10  3  5 18.9990000  0  7G21G17G23G25G 3G31G 1
  -1035465.96849   -802271.85247  20938090.1354   20938089.2694   20938093.4774
   2690348.51947   2086970.09945  25219516.5934   25219514.2814   25219523.5574
    847542.99248    658057.16646  23400350.6024   23400348.8754   23400355.8124
  -6418702.35547  -4979242.41345  24412822.3574   24412822.6984   24412827.1984
   1409756.49848   1095393.66646  22620282.9824   22620283.3554   22620287.7664
  -1106102.87348   -855687.43146  22171719.8234   22171719.4304   22171725.1664
  -2634143.35349  -1874281.00447  20250402.9214   20250402.5814   20250406.7934
 97  6 10  3  5 19.9990000  0  7G21G17G23G25G 3G31G 1
  -1036072.32549   -802744.33747  20937974.7374   20937973.7884   20937977.9854
   2692435.84547   2088596.58645  25219913.8514   25219911.3894   25219920.3514
    848226.11948    658589.47146  23400480.2494   23400479.4414   23400486.2364
  -6423518.46747  -4982995.22745  24411905.8414   24411905.8944   24411910.9054
   1411044.04248   1096396.94546  22620528.0484   22620528.4704   22620531.4844
  -1106510.02348   -856004.69046  22171642.4004   22171641.6274   22171647.2084
  -2635701.89549  -1875495.45347  20250106.3404   20250106.1344   20250110.2714
 97  6 10  3  5 20.9990000  0  7G21G17G23G25G 3G31G 1
  -1036678.80949   -803216.92347  20937859.3024   20937858.3854   20937862.7674
   2694522.97847   2090222.92345  25220311.0034   25220308.3994   25220317.5754
    848908.99748    659121.57946  23400610.0214   23400608.8224   23400616.7784
  -6428334.97147  -4986748.34845  24410989.2824   24410989.2464   24410994.5304
   1412331.55448   1097400.19946  22620773.0854   22620772.7524   22620776.9384
  -1106916.95048   -856321.78246  22171565.0114   22171565.0914   22171569.7994
  -2637260.20849  -1876709.72247  20249809.7924   20249809.4024   20249813.6464
 97  6 10  3  5 21.9990000  0  7G21G17G23G25G 3G31G 1
  -1037285.36949   -803689.56847  20937743.8664   20937743.0474   20937747.2424
   2696610.00047   2091849.17245  25220708.1434   25220705.8814   25220714.4674
    849591.72548    659653.56946  23400739.8334   23400739.1294   23400745.8864
  -6433151.80547  -4990501.72245  24410072.5724   24410072.6904   24410077.1774
   1413619.06048   1098403.45146  22621018.1194   22621017.2914   22621022.2664
  -1107323.56448   -856638.62046  22171487.7154   22171487.5504   22171492.4084
  -2638818.22049  -1877923.75748  20249513.2904   20249512.9414   20249517.0664
 97  6 10  3  5 22.9990000  0  7G21G17G23G25G 3G31G 1
  -1037891.59149   -804161.95047  20937628.4864   20937627.5284   20937631.8254
   2698697.28647   2093475.62445  25221105.2584   25221103.1164   25221111.7444
    850274.65748    660185.71946  23400869.7014   23400869.7804   23400875.7634
  -6437968.55747  -4994255.03545  24409155.9514   24409155.5174   24409160.6194
   1414906.96848   1099407.01546  22621263.2494   22621263.4064   22621267.2814
  -1107729.47748   -856954.91546  22171410.5404   22171410.5244   22171415.5334
  -2640375.54349  -1879137.25548  20249216.9434   20249216.5834   20249220.7784
 97  6 10  3  5 23.9990000  0  7G21G17G23G25G 3G31G 1
  -1038497.63749   -804634.19447  20937513.1144   20937512.2274   20937516.5834
   2700784.65947   2095102.14445  25221502.3404   25221500.3204   25221509.1194
    850957.66048    660717.92846  23400999.5904   23400999.1794   23401005.2264
  -6442785.41447  -4998008.43045  24408239.2644   24408239.1834   24408244.7454
   1416195.11348   1100410.76546  22621508.3964   22621507.5484   22621512.6114
  -1108134.85748   -857270.79346  22171333.4464   22171333.2504   22171337.9324
  -2641932.33949  -1880350.34248  20248920.6794   20248920.3894   20248924.6844
 97  6 10  3  5 24.9990000  0  7G21G17G23G25G 3G31G 1
  -1039103.22449   -805106.08347  20937397.8234   20937396.9064   20937401.2554
   2702872.46247   2096729.00145  25221899.5684   25221897.5414   25221906.0834
    851641.04548    661250.44146  23401129.5074   23401129.7944   23401134.6504
  -6447602.03847  -5001761.64045  24407322.6144   24407323.3764   24407327.8784
   1417483.80348   1101414.93646  22621753.5944   22621752.3054   22621758.1434
  -1108539.40848   -857586.03546  22171256.5634   22171256.3614   22171261.3754
  -2643488.29549  -1881562.77748  20248624.5914   20248624.2984   20248628.5754
 97  6 10  3  5 25.9990000  0  7G21G17G23G25G 3G31G 1
  -1039708.71549   -805577.89447  20937282.5454   20937281.7044   20937285.9404
   2704960.28747   2098355.87745  25222296.6444   25222294.7894   25222303.7254
    852324.40448    661782.93046  23401259.4754   23401259.8374   23401265.8154
  -6452418.85847  -5005515.00145  24406405.9004   24406406.8314   24406411.1194
   1418772.65148   1102419.23346  22621998.7834   22621998.2044   22622003.2124
  -1108943.52648   -857900.93146  22171179.7164   22171179.5924   22171184.6364
  -2645043.81649  -1882774.87148  20248328.6044   20248328.1314   20248332.4694
 97  6 10  3  5 26.9990000  0  7G21G17G23G25G 3G31G 1
  -1040313.39249   -806049.06847  20937167.4394   20937166.7414   20937170.9204
   2707048.85347   2099983.32745  25222694.0724   25222692.2354   25222701.0874
    853008.47948    662315.98246  23401389.5424   23401389.5284   23401396.3164
  -6457235.12247  -5009267.93045  24405489.3134   24405489.3334   24405493.9354
   1420062.39048   1103424.22346  22622244.2044   22622243.9244   22622248.7354
  -1109346.46648   -858214.91446  22171103.1214   22171102.9334   22171108.1824
  -2646598.16549  -1883986.04948  20248032.8674   20248032.3444   20248036.5674
 97  6 10  3  5 27.9990000  0  7G21G17G23G25G 3G31G 1
  -1040917.54149   -806519.83747  20937052.4094   20937051.9104   20937056.1104
   2709137.91347   2101611.16345  25223091.4574   25223089.4634   25223098.6794
    853693.02948    662849.40046  23401519.6684   23401519.6764   23401526.4924
  -6462051.12647  -5013020.65845  24404572.7924   24404573.3384   24404577.5764
   1421352.73448   1104429.68246  22622489.6614   22622489.0354   22622494.4254
  -1109748.50648   -858528.19546  22171026.6644   22171026.4734   22171031.3764
  -2648151.62249  -1885196.53748  20247737.2864   20247736.7974   20247741.0864
 97  6 10  3  5 28.9990000  0  7G21G17G23G25G 3G31G 1
  -1041521.54349   -806990.48947  20936937.4164   20936936.8694   20936941.0124
   2711227.05947   2103239.06945  25223488.8994   25223487.3934   25223496.5744
    854377.62248    663382.84446  23401649.8644   23401649.6454   23401656.6994
  -6466867.24847  -5016773.48345  24403656.2474   24403657.0204   24403661.4204
   1422643.30548   1105435.32346  22622735.2384   22622734.4974   22622739.3994
  -1110150.03048   -858841.07146  22170950.1964   22170949.9604   22170954.7924
  -2649704.56549  -1886406.62248  20247441.7964   20247441.4294   20247445.5164
 97  6 10  3  5 29.9990000  0  7G21G17G23G25G 3G31G 1
  -1042125.83349   -807461.36647  20936822.3894   20936821.8204   20936826.0804
   2713315.86147   2104866.70445  25223886.3324   25223884.9434   25223894.2374
    855061.81548    663915.98246  23401779.9944   23401780.6924   23401787.5144
  -6471683.91547  -5020526.72945  24402739.6774   24402741.3524   24402744.5644
   1423933.67248   1106440.79446  22622980.7544   22622980.3814   22622985.2574
  -1110551.48848   -859153.89546  22170873.8004   22170873.4314   22170878.7334
  -2651257.43649  -1887616.65348  20247146.3474   20247145.8894   20247150.1254
 97  6 10  3  5 30.9990000  0  7G21G17G23G25G 3G31G 1
  -1042730.41649   -807932.47047  20936707.3524   20936706.8554   20936711.0124
   2715404.37647   2106494.11745  25224283.6364   25224282.1784   25224291.5804
    855745.65148    664448.83846  23401910.0544   23401910.8094   23401917.7954
  -6476501.12247  -5024280.39045  24401822.9614   24401823.4754   24401828.2724
   1425223.81648   1107446.10046  22623226.2954   22623225.8214   22623230.4974
  -1110952.87248   -859466.66446  22170797.4544   22170797.2374   22170802.1474
  -2652810.23449  -1888826.62648  20246850.8794   20246850.3644   20246854.6044
 97  6 10  3  5 31.9990000  0  7G21G17G23G25G 3G31G 1
  -1043335.22749   -808403.75047  20936592.2884   20936591.7154   20936595.6794
   2717492.58347   2108121.28645  25224680.7324   25224679.1234   25224688.7364
    856429.13348    664981.42546  23402040.0284   23402040.7274   23402047.9624
  -6481318.82447  -5028034.44345  24400906.1624   24400906.6894   24400911.0754
   1426513.80748   1108451.28746  22623471.7844   22623471.2664   22623476.4884
  -1111354.10948   -859779.31346  22170721.1394   22170720.9854   22170725.7544
  -2654362.90449  -1890036.49648  20246555.4634   20246554.8944   20246559.1204
 97  6 10  3  5 32.9990000  0  7G21G17G23G25G 3G31G 1
  -1043939.97349   -808874.97847  20936477.2094   20936476.6514   20936480.5204
   2719580.79547   2109748.46445  25225077.9504   25225077.0274   25225086.3744
    857112.56648    665513.97846  23402169.9964   23402170.4904   23402177.8714
  -6486136.73147  -5031788.65645  24399989.4164   24399989.4444   24399994.7274
   1427803.93248   1109456.57746  22623717.3104   22623716.8834   22623721.9064
  -1111754.92748   -860091.64046  22170644.9534   22170644.3244   22170649.9024
  -2655915.15849  -1891246.04448  20246260.1164   20246259.5214   20246263.8274
 97  6 10  3  5 33.9990000  0  7G21G17G23G25G 3G31G 1
  -1044544.69349   -809346.19147  20936362.1094   20936361.5604   20936365.7404
   2721669.06647   2111375.68745  25225475.0964   25225474.3594   25225482.7094
    857795.99248    666046.51946  23402299.9674   23402300.2124   23402308.3454
  -6490954.84847  -5035543.03645  24399072.6434   24399071.4124   24399077.8204
   1429094.18248   1110461.96946  22623962.8264   22623961.6314   22623966.7274
  -1112155.31848   -860403.63546  22170568.8154   22170568.8044   22170573.4504
  -2657466.99649  -1892455.26848  20245964.8234   20245964.1814   20245968.3984
 97  6 10  3  5 34.9990000  0  7G21G17G23G25G 3G31G 1
  -1045148.98949   -809817.07247  20936247.1334   20936246.6774   20936250.7534
   2723757.68647   2113003.17745  25225872.4454   25225871.9734   25225880.7464
    858479.74548    666579.31346  23402429.9354   23402429.9314   23402438.2384
  -6495772.79847  -5039297.27645  24398155.9534   24398155.3154   24398160.4064
   1430384.93648   1111467.75046  22624208.4234   22624207.5444   22624212.1754
  -1112554.92448   -860715.01746  22170492.8684   22170492.3894   22170498.1434
  -2659018.05149  -1893663.88248  20245669.6724   20245669.0214   20245673.2294
 97  6 10  3  5 35.9990000  0  7G21G17G23G25G 3G31G 1
  -1045752.74449   -810287.53147  20936132.2694   20936131.8124   20936135.6234
   2725846.83647   2114631.08345  25226269.9144   25226269.1164   25226278.2284
    859163.96148    667112.46846  23402560.0594   23402560.2134   23402568.6754
  -6500590.47947  -5043051.31145  24397239.2724   24397238.6154   24397243.3214
   1431676.31248   1112474.01546  22624454.1504   22624453.6584   22624459.0144
  -1112953.61248   -861025.68346  22170417.0834   22170416.0084   22170421.3824
  -2660568.20749  -1894871.79848  20245374.6644   20245374.0644   20245378.2904
 97  6 10  3  5 36.9990000  0  7G21G17G23G25G 3G31G 1
  -1046356.28449   -810757.82247  20936017.4064   20936016.7404   20936020.6074
   2727936.17547   2116259.13645  25226667.4444   25226666.3724   25226675.4784
    859848.30148    667645.71746  23402690.1864   23402690.1724   23402698.3524
  -6505408.19147  -5046805.37045  24396322.5894   24396322.5534   24396327.1474
   1432967.98148   1113480.51846  22624699.9684   22624699.4464   22624704.5864
  -1113351.70448   -861335.88246  22170341.3814   22170340.1844   22170345.8524
  -2662117.78349  -1896079.25848  20245079.7894   20245079.2304   20245083.4354
 97  6 10  3  5 37.9990000  0  7G21G17G23G25G 3G31G 1
  -1046959.01749   -811227.48547  20935902.6904   20935902.2484   20935906.1334
   2730026.24847   2117887.76345  25227065.1044   25227064.0654   25227073.8624
    860533.34148    668179.51046  23402820.5084   23402820.7084   23402828.1944
  -6510225.36447  -5050559.00445  24395405.9634   24395406.7884   24395410.5034
   1434260.52348   1114487.69246  22624945.8974   22624945.5194   22624949.7394
  -1113748.63748   -861645.18546  22170265.9114   22170265.4224   22170270.4774
  -2663666.21049  -1897285.82748  20244785.1274   20244784.4224   20244788.7994
 97  6 10  3  5 38.9990000  0  7G21G17G23G25G 3G31G 1
  -1047561.31849   -811696.81247  20935788.0644   20935787.7684   20935791.3834
   2732116.68547   2119516.66745  25227462.8894   25227461.7444   25227471.8194
    861218.70348    668713.55346  23402950.8664   23402951.6474   23402958.5744
  -6515042.34447  -5054312.49045  24394489.4144   24394489.1134   24394494.5144
   1435553.57148   1115495.25546  22625191.9304   22625192.1844   22625196.1304
  -1114144.76548   -861953.85646  22170190.5834   22170190.0904   22170195.4104
  -2665213.84949  -1898491.77948  20244490.6254   20244490.0474   20244494.3564
 97  6 10  3  5 39.9990000  0  7G21G17G23G25G 3G31G 1
  -1048162.76149   -812165.46847  20935673.5764   20935673.2174   20935676.8534
   2734207.94147   2121146.21145  25227860.9984   25227859.5884   25227869.6514
    861904.80848    669248.17746  23403081.3834   23403082.3564   23403089.6514
  -6519858.72747  -5058065.50745  24393572.9484   24393572.1714   24393577.3544
   1436847.53548   1116503.54046  22625438.1254   22625437.9844   22625442.2544
  -1114539.66048   -862261.56846  22170115.5014   22170114.4614   22170120.0754
  -2666760.25549  -1899696.77048  20244196.3474   20244195.8104   20244200.0264
 97  6 10  3  5 40.9990000  0  7G21G17G23G25G 3G31G 1
  -1048763.97649   -812633.95147  20935559.1484   20935558.8634   20935562.5774
   2736299.38247   2122775.90045  25228259.0104   25228257.6094   25228267.6834
    862591.04248    669782.90646  23403212.0924   23403212.8574   23403219.9684
  -6524675.12647  -5061818.54745  24392656.4414   24392656.3104   24392660.6994
   1438141.79448   1117512.05046  22625684.4434   22625683.8074   22625688.3674
  -1114933.95648   -862568.81446  22170040.5084   22170039.6644   22170044.5104
  -2668306.08049  -1900901.31048  20243902.1994   20243901.7684   20243905.8414
 97  6 10  3  5 41.9990000  0  7G21G17G23G25G 3G31G 1
  -1049365.07249   -813102.33747  20935444.7994   20935444.4844   20935448.1784
   2738390.84647   2124405.60745  25228657.0114   25228655.7914   25228665.9304
    863277.26148    670317.62046  23403342.7064   23403343.1064   23403350.3664
  -6529491.65447  -5065571.68445  24391739.9464   24391739.9574   24391744.4294
   1439436.24348   1118520.71646  22625930.7914   22625929.8034   22625935.0364
  -1115327.77248   -862875.68246  22169965.5384   22169964.9274   22169969.7774
  -2669851.42149  -1902105.47348  20243608.1334   20243607.6514   20243611.7604
 97  6 10  3  5 42.9990000  0  7G21G17G23G25G 3G31G 1
  -1049966.04649   -813570.62947  20935330.4784   20935330.3154   20935333.8844
   2740482.39647   2126035.38145  25229055.0374   25229054.0924   25229063.6424
    863963.49948    670852.35346  23403473.2754   23403473.7114   23403481.3144
  -6534308.30847  -5069324.91345  24390823.3304   24390823.5814   24390827.8074
   1440730.86348   1119529.50946  22626177.1404   22626176.8154   22626181.6934
  -1115721.08448   -863182.16346  22169890.6394   22169889.3874   22169894.9094
  -2671396.28249  -1903309.26148  20243314.1404   20243313.6274   20243317.8134
 97  6 10  3  5 43.9990000  0  7G21G17G23G25G 3G31G 1
  -1050567.26449   -814039.11147  20935216.1264   20935215.7684   20935219.6464
   2742573.58747   2127664.87545  25229453.0804   25229451.8934   25229461.6914
    864649.36948    671386.80046  23403603.8104   23403604.5504   23403611.8914
  -6539125.46447  -5073078.53545  24389906.6204   24389905.9584   24389910.7924
   1442025.29348   1120538.15446  22626423.5004   22626422.7024   22626428.1414
  -1116114.28548   -863488.55646  22169815.7604   22169814.7644   22169820.1104
  -2672941.04849  -1904512.97348  20243020.1564   20243019.4734   20243023.8394
 97  6 10  3  5 44.9990000  0  7G21G17G23G25G 3G31G 1
  -1051168.47649   -814507.58747  20935101.7474   20935101.2614   20935105.1414
   2744664.72247   2129294.32445  25229851.0674   25229849.7654   25229859.6884
    865335.10648    671921.13646  23403734.3874   23403734.7124   23403742.7834
  -6543942.86247  -5076832.35045  24388989.7994   24388989.1494   24388994.5304
   1443319.78848   1121546.85646  22626669.8324   22626669.6914   22626673.6534
  -1116507.12348   -863794.66046  22169740.9994   22169740.0924   22169745.9504
  -2674485.46749  -1905716.41648  20242726.2294   20242725.7414   20242729.9714
 97  6 10  3  5 45.9990000  0  7G21G17G23G25G 3G31G 1
  -1051769.97749   -814976.28947  20934987.2874   20934986.9594   20934990.6914
   2746755.51147   2130923.50345  25230248.9844   25230247.4544   25230257.7634
    866020.43248    672455.15646  23403864.9464   23403864.9614   23403873.2364
  -6548760.78847  -5080586.57445  24388072.8144   24388072.7624   24388077.7144
   1444614.04148   1122555.35446  22626916.1774   22626915.3304   22626919.9954
  -1116899.87648   -864100.70446  22169666.2474   22169665.4814   22169670.2804
  -2676029.83249  -1906919.81748  20242432.3204   20242431.8324   20242436.0994
 97  6 10  3  5 46.9990000  0  7G21G17G23G25G 3G31G 1
  -1052371.02849   -815444.64247  20934872.9054   20934872.4534   20934876.2694
   2748846.67147   2132552.97345  25230647.0404   25230645.6444   25230655.7194
    866706.09448    672989.44146  23403995.5344   23403995.6104   23404003.4984
  -6553578.49947  -5084340.63445  24387155.9424   24387156.3434   24387161.6504
   1445908.79448   1123564.25346  22627162.5624   22627162.1994   22627166.3094
  -1117291.81148   -864406.10946  22169591.6484   22169591.3784   22169595.6714
  -2677573.40249  -1908122.60048  20242138.5474   20242138.0194   20242142.3424
 97  6 10  3  5 47.9990000  0  7G21G17G23G25G 3G31G 1
  -1052971.83649   -815912.80347  20934758.5954   20934758.0904   20934762.0404
   2750937.99047   2134182.56545  25231045.1064   25231043.2204   25231053.6424
    867391.86148    673523.81146  23404126.0164   23404125.9104   23404133.6554
  -6558396.22347  -5088094.70545  24386239.0044   24386239.9034   24386244.3184
   1447203.84548   1124573.38646  22627409.0504   22627408.0704   22627413.4064
  -1117683.14248   -864711.04046  22169517.1854   22169516.8404   22169521.5134
  -2679116.40149  -1909324.93548  20241844.8824   20241844.5054   20241848.6514
 97  6 10  3  5 48.9990000  0  7G21G17G23G25G 3G31G 1
  -1053572.27549   -816380.67947  20934644.3494   20934644.0484   20934647.6404
   2753029.62547   2135812.40545  25231443.2174   25231441.4274   25231451.6994
    868077.88248    674058.37346  23404256.5004   23404256.3564   23404264.6064
  -6563213.82147  -5091848.67845  24385322.1194   24385322.7494   24385327.8364
   1448499.30448   1125582.82846  22627655.6144   22627654.5494   22627659.6064
  -1118073.72948   -865015.39646  22169442.8884   22169442.7884   22169447.5994
  -2680658.68549  -1910526.71548  20241551.3744   20241551.0714   20241555.1374
 97  6 10  3  5 49.9990000  0  7G21G17G23G25G 3G31G 1
  -1054172.15349   -816848.11647  20934530.2234   20934529.7574   20934533.4034
   2755121.75047   2137442.62745  25231841.3614   25231839.3544   25231849.9544
    868764.31748    674593.25646  23404387.1934   23404387.3404   23404395.6174
  -6568031.14047  -5095602.43145  24384405.2314   24384406.1254   24384411.6154
   1449795.36348   1126592.74546  22627902.2274   22627902.2224   22627905.8344
  -1118463.41948   -865319.05046  22169368.8084   22169368.7384   22169373.7214
  -2682200.09149  -1911727.81148  20241258.0214   20241257.7224   20241261.9264
 97  6 10  3  5 50.9990000  0  7G21G17G23G25G 3G31G 1
  -1054771.32549   -817315.00447  20934416.2064   20934415.7324   20934419.4564
   2757214.47247   2139073.31745  25232239.5194   25232237.3974   25232248.2484
    869451.31048    675128.56846  23404518.0414   23404518.3474   23404526.3734
  -6572848.02247  -5099355.84245  24383488.5034   24383490.6564   24383494.9614
   1451092.18148   1127603.25246  22628148.9804   22628148.7424   22628153.1194
  -1118852.07048   -865621.90546  22169294.9294   22169294.6664   22169299.6194
  -2683740.47449  -1912928.11048  20240964.8884   20240964.4424   20240968.7984
 97  6 10  3  5 51.9990000  0  7G21G17G23G25G 3G31G 1
  -1055370.19649   -817781.65747  20934302.2414   20934301.8204   20934305.5874
   2759307.46047   2140704.21445  25232637.6804   25232635.8744   25232646.5504
    870138.46548    675664.01146  23404648.8724   23404648.9094   23404656.9904
  -6577664.86547  -5103109.22645  24382571.8134   24382572.8834   24382577.7184
   1452389.32748   1128614.01746  22628395.7994   22628395.1034   22628399.7034
  -1119240.05348   -865924.22946  22169221.1554   22169220.6354   22169225.2174
  -2685280.23349  -1914127.92348  20240671.8824   20240671.4804   20240675.7514
 97  6 10  3  5 52.9990000  0  7G21G17G23G25G 3G31G 1
  -1055968.74449   -818248.05747  20934188.3254   20934188.0954   20934191.6194
   2761400.69647   2142335.30445  25233035.7684   25233034.2054   25233043.5584
    870825.81848    676199.60546  23404779.8454   23404780.1084   23404788.0714
  -6582481.64547  -5106862.55745  24381655.1324   24381655.6794   24381661.3154
   1453686.85548   1129625.07546  22628642.6924   22628642.4354   22628646.0304
  -1119627.35948   -866226.02746  22169147.4874   22169146.4404   22169151.4204
  -2686819.34749  -1915327.23248  20240379.0124   20240378.6024   20240382.8714
 97  6 10  3  5 53.9990000  0  7G21G17G23G25G 3G31G 1
  -1056567.13749   -818714.33947  20934074.4454   20934074.2274   20934077.7144
   2763494.01647   2143966.46045  25233433.6774   25233432.4804   25233442.3844
    871513.17648    676735.19846  23404910.7364   23404911.2404   23404918.6724
  -6587298.52147  -5110615.96845  24380738.5374   24380738.6284   24380744.3124
   1454984.59848   1130636.30246  22628889.6404   22628889.5764   22628893.9974
  -1120014.16348   -866527.43546  22169073.8774   22169073.6304   22169078.1534
  -2688357.98749  -1916526.17448  20240086.2434   20240085.9804   20240090.1164
 97  6 10  3  5 54.9990000  0  7G21G17G23G25G 3G31G 1
  -1057165.57249   -819180.65447  20933960.5924   20933960.1914   20933963.9564
   2765587.28447   2145597.57845  25233831.8284   25233830.7694   25233839.4484
    872200.36748    677270.67246  23405041.5844   23405041.8154   23405049.3514
  -6592115.69747  -5114369.61245  24379821.8374   24379822.1134   24379827.3044
   1456282.32748   1131647.51846  22629136.5704   22629136.2104   22629140.7734
  -1120400.65048   -866828.58846  22169000.3374   22168999.7644   22169004.6084
  -2689896.34649  -1917724.89348  20239793.5294   20239793.1434   20239797.3794
 97  6 10  3  5 55.9990000  0  7G21G17G23G25G 3G31G 1
  -1057763.84249   -819646.84047  20933846.7554   20933846.3024   20933850.1194
   2767680.63647   2147228.75945  25234230.0134   25234229.4824   25234237.1044
    872887.61048    677806.18846  23405172.4174   23405171.8874   23405180.1214
  -6596932.94647  -5118123.30945  24378905.1404   24378904.9004   24378910.9314
   1457580.30148   1132658.92046  22629383.4994   22629383.2884   22629388.2444
  -1120786.59548   -867129.32746  22168926.8794   22168925.9364   22168931.4164
  -2691434.19849  -1918923.22048  20239500.8674   20239500.3834   20239504.8764
 97  6 10  3  5 56.9990000  0  7G21G17G23G25G 3G31G 1
  -1058362.15449   -820113.05747  20933732.9004   20933732.5344   20933736.2554
   2769773.89947   2148859.87145  25234628.2364   25234627.1364   25234635.8744
    873574.66148    678341.55846  23405303.1944   23405302.1504   23405311.3554
  -6601750.50647  -5121877.25245  24377988.3204   24377988.1154   24377994.9484
   1458878.27848   1133670.33546  22629630.4194   22629630.5414   22629635.1264
  -1121172.22948   -867429.81846  22168853.4984   22168852.4434   22168857.9984
  -2692971.77449  -1920121.32948  20239208.2664   20239207.8004   20239212.0624
 97  6 10  3  5 57.9990000  0  7G21G17G23G25G 3G31G 1
  -1058960.33149   -820579.17047  20933619.0764   20933618.8194   20933622.3204
   2771867.24747   2150491.05045  25235026.5054   25235025.1104   25235033.7954
    874261.72948    678876.93946  23405433.7604   23405432.5504   23405441.9814
  -6606568.18847  -5125631.28945  24377071.5084   24377071.7384   24377077.8944
   1460176.42348   1134681.87646  22629877.3924   22629877.2264   22629881.9714
  -1121557.37648   -867729.94046  22168780.1494   22168779.7914   22168784.3964
  -2694508.88749  -1921319.07948  20238915.7464   20238915.4814   20238919.6014
 97  6 10  3  5 58.9990000  0  7G21G17G23G25G 3G31G 1
  -1059558.31349   -821045.12947  20933505.3014   20933504.8784   20933508.6494
   2773960.70247   2152122.31245  25235424.8534   25235423.0894   25235432.4684
    874948.85748    679412.36846  23405564.3324   23405562.9754   23405572.6384
  -6611385.93747  -5129385.38145  24376154.7544   24376155.5384   24376161.7434
   1461474.82148   1135693.61446  22630124.3624   22630123.8494   22630128.9084
  -1121941.97548   -868029.62746  22168706.9194   22168706.1754   22168711.1334
  -2696045.47749  -1922516.42448  20238623.3294   20238623.0664   20238627.2884
 97  6 10  3  5 59.9990000  0  7G21G17G23G25G 3G31G 1
  -1060156.23449   -821511.04247  20933391.5684   20933391.0624   20933394.9234
   2776054.15047   2153753.56745  25235823.1994   25235821.6154   25235831.0334
    875635.90748    679947.73446  23405694.9744   23405694.0894   23405703.3684
  -6616203.88947  -5133139.62545  24375237.9984   24375238.7014   24375244.4504
   1462773.33248   1136705.43846  22630371.3924   22630371.0004   22630376.0124
  -1122326.16648   -868328.99946  22168633.7404   22168632.7504   22168638.1474
  -2697581.68049  -1923713.46448  20238330.9954   20238330.4984   20238334.9894
 97  6 10  3  6  0.9990000  0  7G21G17G23G25G 3G31G 1
  -1060753.73249   -821976.62447  20933277.9304   20933277.3404   20933281.2804
   2778147.97247   2155385.11345  25236221.6104   25236220.2734   25236229.3794
    876323.23548    680483.31646  23405825.7834   23405825.0534   23405833.9354
  -6621021.68647  -5136893.75145  24374321.2794   24374322.7124   24374327.9324
   1464072.29648   1137717.61946  22630618.5474   22630618.5504   22630623.1044
  -1122709.61248   -868627.78846  22168560.6784   22168559.7804   22168565.6874
  -2699117.15349  -1924909.93648  20238038.8054   20238038.3204   20238042.6274
 97  6 10  3  6  1.9990000  0  7G21G17G23G25G 3G31G 1
  -1061350.78649   -822441.85947  20933164.3464   20933163.7504   20933167.5634
   2780242.12847   2157016.92145  25236620.0774   25236618.8524   25236627.1944
    877010.86448    681019.13146  23405956.5994   23405955.6884   23405964.6604
  -6625839.29547  -5140647.72645  24373404.5634   24373405.8384   24373411.1384
   1465371.77348   1138730.19546  22630865.8094   22630865.6694   22630870.1584
  -1123092.26048   -868925.94846  22168487.7954   22168486.9844   22168492.3304
  -2700651.84849  -1926105.80248  20237746.7894   20237746.2804   20237750.6354
 97  6 10  3  6  2.9990000  0  7G21G17G23G25G 3G31G 1
  -1061947.56449   -822906.88347  20933050.7624   20933050.2074   20933053.8844
   2782336.47847   2158648.87845  25237018.6214   25237017.3694   25237026.0064
    877698.65748    681555.07146  23406087.3854   23406086.9504   23406095.3474
  -6630656.91347  -5144401.71545  24372487.9094   24372488.7994   24372493.5944
   1466671.57748   1139743.03346  22631113.1114   22631112.8664   22631117.7244
  -1123474.29448   -869223.63846  22168415.0734   22168414.8784   22168419.8864
  -2702185.95649  -1927301.21148  20237454.8884   20237454.4344   20237458.5534
 97  6 10  3  6  3.9990000  0  7G21G17G23G25G 3G31G 1
  -1062543.74349   -823371.43847  20932937.3104   20932936.7844   20932940.5564
   2784431.31847   2160281.22245  25237417.1654   25237416.2654   25237424.4414
    878386.91848    682091.37946  23406218.1704   23406218.3044   23406226.5284
  -6635474.17647  -5148155.42645  24371571.2804   24371572.6824   24371577.1784
   1467972.03148   1140756.37446  22631360.6224   22631360.0934   22631365.2594
  -1123855.36848   -869520.58246  22168342.5634   22168341.9434   22168347.0924
  -2703719.13149  -1928495.89248  20237163.1764   20237162.7124   20237166.8994
 97  6 10  3  6  4.9990000  0  7G21G17G23G25G 3G31G 1
  -1063139.39949   -823835.58547  20932823.9884   20932823.3194   20932827.3424
   2786526.66747   2161913.96045  25237815.7164   25237814.4984   25237823.5484
    879075.55948    682627.98046  23406349.1354   23406349.1344   23406357.2824
  -6640291.16047  -5151908.92345  24370654.7054   24370656.2404   24370660.9324
   1469273.07248   1141770.17146  22631608.2794   22631608.1614   22631612.9864
  -1124235.57148   -869816.83946  22168270.2464   22168269.5244   22168275.0124
  -2705251.44749  -1929689.90448  20236871.6154   20236871.1934   20236875.3234
 97  6 10  3  6  5.9990000  0  7G21G17G23G25G 3G31G 1
  -1063734.78449   -824299.52347  20932710.6914   20932710.1344   20932713.9544
   2788622.14547   2163546.79945  25238214.4114   25238213.3044   25238222.3434
    879764.33048    683164.68646  23406480.1094   23406480.7634   23406487.8334
  -6645108.15247  -5155662.41545  24369738.1234   24369739.0414   24369744.1564
   1470574.45248   1142784.22246  22631855.9254   22631855.5664   22631860.6164
  -1124615.15648   -870112.62746  22168198.0294   22168197.1314   22168203.3384
  -2706783.17949  -1930883.46248  20236580.1874   20236579.6634   20236584.0664
 97  6 10  3  6  6.9990000  0  7G21G17G23G25G 3G31G 1
  -1064329.79549   -824763.16847  20932597.4594   20932596.8504   20932600.7604
   2790717.94347   2165179.88445  25238613.1424   25238611.8244   25238621.5774
    880453.34248    683701.57846  23406611.2164   23406610.7554   23406619.1124
  -6649924.99647  -5159415.79545  24368821.5824   24368822.0764   24368826.0194
   1471876.26648   1143798.62846  22632103.6244   22632103.0834   22632108.4384
  -1124993.99048   -870407.82546  22168125.9594   22168125.0344   22168130.3424
  -2708314.20849  -1932076.47248  20236288.8764   20236288.2684   20236292.5914
 97  6 10  3  6  7.9990000  0  7G21G17G23G25G 3G31G 1
  -1064924.48249   -825226.56147  20932484.3104   20932483.5674   20932487.5474
   2792813.95847   2166813.14245  25239011.8754   25239010.8444   25239020.3784
    881142.55948    684238.63346  23406742.3084   23406741.2824   23406750.7254
  -6654741.76647  -5163169.11945  24367905.0824   24367904.8474   24367909.7124
   1473178.47448   1144813.33246  22632351.4334   22632351.5264   22632355.5834
  -1125372.15948   -870702.50546  22168054.0224   22168053.3994   22168058.3604
  -2709844.58749  -1933268.97448  20235997.6744   20235997.1514   20236001.5754
 97  6 10  3  6  8.9990000  0  7G21G17G23G25G 3G31G 1
  -1065519.40149   -825690.13447  20932371.1024   20932370.5554   20932374.4404
   2794909.65347   2168446.14845  25239410.6854   25239409.3694   25239419.1614
    881831.40348    684775.39346  23406873.3714   23406872.3934   23406882.3834
  -6659559.01547  -5166922.81845  24366988.4384   24366987.9764   24366993.0974
   1474480.51848   1145827.91046  22632599.2104   22632599.4214   22632603.6564
  -1125750.21548   -870997.09646  22167982.1224   22167981.4864   22167987.2594
  -2711374.87349  -1934461.40748  20235706.5164   20235705.9264   20235710.2124
 97  6 10  3  6  9.9990000  0  7G21G17G23G25G 3G31G 1
  -1066114.55849   -826153.89247  20932257.8384   20932257.1784   20932260.9294
   2797005.06347   2170078.93345  25239809.3004   25239808.1094   25239818.1824
    882519.90848    685311.89646  23407004.3634   23407003.6134   23407013.2224
  -6664376.73547  -5170676.88545  24366071.7304   24366071.3514   24366076.5074
   1475782.41048   1146842.37046  22632846.8934   22632846.6894   22632851.4854
  -1126128.14248   -871291.58346  22167910.2134   22167909.7044   22167914.9574
  -2712905.06449  -1935653.76448  20235415.3514   20235414.6434   20235418.9854
 97  6 10  3  6 10.9990000  0  7G21G17G23G25G 3G31G 1
  -1066709.72449   -826617.65947  20932144.5474   20932143.8914   20932147.7264
   2799100.35147   2171711.61845  25240208.0904   25240206.9604   25240217.1674
    883208.24648    685848.26646  23407135.3114   23407134.3294   23407143.9634
  -6669194.70847  -5174431.14245  24365154.9604   24365153.9284   24365159.7024
   1477084.35848   1147856.87646  22633094.5604   22633094.5014   22633098.7914
  -1126505.69848   -871585.78546  22167838.3974   22167837.8614   22167842.7754
  -2714434.94049  -1936845.87648  20235124.2354   20235123.6064   20235127.9974
 97  6 10  3  6 11.9990000  0  7G21G17G23G25G 3G31G 1
  -1067305.15149   -827081.62947  20932031.1994   20932030.6714   20932034.4414
   2801195.29647   2173344.03845  25240606.7594   25240605.7934   25240616.0304
    883896.20448    686384.32946  23407266.1094   23407265.4014   23407274.5754
  -6674013.16347  -5178185.77745  24364238.1554   24364237.3564   24364243.5734
   1478386.12848   1148871.23546  22633342.2414   22633342.0804   22633345.9504
  -1126883.13648   -871879.89346  22167766.6154   22167766.1644   22167770.8854
  -2715964.74549  -1938037.93048  20234833.1404   20234832.4484   20234836.6634
 97  6 10  3  6 12.9990000  0  7G21G17G23G25G 3G31G 1
  -1067900.34149   -827545.41547  20931917.9034   20931917.3344   20931921.2234
   2803290.40947   2174976.58845  25241005.4684   25241004.6444   25241014.8914
    884584.25848    686920.47546  23407396.8564   23407396.0404   23407405.8544
  -6678831.63347  -5181940.41945  24363321.2264   24363320.1144   24363327.0624
   1479688.18548   1149885.82446  22633589.9654   22633589.7454   22633594.1944
  -1127259.98948   -872173.54446  22167694.9404   22167694.3424   22167699.2884
  -2717494.00649  -1939229.56248  20234542.1344   20234541.4594   20234545.7074
 97  6 10  3  6 13.9990000  0  7G21G17G23G25G 3G31G 1
  -1068495.25249   -828008.98247  20931804.6554   20931804.1084   20931808.1014
   2805385.69547   2176609.27545  25241404.2484   25241403.6984   25241413.6384
    885272.47648    687456.74446  23407527.5734   23407526.9584   23407536.6214
  -6683650.06647  -5185695.04445  24362404.3774   24362404.0554   24362409.8334
   1480990.59248   1150900.68646  22633837.7874   22633837.6254   22633842.4074
  -1127636.19748   -872466.69546  22167623.4024   22167622.6684   22167627.4354
  -2719022.65749  -1940420.71648  20234251.2224   20234250.4724   20234254.8714
 97  6 10  3  6 14.9990000  0  7G21G17G23G25G 3G31G 1
  -1069089.69549   -828472.18347  20931691.5164   20931690.9334   20931694.7814
   2807481.36247   2178242.25845  25241803.0994   25241802.4794   25241812.2574
    885960.99348    687993.25446  23407658.4444   23407657.8554   23407667.7694
  -6688468.27747  -5189449.49045  24361487.5114   24361486.9484   24361492.2194
   1482293.50448   1151915.94646  22634085.7104   22634086.0864   22634090.8714
  -1128011.58148   -872759.20346  22167552.0284   22167550.5924   22167556.1924
  -2720550.52549  -1941611.26148  20233960.4494   20233959.8114   20233964.0734
 97  6 10  3  6 15.9990000  0  7G21G17G23G25G 3G31G 1
  -1069683.51849   -828934.90347  20931578.4684   20931577.8394   20931581.9994
   2809577.56747   2179875.66345  25242202.0344   25242201.2424   25242210.8814
    886650.02548    688530.15746  23407789.4314   23407788.4854   23407798.3454
  -6693286.09647  -5193203.63545  24360570.7294   24360570.3574   24360574.8084
   1483597.10948   1152931.73846  22634333.7844   22634334.1384   22634338.9734
  -1128385.97448   -873050.93646  22167480.8164   22167480.0364   22167484.6254
  -2722077.44049  -1942801.06548  20233669.8664   20233668.9384   20233673.5374
 97  6 10  3  6 16.9990000  0  7G21G17G23G25G 3G31G 1
  -1070276.90449   -829397.28147  20931465.5094   20931464.9204   20931469.1274
   2811674.12147   2181509.33845  25242601.0734   25242600.2624   25242610.0034
    887339.35148    689067.29446  23407920.5814   23407919.6394   23407929.0144
  -6698103.71047  -5196957.61745  24359653.9814   24359653.6294   24359657.7454
   1484901.21748   1153947.93146  22634581.9624   22634581.8264   22634587.0874
  -1128759.58048   -873342.06146  22167409.7614   22167408.4674   22167413.6474
  -2723603.59649  -1943990.27948  20233379.4154   20233378.7114   20233383.1694
 97  6 10  3  6 17.9990000  0  7G21G17G23G25G 3G31G 1
  -1070869.73949   -829859.23247  20931352.6914   20931352.1434   20931356.1364
   2813771.13447   2183143.37045  25243000.2314   25242999.4754   25243009.1304
    888029.12548    689604.78346  23408051.8644   23408050.8764   23408060.5494
  -6702921.01547  -5200711.36045  24358737.3674   24358736.8314   24358740.7144
   1486205.94348   1154964.59546  22634830.2234   22634830.5164   22634834.5664
  -1129132.25148   -873632.45646  22167338.8814   22167337.6984   22167342.8424
  -2725128.86949  -1945178.80548  20233089.1064   20233088.6114   20233092.9844
 97  6 10  3  6 18.9990000  0  7G21G17G23G25G 3G31G 1
  -1071462.16449   -830320.86247  20931239.9384   20931239.5914   20931243.4524
   2815868.50047   2184777.67945  25243399.4304   25243398.6174   25243407.8934
    888719.19348    690142.49646  23408183.1304   23408182.6724   23408192.2784
  -6707738.13547  -5204464.95145  24357820.7114   24357820.1024   24357824.3554
   1487511.13648   1155981.62946  22635078.5974   22635079.0524   22635083.2344
  -1129504.14748   -873922.24746  22167268.1534   22167267.5194   22167272.1894
  -2726653.41649  -1946366.76248  20232798.9524   20232798.3334   20232802.8394
 97  6 10  3  6 19.9990000  0  7G21G17G23G25G 3G31G 1
  -1072054.42549   -830782.36647  20931127.2334   20931126.8294   20931130.8064
   2817965.90147   2186412.01845  25243798.6364   25243797.7534   25243807.2604
    889409.27048    690680.21146  23408314.3384   23408314.4464   23408323.5114
  -6712555.32547  -5208218.60045  24356903.9254   24356903.1644   24356908.2834
   1488816.54948   1156998.83046  22635327.0014   22635327.8274   22635331.5134
  -1129875.54548   -874211.65046  22167197.5294   22167196.1664   22167201.6204
  -2728177.48249  -1947554.34848  20232508.8574   20232508.4234   20232512.7754
 97  6 10  3  6 20.9990000  0  7G21G17G23G25G 3G31G 1
  -1072646.70349   -831243.88347  20931014.5254   20931014.2174   20931017.9674
   2820063.19147   2188046.26845  25244197.8974   25244197.1044   25244206.1264
    890099.21648    691217.82746  23408445.7104   23408446.2534   23408455.0214
  -6717372.79947  -5211972.47245  24355987.1684   24355986.7844   24355991.9094
   1490122.01448   1158016.07546  22635575.4374   22635576.3544   22635579.7364
  -1130246.58348   -874500.77146  22167126.9724   22167125.7394   22167130.7944
  -2729701.23749  -1948741.69148  20232218.8454   20232218.3904   20232222.7284
 97  6 10  3  6 21.9990000  0  7G21G17G23G25G 3G31G 1
  -1073238.94949   -831705.37347  20930901.8134   20930901.4854   20930905.4374
   2822160.48547   2189680.52145  25244597.0284   25244596.3914   25244605.3034
    890789.07748    691755.37746  23408577.0984   23408577.6254   23408587.1084
  -6722190.45647  -5215726.48845  24355070.3624   24355069.5624   24355074.1064
   1491427.56648   1159033.38646  22635823.8574   22635824.4354   22635829.0454
  -1130617.18648   -874789.55446  22167056.4684   22167055.2624   22167060.4184
  -2731224.61449  -1949928.73948  20231928.9024   20231928.5364   20231932.9304
 97  6 10  3  6 22.9990000  0  7G21G17G23G25G 3G31G 1
  -1073831.53449   -832167.12647  20930789.0184   20930788.4074   20930792.7054
   2824257.29847   2191314.39845  25244996.0154   25244995.6504   25245004.3424
    891478.46048    692292.55646  23408708.4854   23408709.0864   23408718.2934
  -6727008.69747  -5219480.95845  24354153.4504   24354153.1994   24354157.5764
   1492732.84848   1160050.49246  22636072.2574   22636072.6994   22636077.6644
  -1130987.77948   -875078.33446  22166985.9134   22166984.2914   22166989.4854
  -2732748.00749  -1951115.79748  20231638.9664   20231638.5784   20231643.1014
 97  6 10  3  6 23.9990000  0  7G21G17G23G25G 3G31G 1
  -1074423.84449   -832628.66747  20930676.2514   20930675.7794   20930680.0904
   2826354.29947   2192948.42145  25245395.0764   25245394.9194   25245403.5854
    892167.96948    692829.83946  23408839.8534   23408840.4134   23408849.4814
  -6731826.90547  -5223235.40245  24353236.5394   24353236.0804   24353242.0534
   1494038.45848   1161067.85346  22636320.7364   22636321.0194   22636325.6524
  -1131357.73748   -875366.61446  22166915.4834   22166914.6154   22166919.1724
  -2734270.79049  -1952302.38048  20231349.1424   20231348.7984   20231353.2224
 97  6 10  3  6 24.9990000  0  7G21G17G23G25G 3G31G 1
  -1075016.13949   -833090.19547  20930563.5314   20930563.0904   20930567.2274
   2828451.20947   2194582.37845  25245794.0664   25245793.6434   25245802.5524
    892857.38148    693367.04246  23408971.2654   23408971.8694   23408980.5874
  -6736645.32347  -5226990.01145  24352319.5944   24352319.9364   24352325.1484
   1495344.14048   1162085.26746  22636569.2024   22636570.0674   22636574.8454
  -1131727.30548   -875654.58846  22166845.0834   22166843.7994   22166848.6354
  -2735793.23549  -1953488.70148  20231059.3774   20231059.2564   20231063.5554
 97  6 10  3  6 25.9990000  0  7G21G17G23G25G 3G31G 1
  -1075608.02749   -833551.40647  20930450.9004   20930450.3124   20930454.5894
   2830548.43347   2196216.57645  25246193.2114   25246193.0024   25246201.2654
    893547.08348    693904.48046  23409102.6264   23409103.0594   23409111.4034
  -6741463.57747  -5230744.49645  24351402.5884   24351402.7304   24351408.1564
   1496650.28548   1163103.03846  22636817.7604   22636818.0804   22636822.8244
  -1132096.10948   -875941.96546  22166774.8054   22166773.8004   22166778.7904
  -2737314.93949  -1954674.44548  20230769.7564   20230769.7584   20230774.0154
 97  6 10  3  6 26.9990000  0  7G21G17G23G25G 3G31G 1
  -1076199.81449   -834012.53947  20930338.2924   20930337.7374   20930341.7434
   2832645.62147   2197850.74645  25246592.3654   25246591.8934   25246600.4824
    894236.74348    694441.87946  23409233.9974   23409233.6554   23409242.0794
  -6746281.97347  -5234499.08645  24350485.5874   24350486.0214   24350491.7424
   1497956.57948   1164120.93046  22637066.3744   22637067.1974   22637071.5294
  -1132464.46248   -876228.99446  22166704.6374   22166703.5924   22166708.8524
  -2738836.22249  -1955859.85948  20230480.2414   20230480.1364   20230484.4264
 97  6 10  3  6 27.9990000  0  7G21G17G23G25G 3G31G 1
  -1076790.98549   -834473.19047  20930225.7934   20930225.0804   20930229.2674
   2834743.33147   2199485.32145  25246991.6554   25246990.9224   25246999.8524
    894926.90148    694979.66546  23409365.3614   23409365.4144   23409373.4954
  -6751100.00647  -5238253.39645  24349568.6234   24349569.0024   24349573.8144
   1499263.54148   1165139.34246  22637315.1214   22637315.6334   22637320.1604
  -1132831.82948   -876515.25146  22166634.6384   22166633.9214   22166638.4744
  -2740356.56249  -1957044.53848  20230190.8864   20230190.7734   20230195.1384
 97  6 10  3  6 28.9990000  0  7G21G17G23G25G 3G31G 1
  -1077381.38649   -834933.24447  20930113.4124   20930112.7624   20930116.9124
   2836841.68647   2201120.40045  25247390.9524   25247390.1834   25247398.8634
    895617.69448    695517.95046  23409496.9764   23409496.7674   23409504.9094
  -6755917.49747  -5242007.28145  24348651.7624   24348651.9434   24348657.1384
   1500571.30548   1166158.38046  22637564.0254   22637564.2434   22637568.6414
  -1133198.08248   -876800.64946  22166564.8744   22166563.7654   22166568.6004
  -2741875.81149  -1958228.36948  20229901.7204   20229901.7264   20229906.0464
 97  6 10  3  6 29.9990000  0  7G21G17G23G25G 3G31G 1
  -1077971.33849   -835392.94747  20930001.1174   20930000.5184   20930004.8164
   2838940.36647   2202755.73545  25247790.2704   25247789.9734   25247797.8574
    896308.80648    696056.48046  23409628.6334   23409628.1184   23409636.8314
  -6760734.80047  -5245761.02345  24347734.9284   24347735.3504   24347741.0084
   1501879.58348   1167177.81346  22637813.0634   22637813.5774   22637818.2494
  -1133563.51548   -877085.39946  22166495.2724   22166494.4634   22166499.6174
  -2743394.28249  -1959411.59448  20229612.7434   20229612.7444   20229617.0844
 97  6 10  3  6 30.9990000  0  7G21G17G23G25G 3G31G 1
  -1078560.92549   -835852.36647  20929888.8894   20929888.4324   20929892.6604
   2841039.28447   2204391.25345  25248189.7364   25248189.0064   25248197.0504
    897000.13448    696595.17946  23409760.2944   23409759.9644   23409768.3614
  -6765551.99047  -5249514.67645  24346818.1514   24346818.7194   24346824.5944
   1503188.25048   1168197.55946  22638062.1654   22638062.0874   22638067.1314
  -1133928.20648   -877369.57846  22166425.8014   22166424.6824   22166429.9804
  -2744912.06849  -1960594.28648  20229323.8904   20229323.8534   20229328.1924
 97  6 10  3  6 31.9990000  0  7G21G17G23G25G 3G31G 1
  -1079150.25949   -836311.58847  20929776.7144   20929776.1704   20929780.4854
   2843138.33247   2206026.87245  25248589.1204   25248588.4144   25248596.4734
    897691.58848    697133.97646  23409891.8404   23409891.0404   23409899.8714
  -6770369.18647  -5253268.33445  24345901.4434   24345902.1414   24345907.7854
   1504497.23048   1169217.53846  22638311.3014   22638312.0024   22638316.2694
  -1134292.30648   -877653.29546  22166356.5024   22166355.7354   22166361.3024
  -2746429.26849  -1961776.52048  20229035.2034   20229035.2054   20229039.7284
 97  6 10  3  6 32.9990000  0  7G21G17G23G25G 3G31G 1
  -1079739.57949   -836770.80047  20929664.5314   20929663.9194   20929668.3404
   2845237.27447   2207662.40545  25248988.6464   25248987.4574   25248996.0754
    898382.88648    697672.65046  23410023.4344   23410022.1774   23410030.9654
  -6775186.63047  -5257022.18445  24344984.6764   24344985.6104   24344991.0084
   1505806.25848   1170237.56246  22638560.4714   22638561.5284   22638565.2684
  -1134656.05048   -877936.73146  22166287.2714   22166286.6574   22166291.6534
  -2747946.14749  -1962958.50348  20228746.6154   20228746.5684   20228750.8854
 97  6 10  3  6 33.9990000  0  7G21G17G23G25G 3G31G 1
  -1080329.00149   -837230.09047  20929552.2954   20929551.9784   20929556.0974
   2847335.94347   2209297.73045  25249387.9734   25249387.3454   25249394.9354
    899073.91548    698211.11346  23410154.9774   23410153.8184   23410163.1344
  -6780004.45047  -5260776.33345  24344067.8394   24344068.2584   24344074.3074
   1507115.20048   1171257.51246  22638809.6224   22638810.0264   22638814.1714
  -1135019.57648   -878220.00146  22166218.1454   22166217.7304   22166222.3704
  -2749462.82949  -1964140.33148  20228458.0794   20228457.7754   20228462.2434
 97  6 10  3  6 34.9990000  0  7G21G17G23G25G 3G31G 1
  -1080918.53649   -837689.46747  20929440.0744   20929439.7044   20929443.9214
   2849434.38947   2210932.88245  25249787.2814   25249786.0014   25249794.1704
    899764.67748    698749.36646  23410286.3934   23410285.1914   23410294.3914
  -6784822.64947  -5264530.77345  24343150.9294   24343151.9824   24343157.3204
   1508424.06548   1172277.40746  22639058.7694   22639058.4294   22639062.9514
  -1135382.87748   -878503.09146  22166149.0274   22166148.7454   22166153.7434
  -2750979.31549  -1965322.00948  20228169.5494   20228169.2234   20228173.5944
 97  6 10  3  6 35.9990000  0  7G21G17G23G25G 3G31G 1
  -1081507.91449   -838148.72347  20929327.8984   20929327.5274   20929332.0304
   2851532.83547   2212568.03245  25250186.4744   25250185.4644   25250193.8494
    900455.44048    699287.62446  23410417.7894   23410416.7774   23410425.8874
  -6789640.96047  -5268285.29345  24342233.9754   24342234.7684   24342239.7334
   1509733.13548   1173297.46046  22639307.9864   22639307.6794   22639312.8734
  -1135745.68448   -878785.80046  22166080.0134   22166079.0784   22166083.5884
  -2752495.35049  -1966503.33348  20227881.0974   20227880.8504   20227885.2654
 97  6 10  3  6 36.9990000  0  7G21G17G23G25G 3G31G 1
  -1082097.20549   -838607.91047  20929215.7034   20929215.4114   20929219.8114
   2853631.21747   2214203.13245  25250585.7904   25250584.8824   25250592.5404
    901146.09248    699825.79446  23410549.0714   23410548.3324   23410557.3304
  -6794459.45147  -5272039.96445  24341317.0024   24341317.6224   24341323.0464
   1511042.30448   1174317.59146  22639557.2284   22639557.0114   22639561.7094
  -1136108.09148   -879068.20446  22166011.0374   22166009.8294   22166015.0954
  -2754011.00249  -1967684.36248  20227592.7094   20227592.3074   20227596.8594
 97  6 10  3  6 37.9990000  0  7G21G17G23G25G 3G31G 1
  -1082686.15049   -839066.82747  20929103.6124   20929103.2694   20929107.5164
   2855729.80647   2215838.39645  25250985.0044   25250984.2904   25250991.5824
    901836.96348    700364.13146  23410680.4924   23410679.4574   23410688.6244
  -6799277.83147  -5275794.54645  24340400.0744   24340400.9194   24340405.0814
   1512351.86648   1175338.03146  22639806.4964   22639806.2034   22639810.7284
  -1136469.79548   -879350.05146  22165942.1674   22165941.1554   22165946.4564
  -2755525.99649  -1968864.87648  20227304.4344   20227304.0744   20227308.5684
 97  6 10  3  6 38.9990000  0  7G21G17G23G25G 3G31G 1
  -1083274.79749   -839525.51347  20928991.6204   20928991.2104   20928995.5474
   2857828.55047   2217473.77745  25251384.3714   25251383.1934   25251390.9604
    902527.93948    700902.55146  23410811.9924   23410811.2764   23410820.4194
  -6804096.19047  -5279549.10645  24339483.2214   24339484.3324   24339488.3804
   1513661.77248   1176358.73746  22640055.8334   22640055.8004   22640060.0334
  -1136830.86748   -879631.39746  22165873.4244   22165873.4694   22165878.4704
  -2757040.39449  -1970044.92448  20227016.2784   20227015.9434   20227020.3964
 97  6 10  3  6 39.9990000  0  7G21G17G23G25G 3G31G 1
  -1083862.80549   -839983.70147  20928879.7154   20928879.4424   20928883.9294
   2859927.80647   2219109.55945  25251783.8624   25251782.5534   25251790.6804
    903219.38248    701441.34646  23410943.5864   23410943.0634   23410952.3414
  -6808914.18347  -5283303.38645  24338566.3964   24338567.2604   24338571.5944
   1514972.32948   1177379.94646  22640305.2814   22640305.5034   22640309.1834
  -1137190.98848   -879912.01246  22165804.8844   22165804.3764   22165809.2494
  -2758553.85749  -1971224.24548  20226728.2994   20226727.8364   20226732.4034
 97  6 10  3  6 40.9990000  0  7G21G17G23G25G 3G31G 1
  -1084450.50049   -840441.64347  20928767.9014   20928767.6104   20928772.1104
   2862027.19947   2220745.44945  25252183.3874   25252182.5564   25252189.8284
    903910.96748    701980.24646  23411075.0934   23411074.5854   23411083.9274
  -6813732.11147  -5287057.60745  24337649.5614   24337649.5884   24337655.3204
   1516283.24948   1178401.44146  22640554.7674   22640554.6214   22640558.9354
  -1137550.45048   -880192.11446  22165736.4454   22165735.7364   22165740.4054
  -2760066.70949  -1972403.09248  20226440.4394   20226439.9064   20226444.3964
 97  6 10  3  6 41.9990000  0  7G21G17G23G25G 3G31G 1
  -1085037.35949   -840898.93647  20928656.2374   20928655.9754   20928660.4394
   2864127.28947   2222381.87945  25252583.0574   25252582.2984   25252589.5664
    904603.23148    702519.67546  23411206.7794   23411206.0294   23411215.6964
  -6818549.47347  -5290811.39345  24336732.8554   24336733.0584   24336738.9014
   1517595.04448   1179423.61746  22640804.3964   22640803.7984   22640809.6154
  -1137908.72948   -880471.29246  22165668.1944   22165668.2034   22165671.8954
  -2761578.42149  -1973581.04748  20226152.7744   20226152.3364   20226156.7374
 97  6 10  3  6 42.9990000  0  7G21G17G23G25G 3G31G 1
  -1085624.10049   -841356.13947  20928544.5724   20928544.0714   20928548.7164
   2866227.36747   2224018.30345  25252982.5404   25252981.7284   25252990.1604
    905295.43848    703059.06146  23411338.4254   23411337.0454   23411346.9814
  -6823366.98047  -5294565.29245  24335816.1554   24335816.2224   24335821.8824
   1518906.98248   1180445.91446  22641054.0724   22641053.3074   22641058.5964
  -1138266.58648   -880750.14746  22165599.9594   22165599.2394   22165603.8684
  -2763089.72749  -1974758.69048  20225865.2084   20225864.7594   20225869.3374
 97  6 10  3  6 43.9990000  0  7G21G17G23G25G 3G31G 1
  -1086210.32949   -841812.94147  20928432.9764   20928432.5474   20928437.2224
   2868327.78546   2225654.99145  25253382.1734   25253381.5134   25253389.8004
    905987.96748    703598.70246  23411470.0124   23411468.0864   23411478.6594
  -6828184.23747  -5298318.99945  24334899.5274   24334899.1544   24334904.9994
   1520219.45948   1181468.61546  22641303.7934   22641303.6174   22641307.9554
  -1138623.59448   -881028.33146  22165531.8794   22165531.1234   22165536.1474
  -2764600.22749  -1975935.70148  20225577.7804   20225577.3404   20225581.8454
 97  6 10  3  6 44.9990000  0  7G21G17G23G25G 3G31G 1
  -1086796.48249   -842269.68247  20928321.4104   20928320.9944   20928325.5664
   2870428.17446   2227291.65745  25253781.6854   25253781.0424   25253789.2334
    906680.42248    704138.27646  23411601.5274   23411599.7844   23411610.4014
  -6833001.66347  -5302072.83545  24333982.8424   24333982.4664   24333988.2394
   1521532.06848   1182491.42646  22641553.5564   22641553.2664   22641557.9514
  -1138980.20548   -881306.21146  22165463.8724   22165463.8594   22165468.2854
  -2766110.34449  -1977112.41548  20225290.4504   20225289.8434   20225294.3684
 97  6 10  3  6 45.9990000  0  7G21G17G23G25G 3G31G 1
  -1087382.92749   -842726.65447  20928209.8154   20928209.3744   20928213.9844
   2872528.16446   2228928.01245  25254181.2684   25254180.3074   25254187.5734
    907372.39648    704677.47546  23411733.0004   23411731.7304   23411742.1244
  -6837819.62947  -5305827.09545  24333066.1064   24333065.5784   24333071.7074
   1522844.41448   1183514.03146  22641803.3014   22641803.0714   22641808.2464
  -1139336.80548   -881584.08246  22165395.9154   22165395.9124   22165400.4104
  -2767620.46349  -1978289.13348  20225003.1014   20225002.5854   20225006.9754
 97  6 10  3  6 46.9990000  0  7G21G17G23G25G 3G31G 1
  -1087969.35049   -843183.60647  20928098.2114   20928097.7264   20928102.2554
   2874628.02946   2230564.26945  25254580.8504   25254579.6464   25254586.8394
    908064.22648    705216.56046  23411864.4834   23411863.0384   23411873.8884
  -6842637.81147  -5309581.51945  24332149.2804   24332149.3054   24332154.2744
   1524156.83648   1184536.69946  22642053.0394   22642052.1474   22642057.4414
  -1139693.03048   -881861.65746  22165328.0034   22165327.0384   22165333.4494
  -2769130.25449  -1979465.59348  20224715.8194   20224715.1524   20224719.7614
 97  6 10  3  6 47.9990000  0  7G21G17G23G25G 3G31G 1
  -1088555.67449   -843640.48047  20927986.6404   20927986.1604   20927990.7974
   2876727.84046   2232200.48345  25254980.3264   25254979.1764   25254986.1004
    908755.99548    705755.60146  23411996.0614   23411994.9594   23412004.3644
  -6847456.12447  -5313336.04845  24331232.4254   24331232.7014   24331238.3924
   1525469.41148   1185559.48746  22642302.8194   22642301.9964   22642306.0624
  -1140048.82048   -882138.89646  22165260.2004   22165259.9654   22165265.2334
  -2770639.63149  -1980641.72948  20224428.6194   20224427.8394   20224432.4994
 97  6 10  3  6 48.9990000  0  7G21G17G23G25G 3G31G 1
  -1089142.29149   -844097.58747  20927875.0134   20927874.6154   20927879.2024
   2878827.25446   2233836.38945  25255379.7904   25255378.7264   25255386.4224
    909447.27848    706294.26346  23412127.6234   23412126.3484   23412135.8124
  -6852274.96147  -5317090.98445  24330315.4704   24330315.2944   24330321.3224
   1526781.73348   1186582.07446  22642552.5484   22642552.1384   22642556.5394
  -1140404.58748   -882416.12146  22165192.4434   22165191.8774   22165197.5474
  -2772149.01149  -1981817.87048  20224141.4224   20224140.6764   20224145.1604
 97  6 10  3  6 49.9990000  0  7G21G17G23G25G 3G31G 1
  -1089728.68649   -844554.51647  20927763.4224   20927763.0494   20927767.6194
   2880926.81446   2235472.40745  25255779.2154   25255777.2414   25255784.5294
    910138.64648    706832.99246  23412259.1294   23412258.5434   23412267.0934
  -6857093.80647  -5320845.92445  24329398.5214   24329398.9104   24329403.8434
   1528094.32248   1187604.87746  22642802.2834   22642801.7664   22642807.3234
  -1140759.79748   -882692.90946  22165124.8814   22165124.7984   22165129.9564
  -2773657.86849  -1982993.60048  20223854.3234   20223853.6624   20223858.1934
 97  6 10  3  6 50.9990000  0  7G21G17G23G25G 3G31G 1
  -1090314.67049   -845011.12547  20927651.8794   20927651.3414   20927656.1894
   2883026.59546   2237108.59945  25256178.8084   25256176.4994   25256183.8364
    910830.27448    707371.92146  23412390.4344   23412390.3684   23412399.3254
  -6861912.47647  -5324600.72845  24328481.5944   24328481.7124   24328486.7214
   1529407.37648   1188628.03346  22643052.1664   22643051.5514   22643056.8504
  -1141114.27048   -882969.11646  22165057.4324   22165056.7534   22165062.1994
  -2775166.00849  -1984168.77348  20223567.3314   20223566.6984   20223571.1514
 97  6 10  3  6 51.9990000  0  7G21G17G23G25G 3G31G 1
  -1090900.24049   -845467.41147  20927540.4344   20927539.9214   20927544.5524
   2885126.72346   2238745.06245  25256578.5564   25256575.5724   25256583.0554
    911522.12748    707911.03146  23412521.8564   23412521.6424   23412530.8284
  -6866730.95747  -5328355.38345  24327564.7214   24327565.5044   24327570.2804
   1530720.87848   1189651.53846  22643302.1234   22643301.5824   22643306.1724
  -1141468.01348   -883244.75646  22164990.1254   22164989.7404   22164994.6344
  -2776673.45249  -1985343.40648  20223280.4374   20223279.6854   20223284.4684
 97  6 10  3  6 52.9990000  0  7G21G17G23G25G 3G31G 1
  -1091484.93049   -845923.01547  20927429.1784   20927428.8764   20927433.5924
   2887227.58746   2240382.09945  25256978.2154   25256975.7704   25256982.1854
    912214.66848    708450.67746  23412653.5924   23412653.3454   23412663.1164
  -6871548.80047  -5332109.54545  24326647.9334   24326648.9774   24326653.2264
   1532035.31448   1190675.76746  22643552.2484   22643551.3594   22643555.9054
  -1141820.55448   -883519.46646  22164922.9834   22164923.1954   22164928.4194
  -2778179.71749  -1986517.11648  20222993.7304   20222993.1054   20222997.6784
 97  6 10  3  6 53.9990000  0  7G21G17G23G25G 3G31G 1
  -1092069.30949   -846378.37547  20927317.9564   20927317.4134   20927322.2054
   2889328.63646   2242019.27944  25257378.1784   25257375.9944   25257381.6174
    912907.39548    708990.46946  23412785.3434   23412784.5024   23412794.6594
  -6876366.58547  -5335863.66145  24325731.2124   24325732.0894   24325737.0424
   1533350.11248   1191700.28046  22643802.4064   22643801.4844   22643806.7224
  -1142172.45348   -883793.67646  22164855.9464   22164856.3834   22164861.0534
  -2779685.37449  -1987690.35648  20222707.1254   20222706.5704   20222711.0874
 97  6 10  3  6 54.9990000  0  7G21G17G23G25G 3G31G 1
  -1092652.90749   -846833.12847  20927206.8804   20927206.5984   20927211.0844
   2891430.33046   2243656.96044  25257778.0514   25257776.8444   25257780.7284
    913600.72948    709530.73346  23412917.0174   23412915.7934   23412927.1004
  -6881183.80147  -5339617.33645  24324814.5864   24324815.3624   24324820.2614
   1534665.73848   1192725.44646  22644052.7564   22644052.3244   22644056.8804
  -1142523.26448   -884067.03646  22164789.1184   22164789.6374   22164794.0324
  -2781189.95849  -1988862.75948  20222420.7484   20222420.1914   20222424.9704
 97  6 10  3  6 55.9990000  0  7G21G17G23G25G 3G31G 1
  -1093235.71749   -847287.26647  20927095.9494   20927095.3824   20927100.3694
   2893532.70546   2245295.17344  25258178.2364   25258177.0014   25258182.5524
    914294.68548    710071.48546  23413048.7644   23413048.0604   23413059.6854
  -6886000.46547  -5343370.57945  24323898.0724   24323898.2374   24323903.2384
   1535982.19948   1193751.26246  22644303.2674   22644302.6534   22644307.3034
  -1142872.97248   -884339.53946  22164722.5274   22164722.8054   22164727.8604
  -2782693.45249  -1990034.31248  20222134.5734   20222134.0944   20222138.9044
 97  6 10  3  6 56.9990000  0  7G21G17G23G25G 3G31G 1
  -1093818.63149   -847741.48547  20926985.0144   20926984.5834   20926989.4254
   2895634.82546   2246933.18744  25258578.4084   25258577.8944   25258583.1524
    914988.36648    710612.01446  23413180.5834   23413180.0784   23413192.5244
  -6890817.48747  -5347124.10345  24322981.3974   24322981.7324   24322986.4634
   1537298.61748   1194777.04346  22644553.7774   22644552.7824   22644558.0324
  -1143222.44848   -884611.86046  22164655.9724   22164656.5144   22164661.7334
  -2784196.74349  -1991205.71148  20221848.4574   20221848.1404   20221852.5974
 97  6 10  3  6 57.9990000  0  7G21G17G23G25G 3G31G 1
  -1094401.49349   -848195.66247  20926874.0884   20926873.5274   20926878.5684
   2897736.89046   2248571.15344  25258978.6594   25258977.8364   25258983.3264
    915681.94448    711152.46446  23413312.4444   23413311.7864   23413324.2214
  -6895634.68047  -5350877.75745  24322064.7014   24322065.0734   24322069.1354
   1538615.15048   1195802.90846  22644804.3154   22644804.2324   22644808.5084
  -1143571.54148   -884883.87846  22164589.5134   22164589.7214   22164595.0154
  -2785699.68749  -1992376.83748  20221562.4164   20221562.1364   20221566.5894
 97  6 10  3  6 58.9990000  0  7G21G17G23G25G 3G31G 1
  -1094984.49149   -848649.94647  20926763.1164   20926762.5374   20926767.6334
   2899838.61646   2250208.85844  25259378.7264   25259378.1124   25259383.0684
    916375.19248    711692.65346  23413444.2404   23413443.3184   23413456.0724
  -6900452.24747  -5354631.70845  24321147.9194   24321148.0144   24321152.8614
   1539931.59648   1196828.71146  22645054.8324   22645054.3994   22645059.0504
  -1143920.44348   -885155.74846  22164523.1634   22164523.8054   22164527.6964
  -2787202.47449  -1993547.83948  20221276.3764   20221276.1524   20221280.7744
 97  6 10  3  6 59.9990000  0  7G21G17G23G25G 3G31G 1
  -1095567.54749   -849104.27647  20926652.1354   20926651.7374   20926656.6734
   2901940.19046   2251846.44544  25259778.7954   25259779.3984   25259782.9004
    917068.23148    712232.68146  23413575.8754   23413575.4584   23413587.9584
  -6905270.10947  -5358385.87845  24320231.0884   24320230.8954   24320236.1664
   1541248.04548   1197854.51646  22645305.3394   22645305.1024   22645309.5574
  -1144269.06548   -885427.39646  22164456.8784   22164457.4394   22164461.7104
  -2788705.00849  -1994718.64548  20220990.3994   20220990.2304   20220994.9164
 97  6 10  3  7  0.9990000  0  7G21G17G23G25G 3G31G 1
  -1096150.68549   -849558.66947  20926541.1564   20926540.7924   20926545.5584
   2904041.48846   2253483.81544  25260178.6534   25260178.9264   25260185.0164
    917761.00648    712772.50346  23413707.6484   23413707.7344   23413719.8604
  -6910088.25247  -5362140.27345  24319314.1784   24319313.7864   24319318.4764
   1542564.48448   1198880.30846  22645555.8334   22645555.3994   22645560.1824
  -1144617.43548   -885698.85746  22164390.6574   22164391.1564   22164395.3794
  -2790207.32349  -1995889.27948  20220704.4734   20220704.3284   20220708.8834
 97  6 10  3  7  1.9990000  0  7G21G17G23G25G 3G31G 1
  -1096733.45749   -850012.77647  20926430.2994   20926429.8184   20926434.6084
   2906143.03946   2255121.38444  25260578.5224   25260578.2834   25260586.0094
    918453.99548    713312.49446  23413839.3244   23413839.6964   23413851.7694
  -6914906.27047  -5365894.57045  24318397.2874   24318396.4694   24318401.2754
   1543881.35248   1199906.43646  22645806.4334   22645806.2204   22645810.2684
  -1144965.08848   -885969.76246  22164324.6594   22164324.6234   22164329.1254
  -2791708.97149  -1997059.39648  20220418.7044   20220418.5604   20220423.1834
 97  6 10  3  7  2.9990000  0  7G21G17G23G25G 3G31G 1
  -1097315.99049   -850466.69547  20926319.4204   20926318.8694   20926323.8194
   2908244.66246   2256759.00744  25260978.4844   25260978.2634   25260985.8064
    919147.03848    713852.52646  23413971.0024   23413971.3474   23413983.4764
  -6919724.28047  -5369648.85945  24317480.4044   24317480.0274   24317485.5174
   1545198.52048   1200932.80246  22646057.0134   22646056.5604   22646060.6214
  -1145312.19048   -886240.23046  22164258.7304   22164258.8704   22164262.7734
  -2793210.08549  -1998229.09348  20220133.0634   20220132.8624   20220137.5154
 97  6 10  3  7  3.9990000  0  7G21G17G23G25G 3G31G 1
  -1097898.32849   -850920.46547  20926208.5664   20926208.1534   20926213.1364
   2910346.29346   2258396.64244  25261378.4024   25261378.5794   25261385.6214
    919840.10848    714392.58346  23414102.6974   23414102.8104   23414114.7554
  -6924542.30447  -5373403.15945  24316563.5794   24316563.4114   24316568.7094
   1546515.93848   1201959.36246  22646307.6464   22646307.2984   22646312.0354
  -1145658.76248   -886510.29146  22164192.8764   22164192.3034   22164197.1304
  -2794710.72149  -1999398.41948  20219847.5384   20219847.4264   20219851.8644
 97  6 10  3  7  4.9990000  0  7G21G17G23G25G 3G31G 1
  -1098480.29849   -851373.95047  20926097.7484   20926097.3784   20926102.5004
   2912448.16146   2260034.45744  25261778.2494   25261777.3344   25261786.3134
    920533.38948    714932.80646  23414234.4424   23414234.0914   23414246.1234
  -6929360.21147  -5377157.37245  24315646.7644   24315646.5994   24315652.9054
   1547833.78148   1202986.25146  22646558.3704   22646558.8524   22646562.5204
  -1146004.64848   -886779.81146  22164127.1404   22164126.9744   22164131.7624
  -2796210.68549  -2000567.22248  20219562.1264   20219561.9034   20219566.4954
 97  6 10  3  7  5.9990000  0  7G21G17G23G25G 3G31G 1
  -1099061.57749   -851826.89347  20925987.0794   20925986.7144   20925991.8294
   2914550.54246   2261672.66944  25262178.0994   25262177.7334   25262186.3654
    921227.18347    715473.42246  23414366.4034   23414366.1244   23414378.1904
  -6934177.67647  -5380911.23645  24314730.0514   24314730.0814   24314735.4634
   1549152.37148   1204013.72346  22646809.2304   22646809.2084   22646812.5764
  -1146349.50448   -887048.52846  22164061.5714   22164061.4084   22164066.5374
  -2797709.67649  -2001735.26448  20219276.8924   20219276.5594   20219281.1694
 97  6 10  3  7  6.9990000  0  7G21G17G23G25G 3G31G 1
  -1099642.56049   -852279.61047  20925876.4754   20925876.1494   20925881.1414
   2916653.04046   2263310.98044  25262577.9844   25262577.7894   25262584.6674
    921921.08547    716014.12246  23414498.3964   23414498.1534   23414510.0734
  -6938995.06847  -5384665.04745  24313813.3584   24313813.5124   24313818.5844
   1550471.31048   1205041.46446  22647060.1334   22647059.4234   22647065.0294
  -1146693.77648   -887316.78646  22163996.0944   22163995.8784   22164000.5964
  -2799208.10949  -2002902.87648  20218991.7704   20218991.5844   20218996.0364
 97  6 10  3  7  7.9990000  0  7G21G17G23G25G 3G31G 1
  -1100223.03649   -852731.92847  20925765.9824   20925765.5914   20925770.5914
   2918755.85846   2264949.53544  25262978.0294   25262978.2764   25262984.5174
    922615.31747    716555.08346  23414630.6294   23414630.1674   23414642.0044
  -6943812.19047  -5388418.64545  24312896.7184   24312896.5374   24312901.8514
   1551790.80948   1206069.64946  22647311.1544   22647311.5984   22647316.0494
  -1147037.21348   -887584.40746  22163930.7814   22163930.7954   22163934.9424
  -2800705.74549  -2004069.86648  20218706.8064   20218706.4814   20218711.1944
 97  6 10  3  7  8.9990000  0  7G21G17G23G25G 3G31G 1
  -1100803.38149   -853184.14647  20925655.5694   20925655.1834   20925660.3294
   2920858.63346   2266588.05945  25263378.1734   25263378.1964   25263384.8844
    923309.50647    717096.01046  23414762.7604   23414762.4814   23414774.1764
  -6948629.44147  -5392172.34345  24311980.1414   24311979.1964   24311984.4844
   1553110.49548   1207097.97246  22647562.2464   22647562.5114   22647567.2064
  -1147380.21248   -887851.68046  22163865.5304   22163865.1054   22163870.3794
  -2802202.96249  -2005236.52848  20218421.9124   20218421.6254   20218426.1414
 97  6 10  3  7  9.9990000  0  7G21G17G23G25G 3G31G 1
  -1101383.45149   -853636.14647  20925545.1594   20925544.6404   20925550.0334
   2922961.49446   2268226.64745  25263778.3334   25263778.7254   25263784.6494
    924003.75247    717636.98146  23414894.8354   23414894.8904   23414906.5044
  -6953446.65047  -5395926.01445  24311063.5274   24311062.9054   24311067.0994
   1554430.49048   1208126.54046  22647813.3834   22647813.3844   22647818.2884
  -1147722.63648   -888118.50746  22163800.3994   22163800.2364   22163804.5034
  -2803699.64849  -2006402.77548  20218137.1274   20218136.6554   20218141.3794
 97  6 10  3  7 10.9990000  0  7G21G17G23G25G 3G31G 1
  -1101963.62049   -854088.22747  20925434.7324   20925434.3314   20925439.6294
   2925064.09246   2269865.03145  25264178.3414   25264178.2174   25264184.8104
    924697.72347    718177.73646  23415026.9014   23415027.0054   23415037.9774
  -6958264.22047  -5399679.96445  24310146.9424   24310146.7364   24310151.2984
   1555750.43748   1209155.06846  22648064.5704   22648064.6804   22648069.0154
  -1148064.85648   -888385.17846  22163735.3234   22163734.8884   22163739.7674
  -2805196.13849  -2007568.87248  20217852.4074   20217852.0274   20217856.6784
 97  6 10  3  7 11.9990000  0  7G21G17G23G25G 3G31G 1
  -1102543.88249   -854540.37947  20925324.2694   20925323.9204   20925329.0744
   2927166.42246   2271503.21045  25264578.2984   25264578.6634   25264584.1864
    925391.41547    718718.27746  23415158.9384   23415159.0194   23415170.1214
  -6963082.12547  -5403434.16945  24309230.2264   24309229.1244   24309234.2784
   1557070.34148   1210183.57146  22648315.7134   22648316.4404   22648320.6114
  -1148406.84248   -888651.65146  22163670.3104   22163670.3364   22163674.3844
  -2806692.41649  -2008734.80448  20217567.7104   20217567.3574   20217571.8854
 97  6 10  3  7 12.9990000  0  7G21G17G23G25G 3G31G 1
  -1103124.17449   -854992.55347  20925213.8264   20925213.3644   20925218.5494
   2929268.51546   2273141.20145  25264978.3344   25264978.6634   25264983.8324
    926084.86347    719258.63046  23415291.0554   23415291.4764   23415301.7814
  -6967900.30447  -5407188.59645  24308313.4364   24308312.1834   24308317.7534
   1558390.26348   1211212.07446  22648566.9284   22648567.2564   22648571.1854
  -1148748.55448   -888917.91946  22163605.3274   22163605.2294   22163609.6144
  -2808188.45349  -2009900.54648  20217283.0514   20217282.6354   20217287.2354
 97  6 10  3  7 13.9990000  0  7G21G17G23G25G 3G31G 1
  -1103704.27749   -855444.58247  20925103.3794   20925103.0204   20925108.1904
   2931370.64046   2274779.22145  25265378.3964   25265378.7614   25265383.5954
    926778.29647    719798.97145  23415423.1384   23415423.3004   23415433.6984
  -6972718.56847  -5410943.08945  24307396.5864   24307395.4354   24307400.9324
   1559710.40648   1212240.75546  22648818.1364   22648818.0924   22648822.6004
  -1149089.77448   -889183.81046  22163540.4014   22163540.2784   22163544.3974
  -2809684.00949  -2011065.91348  20216998.4714   20216998.2014   20217002.5094
 97  6 10  3  7 14.9990000  0  7G21G17G23G25G 3G31G 1
  -1104284.37849   -855896.60847  20924992.9204   20924992.6374   20924997.8854
   2933472.60546   2276417.11345  25265778.4284   25265779.2174   25265784.0834
    927471.56247    720339.18245  23415555.0374   23415555.0564   23415565.6174
  -6977537.06847  -5414697.76145  24306479.6784   24306478.8854   24306484.2404
   1561030.61048   1213269.48446  22649069.3924   22649069.6664   22649073.5034
  -1149430.67348   -889449.44946  22163475.5724   22163474.9094   22163479.8154
  -2811179.25449  -2012231.03848  20216713.9404   20216713.3484   20216718.0474
 97  6 10  3  7 15.9990000  0  7G21G17G23G25G 3G31G 1
  -1104864.46749   -856348.62847  20924882.4834   20924882.1084   20924887.3934
   2935574.34946   2278054.83345  25266178.3964   25266179.1734   25266184.1814
    928164.61147    720879.22045  23415686.7434   23415686.6154   23415697.7904
  -6982355.83447  -5418452.63845  24305562.6864   24305562.1684   24305566.6554
   1562350.85048   1214298.24446  22649320.6394   22649320.7944   22649325.5044
  -1149771.26448   -889714.84846  22163410.8414   22163410.0304   22163414.5384
  -2812674.22449  -2013395.95148  20216429.4644   20216429.0154   20216433.6294
 97  6 10  3  7 16.9990000  0  7G21G17G23G25G 3G31G 1
  -1105444.43749   -856800.55147  20924772.0474   20924771.5684   20924776.8944
   2937676.05746   2279692.52645  25266578.3754   25266579.2944   25266584.0014
    928857.59847    721419.21545  23415818.2874   23415817.6684   23415829.9144
  -6987174.74647  -5422207.63045  24304645.7164   24304644.9494   24304649.4574
   1563671.24848   1215327.12546  22649571.9514   22649572.4084   22649576.5564
  -1150111.42548   -889979.90746  22163346.1344   22163345.9094   22163350.5244
  -2814168.78849  -2014560.54648  20216145.0504   20216144.6184   20216149.2994
 97  6 10  3  7 17.9990000  0  7G21G17G23G25G 3G31G 1
  -1106024.23349   -857252.34047  20924661.6614   20924661.4384   20924666.6574
   2939777.75746   2281330.21645  25266978.4634   25266978.8224   25266984.6684
    929550.55147    721959.17945  23415949.7244   23415949.2464   23415961.6324
  -6991993.73647  -5425962.68545  24303728.7524   24303728.3274   24303732.1914
   1564991.86448   1216356.17746  22649823.2944   22649824.4034   22649827.6534
  -1150451.09948   -890244.58646  22163281.5764   22163281.1394   22163285.2324
  -2815662.87749  -2015724.77248  20215860.7254   20215860.1964   20215864.8894
 97  6 10  3  7 18.9990000  0  7G21G17G23G25G 3G31G 1
  -1106603.60749   -857703.80247  20924551.3804   20924551.1084   20924556.4904
   2941879.70846   2282968.09445  25267378.5134   25267379.5704   25267384.7104
    930243.71047    722499.30245  23416081.3734   23416080.6904   23416094.0494
  -6996812.57447  -5429717.61745  24302811.8354   24302811.4074   24302816.3084
   1566312.93948   1217385.58346  22650074.7024   22650074.9974   22650078.8854
  -1150790.05748   -890508.71146  22163217.1834   22163216.3024   22163221.4674
  -2817156.28049  -2016888.46348  20215576.5484   20215576.1674   20215580.6564
 97  6 10  3  7 19.9990000  0  7G21G17G23G25G 3G31G 1
  -1107182.63749   -858154.99247  20924441.1544   20924441.0224   20924446.3344
   2943981.83646   2284606.12045  25267778.5014   25267779.0414   25267783.6794
    930937.04647    723039.56345  23416212.9274   23416212.4744   23416226.3594
  -7001631.29747  -5433472.46445  24301894.8584   24301894.7194   24301899.5924
   1567634.41548   1218415.30146  22650326.2764   22650325.6144   22650330.3904
  -1151128.34748   -890772.31246  22163152.8744   22163152.0274   22163156.7454
  -2818649.03149  -2018051.64648  20215292.5154   20215292.0764   20215296.6324
 97  6 10  3  7 20.9990000  0  7G21G17G23G25G 3G31G 1
  -1107761.01749   -858605.67947  20924331.0734   20924331.0724   20924336.1824
   2946084.45446   2286244.52645  25268178.4594   25268178.5424   25268183.4644
    931630.80147    723580.15045  23416344.5144   23416344.3454   23416358.6654
  -7006449.63147  -5437227.00545  24300977.9424   24300977.0654   24300982.5264
   1568956.60548   1219445.58146  22650577.9634   22650576.9304   22650582.1754
  -1151465.68148   -891035.17546  22163088.7534   22163088.0614   22163092.1644
  -2820140.84049  -2019214.09348  20215008.6294   20215008.2714   20215012.8634
 97  6 10  3  7 21.9990000  0  7G21G17G23G25G 3G31G 1
  -1108339.17949   -859056.19547  20924221.0394   20924220.9314   20924226.0624
   2948187.12346   2287882.96945  25268578.4484   25268578.1634   25268583.5524
    932324.61447    724120.78345  23416476.0934   23416476.1034   23416490.7644
  -7011267.98347  -5440981.56045  24300061.0274   24300060.2934   24300065.7894
   1570279.05648   1220476.06046  22650829.6994   22650828.8524   22650834.5834
  -1151802.49648   -891297.62846  22163024.7174   22163023.8224   22163028.3194
  -2821632.14549  -2020376.14848  20214724.8464   20214724.5034   20214728.9674
 97  6 10  3  7 22.9990000  0  7G21G17G23G25G 3G31G 1
  -1108916.58449   -859506.12047  20924111.1304   20924111.0334   20924116.2394
   2950290.34446   2289521.84545  25268978.5364   25268978.7764   25268983.3674
    933018.93247    724661.80745  23416607.8304   23416608.5364   23416622.4594
  -7016085.83547  -5444735.73145  24299144.2034   24299143.5824   24299148.8714
   1571602.31148   1221507.17546  22651081.5994   22651081.5524   22651085.6044
  -1152138.23148   -891559.23446  22162960.8714   22162960.3384   22162964.3094
  -2823122.41549  -2021537.39548  20214441.2654   20214440.8914   20214445.2824
 97  6 10  3  7 23.9990000  0  7G21G17G23G25G 3G31G 1
  -1109493.81549   -859955.91347  20924001.2734   20924001.2254   20924006.4614
   2952393.61946   2291160.76245  25269378.6444   25269378.8394   25269383.5684
    933713.23047    725202.81645  23416739.7964   23416740.7894   23416754.4374
  -7020903.75647  -5448489.95845  24298227.3704   24298226.9714   24298231.9684
   1572925.78748   1222538.46046  22651333.5444   22651332.8314   22651337.5534
  -1152473.48648   -891820.47646  22162897.1024   22162896.5334   22162900.7724
  -2824612.23349  -2022698.29248  20214157.7874   20214157.1934   20214161.7764
 97  6 10  3  7 24.9990000  0  7G21G17G23G25G 3G31G 1
  -1110070.55849   -860405.32147  20923891.4964   20923891.4364   20923896.6274
   2954497.20346   2292799.91545  25269778.6694   25269777.7044   25269784.6864
    934407.79547    725744.03345  23416872.1444   23416873.6744   23416886.2824
  -7025721.45047  -5452244.00345  24297310.6034   24297311.0964   24297315.3194
   1574249.79348   1223570.14946  22651585.5204   22651584.1714   22651589.6654
  -1152807.95348   -892081.10146  22162833.4594   22162832.2624   22162837.6804
  -2826101.29549  -2023858.59948  20213874.4294   20213873.7704   20213878.5024
 97  6 10  3  7 25.9990000  0  7G21G17G23G25G 3G31G 1
  -1110647.13949   -860854.60747  20923781.7834   20923781.6094   20923787.0784
   2956600.77846   2294439.06545  25270178.9284   25270176.8584   25270184.3954
    935102.31347    726285.21445  23417004.4584   23417005.9004   23417017.3904
  -7030539.21847  -5455998.10445  24296393.7374   24296394.8134   24296398.7124
   1575574.01648   1224602.00646  22651837.5204   22651837.2474   22651842.4234
  -1153141.94348   -892341.35446  22162769.9474   22162769.8964   22162773.6014
  -2827589.90649  -2025018.55848  20213591.1874   20213590.6004   20213595.3444
 97  6 10  3  7 26.9990000  0  7G21G17G23G25G 3G31G 1
  -1111223.78049   -861303.93747  20923672.0654   20923671.9124   20923677.4394
   2958704.13346   2296078.04544  25270579.1544   25270578.3574   25270584.2734
    935796.57347    726826.19245  23417136.7614   23417138.2974   23417148.8914
  -7035357.30447  -5459752.46045  24295476.8834   24295477.3964   24295482.0124
   1576898.20848   1225633.84046  22652089.4644   22652089.2184   22652093.5344
  -1153475.67248   -892601.40846  22162706.4504   22162706.4614   22162709.8564
  -2829078.29049  -2026178.34048  20213307.9464   20213307.4644   20213312.1244
 97  6 10  3  7 27.9990000  0  7G21G17G23G25G 3G31G 1
  -1111800.46349   -861753.30247  20923562.3134   20923562.1904   20923567.6584
   2960807.27946   2297716.85844  25270979.4474   25270978.0754   25270984.8174
    936490.55447    727366.96045  23417268.9424   23417270.7884   23417280.7574
  -7040175.67247  -5463507.03345  24294559.9054   24294559.9984   24294565.1884
   1578222.38948   1226665.67346  22652341.3554   22652340.4054   22652345.5894
  -1153809.16648   -892861.27146  22162643.0044   22162641.9744   22162646.3574
  -2830566.45549  -2027337.94748  20213024.7464   20213023.9194   20213028.8184
 97  6 10  3  7 28.9990000  0  7G21G17G23G25G 3G31G 1
  -1112376.91949   -862202.48947  20923452.6044   20923452.4424   20923457.8804
   2962910.52946   2299355.75444  25271379.6444   25271379.0684   25271384.9424
    937184.55647    727907.74545  23417401.0804   23417402.0064   23417412.5574
  -7044994.06347  -5467261.61745  24293642.9814   24293642.6524   24293647.5704
   1579546.85048   1227697.71846  22652593.2544   22652592.2114   22652597.1444
  -1154142.12148   -893120.72146  22162579.7154   22162578.3904   22162583.0234
  -2832054.11349  -2028497.15948  20212741.6224   20212741.0874   20212745.6494
 97  6 10  3  7 29.9990000  0  7G21G17G23G25G 3G31G 1
  -1112953.04949   -862651.42247  20923342.9774   20923343.0244   20923348.2054
   2965013.88746   2300994.73244  25271779.8864   25271779.8944   25271784.3294
    937878.68247    728448.62445  23417533.2324   23417532.9574   23417545.0874
  -7049812.38447  -5471016.14745  24292726.0334   24292725.7244   24292730.4744
   1580871.66848   1228730.04046  22652845.2274   22652844.8964   22652848.9154
  -1154474.45348   -893379.67746  22162516.5284   22162515.3294   22162519.7364
  -2833541.17049  -2029655.90648  20212458.5854   20212458.1394   20212462.7414
 97  6 10  3  7 30.9990000  0  7G21G17G23G25G 3G31G 1
  -1113528.77649   -863100.03847  20923233.4604   20923233.4124   20923238.6504
   2967117.49646   2302633.90644  25272180.2224   25272180.6174   25272183.4454
    938572.93447    728989.60845  23417665.4044   23417664.8484   23417676.7214
  -7054630.55047  -5474770.56045  24291809.2084   24291808.7254   24291813.7114
   1582196.91848   1229762.70046  22653097.3284   22653096.6994   22653100.9514
  -1154806.10148   -893638.10146  22162453.5234   22162452.1094   22162456.6084
  -2835027.59349  -2030814.15848  20212175.7024   20212175.3094   20212179.9004
 97  6 10  3  7 31.9990000  0  7G21G17G23G25G 3G31G 1
  -1114103.85249   -863548.14547  20923124.0294   20923123.9604   20923129.0974
   2969221.56546   2304273.43444  25272580.8114   25272580.9164   25272584.5644
    939267.62647    729530.92845  23417797.3894   23417796.8464   23417809.5684
  -7059448.31847  -5478524.66445  24290892.4244   24290891.5264   24290897.0344
   1583522.85148   1230795.89646  22653349.5334   22653349.5894   22653353.1614
  -1155136.78448   -893895.77746  22162390.6654   22162389.4344   22162394.0794
  -2836513.09449  -2031971.68948  20211893.0204   20211892.5764   20211897.2694
 97  6 10  3  7 32.9990000  0  7G21G17G23G25G 3G31G 1
  -1114678.41749   -863995.86047  20923014.6974   20923014.9034   20923019.9084
   2971325.95946   2305913.22144  25272981.3654   25272981.5224   25272986.3434
    939962.61347    730072.47745  23417929.5624   23417929.1154   23417942.2904
  -7064265.83547  -5482278.57545  24289975.6864   24289975.2564   24289980.6814
   1584849.32048   1231829.50446  22653601.8744   22653601.8334   22653606.6354
  -1155466.66148   -894152.82546  22162327.9364   22162326.8994   22162330.8734
  -2837997.82449  -2033128.62148  20211610.4664   20211609.8914   20211614.7574
 97  6 10  3  7 33.9990000  0  7G21G17G23G25G 3G31G 1
  -1115252.73749   -864443.38347  20922905.4434   20922905.6504   20922910.7294
   2973430.44646   2307553.07644  25273382.1674   25273383.4354   25273386.2474
    940657.54847    730613.98645  23418061.5224   23418060.9354   23418074.2134
  -7069083.35647  -5486032.48745  24289058.9044   24289058.3374   24289064.3844
   1586176.05848   1232863.32346  22653854.3304   22653854.5934   22653858.9854
  -1155796.00448   -894409.45946  22162265.3454   22162263.6604   22162269.1004
  -2839482.06549  -2034285.17248  20211328.0454   20211327.6554   20211332.2554
 97  6 10  3  7 34.9990000  0  7G21G17G23G25G 3G31G 1
  -1115827.04049   -864890.89447  20922796.2004   20922796.1054   20922801.3474
   2975534.73546   2309192.77944  25273782.6924   25273783.9364   25273787.1964
    941352.31547    731155.36845  23418193.5374   23418193.4344   23418206.6324
  -7073901.11047  -5489786.57345  24288142.0734   24288141.7714   24288147.8964
   1587502.83948   1233897.17146  22654106.7404   22654106.6774   22654111.1304
  -1156125.02148   -894665.83746  22162202.7944   22162201.6994   22162205.3594
  -2840966.00749  -2035441.49148  20211045.6594   20211045.1164   20211049.7974
 97  6 10  3  7 35.9990000  0  7G21G17G23G25G 3G31G 1
  -1116401.27949   -865338.35347  20922686.9844   20922687.0894   20922692.1364
   2977638.93446   2310832.41644  25274183.3434   25274182.8364   25274187.4634
    942046.92147    731696.62645  23418325.5824   23418325.9454   23418339.2164
  -7078719.05747  -5493540.81545  24287225.2604   24287224.9874   24287230.4114
   1588829.72648   1234931.11746  22654359.2964   22654359.4574   22654363.9574
  -1156453.67448   -894921.93446  22162140.2924   22162138.9424   22162143.5724
  -2842449.61249  -2036597.54648  20210763.3394   20210762.8454   20210767.4824
 97  6 10  3  7 36.9990000  0  7G21G17G23G25G 3G31G 1
  -1116975.34849   -865785.67947  20922577.7734   20922577.7474   20922582.8014
   2979743.07546   2312472.00544  25274584.0584   25274582.8384   25274588.9394
    942741.43047    732237.80345  23418457.7534   23418458.6264   23418471.6034
  -7083537.07147  -5497295.11645  24286308.3914   24286307.8024   24286313.6104
   1590156.78648   1235965.19746  22654611.8284   22654611.8434   22654616.9664
  -1156781.86748   -895177.66946  22162077.8734   22162076.3034   22162080.9734
  -2843932.81849  -2037753.29248  20210481.0974   20210480.4454   20210485.1884
 97  6 10  3  7 37.9990000  0  7G21G17G23G25G 3G31G 1
  -1117549.50649   -866233.07447  20922468.5694   20922468.5504   20922473.6834
   2981846.93046   2314111.37244  25274984.7014   25274982.3844   25274989.1534
    943435.61347    732778.72145  23418589.9754   23418590.7534   23418603.7294
  -7088355.44347  -5501049.68945  24285391.4324   24285390.8084   24285396.0354
   1591483.78248   1236999.21346  22654864.3954   22654865.1154   22654868.8724
  -1157109.85248   -895433.23946  22162015.4284   22162013.5084   22162018.5734
  -2845415.84549  -2038908.89648  20210198.8694   20210198.3014   20210202.9524
 97  6 10  3  7 38.9990000  0  7G21G17G23G25G 3G31G 1
  -1118123.47049   -866680.31547  20922359.4284   20922359.2214   20922364.4144
   2983950.83946   2315750.78344  25275385.1624   25275382.0624   25275389.5284
    944129.76847    733319.62345  23418722.3114   23418723.0594   23418735.9854
  -7093173.86847  -5504804.30145  24284474.4914   24284472.9514   24284479.2184
   1592811.01048   1238033.41846  22655116.9574   22655116.7884   22655121.4064
  -1157437.34148   -895688.42346  22161953.1094   22161951.4254   22161955.5424
  -2846898.39749  -2040064.12748  20209916.7174   20209916.1784   20209920.9004
 97  6 10  3  7 39.9990000  0  7G21G17G23G25G 3G31G 1
  -1118697.25349   -867127.42047  20922250.2574   20922250.2684   20922255.2194
   2986054.73746   2317390.18344  25275785.6194   25275782.3324   25275789.0104
    944823.84147    733860.46145  23418854.6044   23418855.2484   23418868.0534
  -7097992.35547  -5508558.96045  24283557.5234   24283557.2264   24283562.6934
   1594138.43048   1239067.76846  22655369.5744   22655370.1094   22655374.2324
  -1157764.34948   -895943.24046  22161890.8944   22161888.9984   22161894.4184
  -2848380.51349  -2041219.02548  20209634.6314   20209634.2854   20209638.8664
 97  6 10  3  7 40.9990000  0  7G21G17G23G25G 3G31G 1
  -1119270.46649   -867574.07947  20922141.2304   20922141.1224   20922146.2814
   2988158.99746   2319029.86644  25276186.2474   25276183.6754   25276189.7544
    945518.26347    734401.57345  23418986.9584   23418986.9134   23419000.0224
  -7102810.53047  -5512313.38345  24282640.6224   24282640.6714   24282645.6984
   1595466.45048   1240102.58546  22655622.2944   22655622.3624   22655627.5134
  -1158090.48848   -896197.37446  22161828.8044   22161827.2034   22161832.5294
  -2849861.78149  -2042373.25948  20209352.7134   20209352.4874   20209357.0474
 97  6 10  3  7 41.9990000  0  7G21G17G23G25G 3G31G 1
  -1119843.34949   -868020.47947  20922032.2884   20922032.1614   20922037.2144
   2990263.44046   2320669.68844  25276586.9114   25276585.0924   25276589.6634
    946212.80547    734942.77645  23419119.2154   23419119.1704   23419131.9014
  -7107628.61847  -5516067.73645  24281723.8144   24281724.0084   24281729.4284
   1596794.83148   1241137.68246  22655875.1374   22655874.9814   22655879.0134
  -1158415.99248   -896451.01146  22161766.8374   22161765.6194   22161769.8354
  -2851342.42649  -2043527.01048  20209070.9294   20209070.4514   20209075.2054
 97  6 10  3  7 42.9990000  0  7G21G17G23G25G 3G31G 1
  -1120415.57249   -868466.36347  20921923.4404   20921923.0534   20921928.2064
   2992368.31246   2322309.84344  25276987.5714   25276985.4894   25276990.2334
    946907.77147    735484.31545  23419251.2704   23419251.2264   23419264.2044
  -7112446.31347  -5519821.77945  24280807.0744   24280807.0054   24280813.0224
   1598123.88748   1242173.30246  22656128.0854   22656128.3714   22656132.3934
  -1158740.55648   -896703.91946  22161705.0574   22161703.8634   22161708.4604
  -2852822.15949  -2044680.04648  20208789.3294   20208788.8584   20208793.6544
 97  6 10  3  7 43.9990000  0  7G21G17G23G25G 3G31G 1
  -1120987.08849   -868911.70247  20921814.7444   20921814.3024   20921819.6394
   2994473.75646   2323950.44344  25277388.4184   25277385.6824   25277390.7864
    947603.21347    736026.21845  23419383.4324   23419383.1344   23419396.3274
  -7117263.55147  -5523575.47545  24279890.4794   24279890.6034   24279896.2314
   1599453.69048   1243209.50946  22656381.2264   22656381.4744   22656385.8074
  -1159064.10648   -896956.04046  22161643.4884   22161642.4494   22161646.8964
  -2854300.89049  -2045832.30448  20208507.9144   20208507.5214   20208512.3264
 97  6 10  3  7 44.9990000  0  7G21G17G23G25G 3G31G 1
  -1121557.87249   -869356.46947  20921706.2034   20921705.7624   20921710.8934
   2996579.79446   2325591.50644  25277789.2064   25277785.9374   25277791.1724
    948299.19047    736568.54045  23419515.6624   23419515.5944   23419528.1204
  -7122080.30347  -5527328.78645  24278973.9334   24278973.6904   24278979.4624
   1600784.25048   1244246.31346  22656634.5234   22656634.7934   22656638.8254
  -1159386.63948   -897207.36546  22161582.0694   22161581.0274   22161585.2274
  -2855778.60849  -2046983.77248  20208226.6864   20208226.4354   20208231.1114
 97  6 10  3  7 45.9990000  0  7G21G17G23G25G 3G31G 1
  -1122128.30449   -869800.96147  20921597.7104   20921597.0344   20921602.3404
   2998685.93546   2327232.65145  25278190.2724   25278186.7504   25278191.8554
    948995.24147    737110.91945  23419648.1544   23419648.2104   23419660.7594
  -7126896.99347  -5531082.04245  24278057.4794   24278056.8014   24278062.9514
   1602115.17948   1245283.40046  22656887.8724   22656887.8594   22656892.1654
  -1159708.55748   -897458.21146  22161520.7424   22161519.9564   22161523.5814
  -2857255.71949  -2048134.77048  20207945.5794   20207945.3654   20207949.9704
 97  6 10  3  7 46.9990000  0  7G21G17G23G25G 3G31G 1
  -1122698.54449   -870245.30247  20921489.1904   20921488.6214   20921493.9214
   3000792.11346   2328873.82445  25278591.2314   25278587.5294   25278592.1944
    949691.28247    737653.28745  23419780.5264   23419780.5054   23419793.5164
  -7131713.75647  -5534835.36245  24277140.9924   24277139.3434   24277145.5954
   1603446.34048   1246320.66646  22657141.2424   22657141.9204   22657145.5444
  -1160029.97148   -897708.66346  22161459.5064   22161458.6914   22161462.6414
  -2858732.35349  -2049285.39448  20207664.5864   20207664.3534   20207669.0174
 97  6 10  3  7 47.9990000  0  7G21G17G23G25G 3G31G 1
  -1123268.89149   -870689.73147  20921380.6554   20921380.0674   20921385.3934
   3002897.99846   2330514.76745  25278992.0734   25278988.8584   25278993.3414
    950386.98447    738195.39345  23419912.9734   23419913.4884   23419926.2424
  -7136530.89847  -5538588.98145  24276224.3644   24276223.3484   24276229.0454
   1604777.42348   1247357.87646  22657394.5784   22657394.5704   22657399.0314
  -1160351.18648   -897958.96446  22161398.3814   22161397.2434   22161401.8274
  -2860208.82049  -2050435.88948  20207383.7034   20207383.3914   20207387.9894
 97  6 10  3  7 48.9990000  0  7G21G17G23G25G 3G31G 1
  -1123838.86749   -871133.86647  20921272.2354   20921271.5074   20921277.0164
   3005004.08646   2332155.86845  25279392.9424   25279389.4154   25279395.1874
    951082.80947    738737.58945  23420045.3954   23420045.5804   23420058.5674
  -7141347.93547  -5542342.51445  24275307.7954   24275307.1154   24275312.1984
   1606108.90148   1248395.38946  22657647.9714   22657647.6634   22657651.9564
  -1160671.76148   -898208.75846  22161337.3594   22161336.0154   22161341.4104
  -2861684.66749  -2051585.89848  20207102.9304   20207102.5524   20207107.0514
 97  6 10  3  7 49.9990000  0  7G21G17G23G25G 3G31G 1
  -1124409.08749   -871578.19547  20921163.7594   20921162.9214   20921168.5714
   3007109.74546   2333796.63945  25279793.7604   25279789.8534   25279796.1204
    951778.15847    739279.41945  23420177.6284   23420177.9744   23420190.7384
  -7146165.46747  -5546096.43345  24274391.1574   24274390.7464   24274395.6184
   1607440.17348   1249432.73946  22657901.3354   22657901.5644   22657904.9964
  -1160992.25748   -898458.49446  22161276.3574   22161275.7804   22161279.8284
  -2863160.46649  -2052735.87048  20206822.1444   20206821.7824   20206826.1614
 97  6 10  3  7 50.9990000  0  7G21G17G23G25G 3G31G 1
  -1124979.24549   -872022.47447  20921055.2434   20921054.4044   20921060.0344
   3009215.27346   2335437.30745  25280194.5754   25280191.4904   25280198.2434
    952473.34947    739821.12845  23420309.8974   23420310.1684   23420323.1274
  -7150983.19847  -5549850.51145  24273474.4644   24273473.8094   24273478.6074
   1608771.53648   1250470.16246  22658154.7284   22658154.0584   22658158.7624
  -1161312.41048   -898707.96746  22161215.3784   22161214.7624   22161218.9074
  -2864635.93849  -2053885.58748  20206541.3964   20206540.9294   20206545.4154
 97  6 10  3  7 51.9990000  0  7G21G17G23G25G 3G31G 1
  -1125549.45049   -872466.78847  20920946.7064   20920946.1164   20920951.4814
   3011320.56846   2337077.79645  25280595.3414   25280591.9894   25280598.4564
    953168.21047    740362.57545  23420442.4354   23420442.6404   23420455.6574
  -7155801.24947  -5553604.83545  24272557.7024   24272556.3384   24272561.9584
   1610102.87048   1251507.57246  22658408.0794   22658407.4094   22658411.7384
  -1161632.31848   -898957.24546  22161154.4384   22161153.2874   22161157.3934
  -2866111.20849  -2055035.14748  20206260.6454   20206260.1144   20206264.6864
 97  6 10  3  7 52.9990000  0  7G21G17G23G25G 3G31G 1
  -1126119.41049   -872910.91347  20920838.2214   20920837.5334   20920843.0324
   3013425.88746   2338718.30045  25280995.9914   25280992.8564   25280999.5344
    953863.11047    740904.05045  23420575.0294   23420575.7194   23420588.2624
  -7160619.31247  -5557359.16045  24271640.9274   24271640.0774   24271645.2634
   1611434.48748   1252545.18746  22658661.4954   22658661.4514   22658665.2414
  -1161951.68648   -899206.10046  22161093.5604   22161092.3484   22161097.3294
  -2867585.96049  -2056184.30248  20205979.9744   20205979.5284   20205984.0734
 97  6 10  3  7 53.9990000  0  7G21G17G23G25G 3G31G 1
  -1126689.07949   -873354.80947  20920729.8074   20920729.2554   20920734.5724
   3015531.34446   2340358.91145  25281396.7604   25281393.8744   25281400.3684
    954558.04547    741445.55945  23420707.6944   23420708.6114   23420720.2414
  -7165437.35647  -5561113.47745  24270724.1234   24270722.6344   24270728.8294
   1612766.42848   1253583.06446  22658914.9404   22658915.1934   22658919.6464
  -1162270.45648   -899454.49746  22161032.8194   22161032.2694   22161037.1004
  -2869060.15049  -2057333.02248  20205699.4304   20205699.0254   20205703.6644
 97  6 10  3  7 54.9990000  0  7G21G17G23G25G 3G31G 1
  -1127258.28549   -873798.34847  20920621.4824   20920621.0194   20920626.4954
   3017637.05946   2341999.72745  25281797.4844   25281795.2634   25281801.2514
    955253.22347    741987.25445  23420840.1674   23420840.9434   23420852.4964
  -7170255.18647  -5564867.62945  24269807.3324   24269805.8084   24269812.4724
   1614098.87348   1254621.32746  22659168.5074   22659168.4454   22659172.2454
  -1162588.46648   -899702.29946  22160972.2104   22160970.8034   22160976.0714
  -2870533.62449  -2058481.18548  20205419.0354   20205418.5504   20205423.1444
 97  6 10  3  7 55.9990000  0  7G21G17G23G25G 3G31G 1
  -1127827.06249   -874241.55147  20920513.2304   20920512.4794   20920518.2244
   3019743.02446   2343640.73545  25282198.3684   25282194.6924   25282202.3874
    955948.64947    742529.14345  23420972.7024   23420973.3274   23420985.1364
  -7175072.83647  -5568621.64145  24268890.5804   24268889.0534   24268895.7654
   1615431.79948   1255659.96946  22659422.1774   22659421.6014   22659426.5504
  -1162905.72448   -899949.51346  22160911.8114   22160910.9094   22160915.4654
  -2872006.37149  -2059628.78048  20205138.7594   20205138.2744   20205142.9844
 97  6 10  3  7 56.9990000  0  7G21G17G23G25G 3G31G 1
  -1128395.21449   -874684.26847  20920405.0814   20920404.4524   20920410.0534
   3021849.42646   2345282.08745  25282599.3584   25282596.1364   25282603.4714
    956644.44447    743071.32045  23421105.3324   23421106.6024   23421117.6074
  -7179890.11647  -5572375.36045  24267973.8324   24267972.4344   24267978.6834
   1616765.38248   1256699.12346  22659675.9464   22659675.2214   22659679.8254
  -1163222.05048   -900195.99846  22160851.5294   22160850.6824   22160854.9274
  -2873478.23749  -2060775.68848  20204858.6384   20204858.0544   20204862.7464
 97  6 10  3  7 57.9990000  0  7G21G17G23G25G 3G31G 1
  -1128962.80749   -875126.54947  20920297.0754   20920296.5214   20920302.0344
   3023956.19246   2346923.71845  25283000.3424   25282997.9064   25283004.2714
    957340.55247    743613.74445  23421238.1294   23421238.9284   23421250.1314
  -7184707.09947  -5576128.85345  24267057.1074   24267055.7904   24267062.0334
   1618099.55048   1257738.73846  22659929.8304   22659929.6374   22659934.0414
  -1163537.52948   -900441.82646  22160791.4264   22160791.1304   22160795.2764
  -2874949.28649  -2061921.96148  20204578.6584   20204578.3034   20204582.8144
 97  6 10  3  7 58.9990000  0  7G21G17G23G25G 3G31G 1
  -1129529.89449   -875568.43447  20920189.1704   20920188.4954   20920194.0164
   3026063.24646   2348565.57345  25283401.4414   25283399.7654   25283405.6024
    958036.95247    744156.40045  23421370.9144   23421371.8694   23421382.3354
  -7189523.83747  -5579882.14645  24266140.4104   24266139.6184   24266144.8194
   1619434.27148   1258778.78146  22660183.7934   22660183.4604   22660187.7894
  -1163852.19148   -900687.01246  22160731.5014   22160731.4434   22160735.3894
  -2876419.56349  -2063067.63048  20204298.8384   20204298.6824   20204303.0834
 97  6 10  3  7 59.9990000  0  7G21G17G23G25G 3G31G 1
  -1130096.77249   -876010.15747  20920081.2514   20920080.7794   20920086.3864
   3028170.36946   2350207.48845  25283802.6064   25283801.0384   25283806.2854
    958733.34947    744699.04845  23421503.6444   23421504.1464   23421514.4754
  -7194340.61647  -5583635.47845  24265223.8114   24265222.3514   24265228.4244
   1620769.24848   1259819.02146  22660437.7694   22660437.0834   22660442.1684
  -1164166.31348   -900931.78046  22160671.6584   22160671.1284   22160675.8884
  -2877889.33849  -2064212.90948  20204019.1404   20204018.8974   20204023.3874
 97  6 10  3  8  0.9990000  0  8G15G21G17G23G25G 3G31G 1
   -251491.92056   -171853.42745  23085117.7854                   23085122.3954
  -1130663.62849   -876451.86347  20919973.3654   20919972.9604   20919978.5794
   3030277.26146   2351849.22545  25284203.7344   25284201.9294   25284207.4894
    959429.52447    745241.52645  23421636.1874   23421636.4084   23421646.9804
  -7199157.63847  -5587389.00145  24264307.1534   24264305.7264   24264311.2834
   1622104.27048   1260859.29446  22660691.7634   22660690.3434   22660694.8784
  -1164480.11048   -901176.30546  22160611.8644   22160610.8794   22160616.0864
  -2879358.83449  -2065357.96948  20203739.5474   20203739.2654   20203743.5604
 97  6 10  3  8  1.9990000  0  8G15G21G17G23G25G 3G31G 1
   -256358.48146   -175645.55045  23084191.9764                   23084195.2904
  -1131230.48849   -876893.57247  20919865.4904   20919865.1244   20919870.4144
   3032384.00046   2353490.83945  25284604.7644   25284602.9784   25284609.0384
    960125.51247    745783.85345  23421768.7674   23421768.6604   23421779.5564
  -7203974.92247  -5591142.72745  24263390.4254   24263389.6844   24263394.4844
   1623439.35048   1261899.62346  22660945.7734   22660945.7924   22660950.0164
  -1164793.60748   -901420.59146  22160552.1644   22160551.7144   22160557.1374
  -2880828.04349  -2066502.81148  20203459.9904   20203459.8374   20203464.2604
 97  6 10  3  8  2.9990000  0  8G15G21G17G23G25G 3G31G 1
   -261225.22246   -179437.81645  23083265.5484                   23083269.3394
  -1131797.40849   -877335.33047  20919757.5734   20919757.1904   20919762.4534
   3034490.49346   2355132.26245  25285005.9364   25285004.0564   25285009.1614
    960821.23447    746325.97645  23421901.2174   23421900.9144   23421912.0594
  -7208792.50947  -5594896.68845  24262473.5694   24262473.5254   24262477.2124
   1624774.42048   1262939.94146  22661199.7794   22661200.0394   22661203.4934
  -1165106.84448   -901664.66846  22160492.5684   22160492.2514   22160496.4064
  -2882297.01549  -2067647.46248  20203180.4684   20203180.1384   20203184.5464
 97  6 10  3  8  3.9990000  0  8G15G21G17G23G25G 3G31G 1
   -266091.98947   -183230.09945  23082339.4274                   23082342.7514
  -1132364.23449   -877777.01447  20919649.6614   20919649.5074   20919654.7424
   3036596.87146   2356773.59245  25285406.8194   25285404.5764   25285410.6964
    961516.81847    746867.98845  23422033.7904   23422033.8854   23422045.0244
  -7213610.26247  -5598650.77645  24261556.6204   24261556.7784   24261560.1524
   1626109.62448   1263980.35246  22661453.7854   22661453.8264   22661458.0624
  -1165419.68748   -901908.44946  22160433.0664   22160432.3704   22160437.6254
  -2883765.63849  -2068791.84248  20202900.9704   20202900.7264   20202905.1314
 97  6 10  3  8  4.9990000  0  8G15G21G17G23G25G 3G31G 1
   -270958.68947   -187022.33245  23081413.0864                   23081416.5844
  -1132930.86249   -878218.54247  20919541.7904   20919541.5724   20919547.0034
   3038703.30846   2358414.97444  25285807.8404   25285805.9574   25285810.4744
    962212.37947    747409.98445  23422166.4324   23422166.0864   23422177.6564
  -7218428.08747  -5602404.92245  24260639.6794   24260639.4484   24260644.1164
   1627445.07048   1265020.94346  22661707.8034   22661707.6844   22661712.4264
  -1165732.00148   -902151.80846  22160373.6624   22160372.4774   22160378.1454
  -2885233.77849  -2069935.84548  20202621.5634   20202621.2634   20202625.7384
 97  6 10  3  8  5.9990000  0  8G15G21G17G23G25G 3G31G 1
   -275825.36747   -190814.54545  23080486.5724                   23080490.7574
  -1133497.35249   -878659.96147  20919433.9654   20919433.8664   20919439.3684
   3040809.67846   2360056.30444  25286208.7534   25286206.8544   25286211.0464
    962907.92447    747951.96645  23422298.9794   23422298.3434   23422309.7764
  -7223246.02747  -5606159.15545  24259722.7214   24259721.9244   24259727.3784
   1628780.70448   1266061.70446  22661961.9304   22661962.7174   22661965.9354
  -1166043.86448   -902394.81946  22160314.3884   22160313.6904   22160319.3754
  -2886701.49649  -2071079.52248  20202342.2504   20202341.9594   20202346.5624
 97  6 10  3  8  6.9990000  0  8G15G21G17G23G25G 3G31G 1
   -280691.67047   -194606.46445  23079560.3444                   23079565.0584
  -1134063.35349   -879101.00247  20919326.2824   20919326.0804   20919331.5474
   3042916.40146   2361697.90744  25286609.8284   25286606.6234   25286612.0744
    963603.72647    748494.14745  23422431.6054   23422430.7584   23422442.2714
  -7228063.73147  -5609913.21445  24258805.7394   24258804.2324   24258810.5554
   1630116.90148   1267102.89646  22662216.1914   22662216.4934   22662221.0124
  -1166354.91548   -902637.19846  22160255.2134   22160254.8594   22160259.6074
  -2888168.43549  -2072222.59348  20202063.0814   20202062.8104   20202067.2454
